[[{"header":{"parameterUnit":"m.s-1","parameterCategory":1,"la1":30.6,"la2":29.2853,"lo1":-89.7004,"lo2":-87.6739,"dy":0.0162,"dx":0.0183,"nx":112,"ny":82,"refTime":"2024-06-28T06:00:00:Z","depth":0,"parameterNumber":2,"parameterNumberName":"U-component_of_WINDS"},"data":[0.0,0.0,0.0,0.0,0.0,0.0,0.0,0.0,0.0,0.0,0.0,0.0,0.0,0.0,0.0,0.0,0.0,0.0,0.0,0.0,0.0,0.0,0.0,0.0,0.0,0.0,0.0,0.0,0.0,0.0,0.0,0.0,0.0,0.0,0.0,0.0,0.0,0.0,0.0,0.0,0.0,0.0,0.0,0.0,0.0,0.0,0.0,0.0,0.0,0.0,0.0,0.0,0.0,0.0,0.0,0.0,0.0,0.0,0.0,0.0,0.0,0.0,0.0,0.0,0.0,0.0,0.0,0.0,0.0,0.0,0.0,0.0,0.0,0.0,0.0,0.0,0.0,0.0,0.0,0.0,0.0,0.0,0.0,0.0,0.0,0.0,0.0,0.0,0.0,0.0,-5.2517,-5.0733,-5.7881,-6.278,-6.278,-6.1734,-5.9515,-5.5812,0.0,0.0,0.0,0.0,0.0,0.0,0.0,0.0,0.0,0.0,0.0,0.0,0.0,0.0,0.0,0.0,0.0,0.0,0.0,0.0,0.0,0.0,0.0,0.0,0.0,0.0,0.0,0.0,0.0,0.0,0.0,0.0,0.0,0.0,0.0,0.0,0.0,0.0,0.0,0.0,0.0,0.0,0.0,0.0,0.0,0.0,0.0,0.0,0.0,0.0,0.0,0.0,0.0,0.0,0.0,0.0,0.0,0.0,0.0,0.0,0.0,0.0,0.0,0.0,0.0,0.0,0.0,0.0,0.0,0.0,0.0,0.0,0.0,0.0,0.0,0.0,0.0,0.0,0.0,0.0,0.0,0.0,0.0,0.0,0.0,0.0,0.0,0.0,0.0,0.0,0.0,0.0,0.0,0.0,0.0,0.0,0.0,0.0,0.0,0.0,0.0,0.0,0.0,0.0,-5.5096,-6.0083,-6.1918,-6.278,-6.278,-6.141,-5.9116,-5.5794,0.0,0.0,0.0,0.0,0.0,0.0,0.0,0.0,0.0,0.0,0.0,0.0,0.0,0.0,0.0,0.0,0.0,0.0,0.0,0.0,0.0,0.0,0.0,0.0,0.0,0.0,0.0,0.0,0.0,0.0,0.0,0.0,0.0,0.0,0.0,0.0,0.0,0.0,0.0,0.0,0.0,0.0,0.0,0.0,0.0,0.0,0.0,0.0,0.0,0.0,0.0,0.0,0.0,0.0,0.0,0.0,0.0,0.0,0.0,0.0,0.0,0.0,0.0,0.0,0.0,0.0,0.0,0.0,0.0,0.0,0.0,0.0,0.0,0.0,0.0,0.0,0.0,0.0,0.0,0.0,0.0,0.0,0.0,0.0,0.0,0.0,0.0,0.0,0.0,0.0,0.0,0.0,0.0,0.0,0.0,0.0,0.0,0.0,0.0,0.0,0.0,0.0,0.0,-5.7674,-5.9513,-6.2494,-6.2273,-6.1991,-6.2144,-6.0676,-5.8382,-5.5152,-5.3861,0.0,0.0,0.0,0.0,0.0,0.0,0.0,0.0,0.0,0.0,0.0,0.0,0.0,0.0,0.0,0.0,0.0,0.0,0.0,0.0,0.0,0.0,0.0,0.0,0.0,0.0,0.0,0.0,0.0,0.0,0.0,0.0,0.0,0.0,0.0,0.0,0.0,0.0,0.0,0.0,0.0,0.0,0.0,0.0,0.0,0.0,0.0,0.0,0.0,0.0,0.0,0.0,0.0,0.0,0.0,0.0,0.0,0.0,0.0,0.0,0.0,0.0,0.0,0.0,0.0,0.0,0.0,0.0,0.0,0.0,0.0,0.0,0.0,0.0,0.0,0.0,0.0,0.0,0.0,0.0,0.0,0.0,0.0,0.0,0.0,0.0,0.0,0.0,0.0,0.0,0.0,0.0,0.0,0.0,0.0,0.0,0.0,0.0,0.0,0.0,0.0,0.0,-6.0061,-6.1792,-6.2034,-6.1256,-6.0908,-6.13,-5.9685,-5.7359,-5.4352,-5.2581,0.0,0.0,0.0,0.0,0.0,0.0,0.0,0.0,0.0,0.0,0.0,0.0,0.0,0.0,0.0,0.0,0.0,0.0,0.0,0.0,0.0,0.0,0.0,0.0,0.0,0.0,0.0,0.0,0.0,0.0,0.0,0.0,0.0,0.0,0.0,0.0,0.0,0.0,0.0,0.0,0.0,0.0,0.0,0.0,0.0,0.0,0.0,0.0,0.0,0.0,0.0,0.0,0.0,0.0,0.0,0.0,0.0,0.0,0.0,0.0,0.0,0.0,0.0,0.0,0.0,0.0,0.0,0.0,0.0,0.0,0.0,0.0,0.0,0.0,0.0,0.0,0.0,0.0,0.0,0.0,0.0,0.0,0.0,0.0,0.0,0.0,0.0,0.0,0.0,0.0,0.0,0.0,0.0,0.0,0.0,0.0,0.0,0.0,0.0,0.0,0.0,0.0,-5.5886,-5.8863,-5.9725,-5.9576,-5.9717,-6.0426,-5.8327,-5.5976,-5.3626,-5.1266,0.0,0.0,0.0,0.0,0.0,0.0,0.0,0.0,0.0,0.0,0.0,0.0,0.0,0.0,0.0,0.0,0.0,0.0,0.0,0.0,0.0,0.0,0.0,0.0,0.0,0.0,0.0,0.0,0.0,0.0,0.0,0.0,0.0,0.0,0.0,0.0,0.0,0.0,0.0,0.0,0.0,0.0,0.0,0.0,0.0,0.0,0.0,0.0,0.0,0.0,0.0,0.0,0.0,0.0,0.0,0.0,0.0,0.0,0.0,0.0,0.0,0.0,0.0,0.0,0.0,0.0,0.0,0.0,0.0,0.0,0.0,0.0,0.0,0.0,0.0,0.0,0.0,0.0,0.0,0.0,0.0,0.0,0.0,0.0,0.0,0.0,0.0,0.0,0.0,0.0,0.0,0.0,0.0,0.0,0.0,0.0,0.0,0.0,0.0,0.0,0.0,0.0,-5.4496,-5.6913,0.0,-5.8156,-5.7914,-5.8206,-5.648,-5.4445,-5.2115,0.0,0.0,0.0,0.0,0.0,0.0,0.0,0.0,0.0,0.0,0.0,0.0,0.0,0.0,0.0,0.0,0.0,0.0,0.0,0.0,0.0,0.0,0.0,0.0,0.0,0.0,0.0,0.0,0.0,0.0,0.0,0.0,0.0,0.0,0.0,0.0,0.0,0.0,0.0,0.0,0.0,0.0,0.0,0.0,0.0,0.0,0.0,0.0,0.0,0.0,0.0,0.0,0.0,0.0,0.0,0.0,0.0,0.0,0.0,0.0,0.0,0.0,0.0,0.0,0.0,0.0,0.0,0.0,0.0,0.0,0.0,0.0,0.0,0.0,0.0,0.0,0.0,0.0,0.0,0.0,0.0,0.0,0.0,0.0,0.0,0.0,0.0,0.0,0.0,0.0,0.0,0.0,0.0,0.0,0.0,0.0,0.0,0.0,0.0,0.0,0.0,0.0,-5.1625,-5.3207,-5.4963,0.0,-5.6664,-5.6165,-5.6159,-5.4522,-5.2502,-5.0224,0.0,0.0,0.0,0.0,0.0,0.0,0.0,0.0,0.0,0.0,0.0,0.0,0.0,0.0,0.0,0.0,0.0,0.0,0.0,0.0,0.0,0.0,0.0,0.0,0.0,0.0,0.0,0.0,0.0,0.0,0.0,0.0,0.0,0.0,0.0,0.0,0.0,0.0,0.0,0.0,0.0,0.0,0.0,0.0,0.0,0.0,0.0,0.0,0.0,0.0,0.0,0.0,0.0,0.0,0.0,0.0,0.0,0.0,0.0,0.0,0.0,0.0,0.0,0.0,0.0,0.0,0.0,0.0,0.0,0.0,0.0,0.0,0.0,0.0,0.0,0.0,0.0,0.0,0.0,0.0,0.0,0.0,0.0,0.0,0.0,0.0,0.0,0.0,0.0,0.0,0.0,0.0,0.0,0.0,0.0,0.0,0.0,0.0,0.0,0.0,0.0,0.0,-5.0873,-5.1621,-5.2946,-5.5405,-5.5012,-5.4578,-5.4581,-5.2431,-5.0171,0.0,0.0,0.0,0.0,0.0,0.0,0.0,0.0,0.0,0.0,0.0,0.0,0.0,0.0,0.0,0.0,0.0,0.0,0.0,0.0,0.0,0.0,0.0,0.0,0.0,0.0,0.0,0.0,0.0,0.0,0.0,0.0,0.0,0.0,0.0,0.0,0.0,0.0,0.0,0.0,0.0,0.0,0.0,0.0,0.0,0.0,0.0,0.0,0.0,0.0,0.0,0.0,0.0,0.0,0.0,0.0,0.0,0.0,0.0,0.0,0.0,0.0,0.0,0.0,0.0,0.0,0.0,0.0,0.0,0.0,0.0,0.0,0.0,0.0,0.0,0.0,0.0,0.0,0.0,0.0,0.0,0.0,0.0,0.0,0.0,0.0,0.0,0.0,0.0,0.0,0.0,0.0,0.0,0.0,0.0,0.0,0.0,0.0,0.0,0.0,0.0,0.0,0.0,-4.9365,-5.0687,-5.2111,-5.3952,-5.3946,-5.3589,-5.3024,-5.139,-4.9465,-4.7261,0.0,0.0,0.0,0.0,0.0,0.0,0.0,0.0,0.0,0.0,0.0,0.0,0.0,0.0,0.0,0.0,0.0,0.0,0.0,0.0,0.0,0.0,0.0,0.0,0.0,0.0,0.0,0.0,0.0,0.0,0.0,0.0,0.0,0.0,0.0,0.0,0.0,0.0,0.0,0.0,0.0,0.0,0.0,0.0,0.0,0.0,0.0,0.0,0.0,0.0,0.0,0.0,0.0,0.0,0.0,0.0,0.0,0.0,0.0,0.0,0.0,0.0,0.0,0.0,0.0,0.0,0.0,0.0,0.0,0.0,0.0,0.0,0.0,0.0,0.0,0.0,0.0,0.0,0.0,0.0,0.0,0.0,0.0,0.0,0.0,0.0,0.0,0.0,0.0,0.0,0.0,0.0,0.0,0.0,0.0,0.0,0.0,0.0,0.0,0.0,0.0,0.0,-4.8325,-4.9864,-5.1234,-5.2469,-5.2587,-5.2283,-5.1488,-5.0338,-4.8714,-4.6498,0.0,0.0,0.0,0.0,0.0,0.0,0.0,0.0,0.0,0.0,0.0,0.0,0.0,0.0,0.0,0.0,0.0,0.0,0.0,0.0,0.0,0.0,0.0,0.0,0.0,0.0,0.0,0.0,0.0,0.0,0.0,0.0,0.0,0.0,0.0,0.0,0.0,0.0,0.0,0.0,0.0,0.0,0.0,0.0,0.0,0.0,0.0,0.0,0.0,0.0,0.0,0.0,0.0,0.0,0.0,0.0,0.0,0.0,0.0,0.0,0.0,0.0,0.0,0.0,0.0,0.0,0.0,0.0,0.0,0.0,0.0,0.0,0.0,0.0,0.0,0.0,0.0,0.0,0.0,0.0,0.0,0.0,0.0,0.0,0.0,0.0,0.0,0.0,0.0,0.0,0.0,0.0,0.0,0.0,0.0,0.0,0.0,0.0,0.0,0.0,0.0,0.0,-4.7716,-4.9187,-5.0371,-5.1133,-5.1185,-5.0913,-5.0152,-4.9424,-4.8071,-4.5838,0.0,0.0,0.0,0.0,0.0,0.0,0.0,0.0,0.0,0.0,0.0,0.0,0.0,0.0,0.0,0.0,0.0,0.0,0.0,0.0,0.0,0.0,0.0,0.0,0.0,0.0,0.0,0.0,0.0,0.0,0.0,0.0,0.0,0.0,0.0,0.0,0.0,0.0,0.0,0.0,0.0,0.0,0.0,0.0,0.0,0.0,0.0,0.0,0.0,0.0,0.0,0.0,0.0,0.0,0.0,0.0,0.0,0.0,0.0,0.0,-4.915,0.0,0.0,0.0,0.0,0.0,0.0,0.0,0.0,0.0,0.0,0.0,0.0,0.0,0.0,0.0,0.0,0.0,0.0,0.0,0.0,0.0,0.0,0.0,0.0,0.0,0.0,0.0,0.0,0.0,0.0,0.0,0.0,0.0,0.0,0.0,0.0,0.0,0.0,0.0,0.0,0.0,-4.7648,-4.9187,-5.0371,-5.1133,-5.1185,-5.0913,-5.0152,-4.9424,-4.8071,-4.5838,-4.4993,0.0,0.0,0.0,0.0,0.0,0.0,0.0,0.0,0.0,0.0,0.0,0.0,0.0,0.0,0.0,0.0,0.0,0.0,0.0,0.0,0.0,0.0,0.0,0.0,0.0,0.0,0.0,0.0,0.0,0.0,0.0,0.0,0.0,0.0,0.0,0.0,0.0,0.0,0.0,0.0,0.0,0.0,0.0,0.0,0.0,0.0,0.0,0.0,0.0,0.0,0.0,0.0,0.0,0.0,0.0,0.0,0.0,0.0,0.0,0.0,-4.9921,0.0,0.0,0.0,0.0,0.0,0.0,0.0,0.0,0.0,0.0,0.0,0.0,0.0,0.0,0.0,0.0,0.0,0.0,0.0,0.0,0.0,0.0,0.0,0.0,0.0,0.0,0.0,0.0,0.0,0.0,0.0,0.0,0.0,0.0,0.0,0.0,0.0,0.0,0.0,0.0,-4.709,-4.8359,-4.934,-5.0067,-5.0152,-4.9999,-4.9593,-4.9221,-4.8206,-4.6346,-4.5534,0.0,0.0,0.0,0.0,0.0,0.0,0.0,0.0,0.0,0.0,0.0,0.0,0.0,0.0,0.0,0.0,0.0,0.0,0.0,0.0,0.0,0.0,0.0,0.0,0.0,0.0,0.0,0.0,0.0,0.0,0.0,0.0,0.0,0.0,0.0,0.0,0.0,0.0,0.0,0.0,0.0,0.0,0.0,0.0,0.0,0.0,0.0,0.0,0.0,0.0,0.0,0.0,0.0,-5.3035,-5.3438,-5.3419,-5.3546,-5.3628,-5.3534,-5.2071,-5.1206,-5.0728,-4.9641,0.0,0.0,0.0,0.0,0.0,0.0,0.0,0.0,0.0,0.0,0.0,0.0,0.0,0.0,0.0,0.0,0.0,0.0,0.0,0.0,0.0,0.0,0.0,0.0,-4.6989,-4.6481,-4.4575,0.0,0.0,0.0,0.0,0.0,0.0,0.0,0.0,0.0,0.0,0.0,-4.6515,-4.7445,-4.8189,-4.8934,-4.9001,-4.9001,-4.9001,-4.9001,-4.8376,-4.6887,-4.6227,-4.5145,0.0,0.0,0.0,0.0,0.0,0.0,0.0,0.0,0.0,0.0,0.0,0.0,0.0,0.0,0.0,0.0,0.0,0.0,0.0,0.0,0.0,0.0,0.0,0.0,0.0,0.0,0.0,0.0,0.0,0.0,0.0,0.0,-4.2228,-4.3677,0.0,0.0,0.0,0.0,0.0,0.0,0.0,0.0,0.0,0.0,0.0,0.0,0.0,-5.2068,-5.2873,-5.2985,-5.3032,-5.305,-5.3917,-5.4339,-5.4339,-5.498,-5.5262,-5.524,-5.4379,0.0,-5.0945,-5.1432,0.0,0.0,0.0,0.0,0.0,0.0,0.0,0.0,0.0,0.0,0.0,0.0,0.0,0.0,0.0,0.0,0.0,0.0,0.0,0.0,0.0,0.0,-4.8308,-4.7868,-4.7736,-4.7652,0.0,-4.6312,-4.5179,-4.4445,-4.3809,0.0,0.0,0.0,0.0,0.0,0.0,0.0,-4.6583,-4.7445,-4.8189,-4.8934,-4.9001,-4.9001,-4.9001,-4.9001,-4.8376,-4.6887,-4.6701,-4.5686,-4.3477,-4.3206,0.0,0.0,0.0,0.0,0.0,0.0,0.0,0.0,0.0,0.0,0.0,0.0,0.0,0.0,0.0,0.0,0.0,0.0,0.0,0.0,0.0,0.0,0.0,0.0,0.0,0.0,0.0,0.0,0.0,-4.191,-4.3524,-4.5455,-4.5991,-4.6117,0.0,0.0,0.0,0.0,0.0,0.0,0.0,0.0,0.0,-5.3298,-5.3775,-5.4009,-5.3935,-5.4827,-5.4845,-5.3948,-5.4795,-5.5169,-5.5196,-5.5512,-5.5659,-5.5641,-5.5303,-5.41,-5.2323,-5.1811,-5.0406,-4.8553,0.0,0.0,0.0,0.0,-4.7674,-4.771,-4.8129,-4.8037,-4.7638,-4.6947,0.0,0.0,0.0,0.0,0.0,0.0,0.0,0.0,0.0,0.0,-4.8379,-4.8511,-4.8528,-4.8388,-4.787,-4.7634,-4.7208,0.0,-4.5889,-4.5449,-4.3842,0.0,0.0,0.0,0.0,-4.5139,-4.6599,-4.7445,-4.8189,-4.8934,-4.9001,-4.9001,-4.9001,-4.9001,-4.8376,-4.6887,-4.6786,-4.5974,-4.4147,-4.3656,-4.2946,0.0,0.0,0.0,0.0,0.0,0.0,0.0,0.0,0.0,0.0,0.0,0.0,0.0,0.0,0.0,0.0,0.0,0.0,0.0,0.0,0.0,0.0,0.0,0.0,0.0,0.0,0.0,0.0,-4.3959,-4.5315,-4.6904,-4.7875,-4.7893,0.0,0.0,0.0,0.0,0.0,0.0,-5.2586,-5.3396,-5.4276,-5.5291,-5.5912,-5.5946,-5.5388,-5.6179,-5.5984,-5.4805,-5.5232,-5.5437,-5.5419,-5.5621,-5.5706,-5.5678,-5.5495,-5.4816,-5.3684,-5.2337,-5.1129,-5.0027,-4.9395,-4.8558,-4.7817,-4.8328,-4.8167,-4.7847,-4.8369,-4.828,-4.7821,-4.7479,-4.7242,-4.6769,-4.5077,0.0,0.0,0.0,0.0,-4.7242,-4.8003,-4.8189,-4.8342,-4.8883,-4.9001,-4.875,-4.7803,-4.8338,-4.8551,0.0,-4.7363,-4.7327,-4.5466,0.0,0.0,0.0,0.0,-4.5647,-4.6921,-4.7564,-4.8189,-4.8934,-4.9001,-4.8934,-4.8748,-4.8731,-4.8088,-4.6599,-4.6515,-4.5923,-4.4649,-4.4028,-4.3595,-4.3392,0.0,0.0,0.0,0.0,0.0,0.0,0.0,0.0,0.0,0.0,0.0,0.0,0.0,0.0,0.0,0.0,0.0,0.0,0.0,0.0,0.0,0.0,0.0,0.0,0.0,0.0,0.0,0.0,0.0,-4.7181,-4.8041,0.0,0.0,0.0,0.0,-4.9717,-5.1095,-5.2648,-5.4296,-5.5076,-5.6194,-5.776,-5.7869,-5.7854,-5.7818,-5.6462,-5.5726,-5.5643,-5.4981,-5.4651,-5.4682,-5.5379,-5.5706,-5.5649,-5.4952,-5.4616,-5.4468,-5.3719,-5.2104,-5.0096,-5.0045,-4.9165,-4.7881,-4.7941,-4.7911,-4.7898,-4.7932,-4.7919,-4.799,-4.868,-4.8426,-4.7804,-4.7703,-4.7208,0.0,0.0,-4.7804,-4.799,-4.8748,-4.8951,-4.8951,-4.9001,-4.9001,-4.875,-4.7803,-4.8338,-4.85,0.0,-4.7266,-4.7618,-4.6819,0.0,-4.6667,-4.6633,-4.665,-4.6972,-4.7767,-4.7872,-4.8189,-4.8934,-4.9001,-4.8731,-4.799,-4.7939,-4.7344,-4.5855,-4.5771,-4.5399,-4.4632,-4.4564,-4.4181,-4.3409,-4.2642,0.0,0.0,0.0,0.0,0.0,0.0,0.0,0.0,0.0,0.0,0.0,0.0,0.0,0.0,0.0,0.0,0.0,0.0,0.0,0.0,0.0,0.0,0.0,0.0,0.0,0.0,0.0,0.0,-4.7433,-4.8805,0.0,-4.8355,-4.9723,-5.0682,-5.0711,-5.2474,-5.402,-5.5159,-5.6438,-5.7413,-5.7972,-5.8499,-5.8261,-5.7224,-5.7213,-5.6445,-5.499,-5.4717,-5.4341,-5.3913,-5.4154,-5.4281,-5.4281,-5.3994,-5.3881,-5.3864,-5.3608,-5.273,-5.1522,-5.1522,-5.0913,-5.0002,-5.0002,-4.9729,-4.9323,-4.9323,-4.9018,-4.8663,-4.8917,-4.8511,-4.7889,-4.7889,-4.7733,-4.7581,-4.7821,-4.8227,-4.868,-4.8934,-4.9001,-4.9001,-4.9001,-4.9001,-4.875,-4.7803,-4.7868,-4.7899,-4.7325,-4.7985,-4.8376,-4.7631,-4.7513,-4.7361,-4.687,-4.7208,-4.7614,-4.7855,-4.8294,-4.8714,-4.8968,-4.9001,-4.8714,-4.7939,-4.7889,-4.7263,-4.5805,-4.5703,-4.5365,-4.4632,-4.4615,-4.4479,-4.4181,-4.342,-4.2422,0.0,0.0,0.0,0.0,0.0,0.0,0.0,0.0,0.0,0.0,0.0,0.0,0.0,0.0,0.0,0.0,0.0,0.0,0.0,0.0,0.0,0.0,0.0,0.0,0.0,0.0,-4.7705,-4.7957,-4.9537,-5.029,-4.9461,-5.0597,-5.1413,-5.1567,-5.3582,-5.5168,-5.5999,-5.7552,-5.8381,-5.8369,-5.917,-5.8833,-5.7208,-5.7716,-5.7121,-5.5327,-5.4837,-5.4329,-5.3856,-5.3619,-5.3501,-5.3501,-5.3501,-5.3501,-5.3501,-5.3501,-5.3196,-5.2706,-5.2706,-5.2249,-5.1589,-5.1589,-5.0947,-5.005,-4.9813,-4.9407,-4.9001,-4.9001,-4.868,-4.8291,-4.8291,-4.8291,-4.8291,-4.8291,-4.8629,-4.9001,-4.9001,-4.9001,-4.9001,-4.9001,-4.9001,-4.875,-4.7803,-4.7589,-4.7523,-4.7205,-4.7868,-4.8457,-4.8298,-4.8291,-4.8122,-4.7614,-4.797,-4.8291,-4.8291,-4.8714,-4.9001,-4.9001,-4.9001,-4.8612,-4.7614,-4.753,-4.6904,-4.5415,-4.5331,-4.5094,-4.4632,-4.4615,-4.4615,-4.4615,-4.3541,-4.2261,-4.0759,0.0,0.0,0.0,0.0,0.0,0.0,0.0,0.0,0.0,0.0,0.0,0.0,0.0,0.0,0.0,0.0,0.0,0.0,0.0,0.0,0.0,0.0,0.0,-4.6059,-4.7749,-4.8763,-4.8784,-5.0223,-5.1031,-5.0582,-5.166,-5.235,-5.2367,-5.4445,-5.605,-5.6841,-5.8338,-5.9106,-5.906,-5.9896,-5.9526,-5.7918,-5.7981,-5.7603,-5.6782,-5.5344,-5.4634,-5.4566,-5.3856,-5.3518,-5.3501,-5.3501,-5.3501,-5.3501,-5.3501,-5.3501,-5.3501,-5.3501,-5.3027,-5.2334,-5.2334,-5.1403,-5.0016,-4.9255,-4.9001,-4.9001,-4.9001,-4.9001,-4.9001,-4.9001,-4.9001,-4.9001,-4.9001,-4.9001,-4.9001,-4.9001,-4.9001,-4.9001,-4.9001,-4.9001,-4.875,-4.7836,-4.7622,-4.734,-4.6419,-4.6952,-4.7836,-4.8781,-4.897,-4.9001,-4.9001,-4.9001,0.0,-4.9001,-4.9001,-4.9001,-4.9001,-4.9001,-4.8409,-4.6921,-4.6786,-4.616,-4.4699,-4.4615,-4.4615,-4.4615,-4.4615,-4.4615,-4.4615,-4.3024,-4.1465,-3.9961,0.0,0.0,0.0,0.0,0.0,0.0,0.0,0.0,0.0,0.0,0.0,0.0,0.0,0.0,0.0,0.0,0.0,0.0,0.0,0.0,0.0,-4.2127,-4.3722,-4.4937,-4.6844,-4.8351,-4.89,-5.0264,-5.1349,-5.1758,-5.2634,-5.3399,-5.3923,-5.5026,-5.6013,-5.678,-5.774,-5.8236,-5.8227,-5.8458,-5.8369,-5.7881,-5.7933,-5.754,-5.6799,-5.6393,-5.5632,-5.4583,-5.438,-5.4008,-5.3501,-5.3501,-5.3501,-5.3501,-5.3501,-5.3501,-5.3501,-5.3501,-5.3365,-5.3179,-5.3179,-5.2215,-5.0727,-4.9441,-4.9001,-4.9001,-4.9001,-4.9001,-4.9001,-4.9001,-4.9001,-4.9001,-4.9001,-4.9001,-4.9001,-4.9001,-4.9001,-4.9001,-4.9001,-4.9001,-4.894,-4.8688,-4.808,-4.7523,-4.7273,-4.6884,-4.6884,-4.7836,-4.8545,-4.9001,-4.9001,-4.9001,0.0,-4.9001,-4.9001,-4.9001,-4.9001,-4.9001,-4.8409,-4.6921,-4.6786,-4.616,-4.4699,-4.4615,-4.4615,-4.4615,-4.4615,-4.4615,-4.4615,-4.3024,-4.2005,0.0,0.0,0.0,0.0,0.0,0.0,0.0,0.0,0.0,0.0,0.0,0.0,0.0,0.0,0.0,0.0,0.0,0.0,0.0,0.0,0.0,0.0,-4.2875,-4.4409,-4.4909,-4.6645,-4.8308,-4.934,-5.0507,-5.1505,-5.2232,-5.3027,-5.3805,-5.4532,-5.5294,-5.6038,-5.6765,-5.7492,-5.7881,-5.7881,-5.8227,-5.8227,-5.7881,-5.8227,-5.8006,-5.7256,-5.6951,-5.619,-5.5057,-5.4735,-5.4194,-5.3501,-5.3501,-5.3501,-5.3501,-5.3501,-5.3501,0.0,0.0,0.0,0.0,0.0,-5.1775,-5.0574,-4.9407,-4.9001,-4.9001,-4.9001,-4.9001,-4.9001,-4.9001,-4.9001,-4.9001,-4.9001,-4.9001,-4.9001,-4.9001,-4.9001,-4.9001,-4.9001,-4.9001,-4.9001,-4.9001,-4.8257,-4.7489,-4.7088,-4.6558,0.0,-4.6918,-4.7803,-4.8545,-4.894,-4.9001,-4.9001,-4.9001,-4.9001,-4.9001,-4.9001,-4.9001,-4.8528,-4.7361,-4.6972,0.0,0.0,0.0,-4.4615,-4.4615,-4.4615,0.0,0.0,0.0,0.0,0.0,0.0,0.0,0.0,-3.9471,-3.9825,0.0,0.0,0.0,0.0,0.0,0.0,0.0,0.0,0.0,0.0,0.0,0.0,0.0,0.0,0.0,0.0,-4.3696,-4.5573,-4.5767,-4.7072,-4.8545,-4.9915,-5.076,-5.1505,-5.2232,-5.3027,-5.3839,-5.4651,-5.5344,-5.6072,-5.6884,0.0,0.0,0.0,0.0,-5.8633,-5.7918,-5.8599,-5.8599,-5.7881,-5.7239,-5.6494,-5.5664,-5.5023,-5.4279,-5.3501,-5.3501,-5.3501,-5.3501,-5.3501,-5.3501,-5.3501,-5.3501,-5.345,-5.3196,-5.1758,-5.0727,-4.9982,-4.9255,0.0,0.0,-4.9001,-4.9001,-4.9001,-4.9001,-4.9001,-4.9001,-4.9001,-4.9001,-4.9001,-4.9001,-4.9001,-4.9001,-4.9001,-4.9001,-4.9001,-4.9001,-4.837,-4.7456,-4.6384,-4.6208,-4.6208,-4.6208,-4.6986,-4.7901,-4.8861,-4.8934,-4.8883,-4.8883,-4.8798,-4.8748,-4.8748,0.0,0.0,-4.7703,-4.7056,-4.6363,-4.5618,-4.4942,-4.4615,-4.4615,-4.4615,-4.4615,-4.4615,-4.2892,-4.2333,-4.302,-4.1265,-4.0771,-4.1497,-4.0939,-4.1279,0.0,0.0,0.0,0.0,0.0,0.0,0.0,0.0,0.0,0.0,0.0,0.0,0.0,0.0,0.0,-4.3468,-4.4783,-4.596,-4.7261,-4.8233,-4.912,-4.9982,-5.076,-5.1505,-5.2232,-5.3027,-5.4059,-5.5395,-5.5632,-5.6292,-5.7611,-5.7814,-5.7881,-5.7881,-5.8046,-5.8046,-5.7881,-5.8046,-5.8046,-5.7881,0.0,0.0,-5.5681,-5.5564,-5.4769,-5.3501,-5.3501,-5.3501,-5.3501,-5.3501,-5.3501,-5.3501,-5.3501,-5.3112,-5.2418,-5.1539,-5.0727,-4.9982,-4.9255,-4.9001,-4.9001,-4.9001,-4.9001,-4.9001,-4.9001,-4.9001,0.0,-4.9001,-4.9001,-4.9001,-4.9001,-4.9001,-4.9001,-4.9001,-4.9001,-4.9001,-4.9001,-4.8861,-4.8225,-4.6523,-4.6208,-4.6208,-4.6208,-4.6986,-4.7901,-4.8861,-4.8494,-4.8091,-4.8091,-4.7597,-4.7225,-4.7225,-4.7225,-4.6921,-4.6194,-4.5991,-4.5602,-4.4869,-4.4682,-4.4615,-4.4615,-4.4615,-4.4615,-4.4615,-4.2892,-4.2333,-4.302,-4.1265,-4.101,-4.2186,-4.1543,-4.1663,0.0,0.0,0.0,0.0,0.0,0.0,0.0,0.0,0.0,0.0,0.0,-3.9904,-4.1416,0.0,-4.1765,-4.4114,-4.5047,-4.5899,-4.7072,-4.8265,-4.9272,-4.9999,-5.076,-5.1505,-5.2232,-5.3027,-5.4126,-5.5598,-5.5681,-5.6342,-5.7814,-5.7881,-5.7881,-5.7881,-5.7881,-5.7881,-5.7881,-5.7881,-5.7881,-5.7881,-5.7881,-5.712,-5.5681,-5.5681,-5.4905,-5.3501,-5.3501,-5.3501,-5.3501,-5.3501,-5.3501,-5.3501,-5.3501,-5.301,-5.2215,-5.1488,-5.0727,-4.9982,-4.9255,-4.9001,-4.9001,-4.9001,-4.9001,-4.9001,-4.9001,-4.9001,-4.9001,-4.9001,-4.9001,-4.9001,-4.9001,-4.9001,-4.9001,-4.9001,-4.9001,-4.9001,-4.9001,-4.8625,-4.7868,-4.6454,-4.5834,-4.5634,-4.6103,-4.6592,-4.7258,-4.831,-4.8125,-4.7753,-4.7411,-4.7022,-4.6786,-4.6786,-4.6786,-4.665,-4.6278,-4.5923,-4.5382,-4.4649,-4.4615,-4.4784,-4.5128,-4.4801,-4.4784,-4.5128,-4.3864,-4.3522,-4.4204,-4.2778,-4.2626,-4.3579,-4.2724,-4.2536,0.0,0.0,0.0,0.0,0.0,0.0,0.0,0.0,-3.8596,-3.9497,-4.0598,-4.1667,-4.2522,-4.265,-4.3119,-4.4622,-4.5512,-4.6225,-4.6955,-4.8176,-4.9221,-4.9813,-5.0676,-5.1454,-5.2029,-5.2942,-5.4126,-5.5598,-5.5681,-5.6342,-5.7814,-5.7881,-5.7881,-5.7881,-5.7881,-5.7881,-5.7881,-5.7881,-5.7881,-5.7881,-5.7746,-5.6985,-5.5681,-5.5564,-5.4769,-5.3501,-5.3501,-5.3501,-5.3501,-5.3501,-5.3501,-5.3501,-5.3501,-5.3112,-5.2418,-5.1539,-5.0727,-4.9982,-4.9255,-4.9001,-4.9001,-4.9001,-4.9001,-4.9001,-4.9001,-4.9001,-4.9001,-4.9001,-4.9001,-4.9001,-4.9001,-4.9001,-4.894,-4.875,-4.8719,-4.8688,-4.8513,-4.7868,-4.7088,-4.6349,-4.5431,-4.5153,-4.6295,-4.6314,-4.6572,-4.7712,-4.78,-4.7428,-4.6667,-4.6447,-4.6363,-4.6363,-4.6363,-4.6413,-4.6566,-4.6041,-4.55,-4.5072,-4.5038,-4.528,-4.5889,-4.5331,-4.5297,-4.5906,-4.4884,-4.4669,-4.5341,-4.413,-4.387,-4.4472,-4.3669,-4.329,-3.1916,-3.2655,-3.3778,-3.5898,-3.6011,-3.6462,0.0,0.0,-4.0443,-4.2456,-4.2455,-4.2555,-4.4041,-4.4243,-4.4685,-4.6262,-4.7157,-4.7885,-4.8641,-4.8889,-4.9035,-4.912,-5.0371,-5.1219,-5.1336,-5.2655,-5.4126,-5.5598,-5.5681,-5.6342,-5.7814,-5.7881,-5.7881,-5.7881,-5.7881,-5.7881,-5.7881,-5.7881,-5.7881,-5.7881,-5.7239,-5.6494,-5.5664,-5.5023,-5.4279,-5.3501,-5.3501,-5.3501,-5.3501,-5.3501,-5.3501,-5.3501,-5.3501,-5.345,-5.3196,-5.1758,-5.0727,-4.9982,-4.9255,-4.9001,-4.9001,-4.9001,-4.9001,-4.9001,-4.9001,-4.9001,-4.9001,-4.9001,-4.9001,-4.9001,-4.9001,-4.9001,-4.8798,-4.7933,-4.777,-4.7523,-4.6712,-4.6419,-4.6314,-4.6208,-4.5431,-4.5358,-4.7138,-4.6747,-4.6572,-4.7712,-4.7344,-4.665,-4.5923,-4.5246,-4.4852,-4.4852,-4.4852,-4.5122,-4.5771,-4.5754,-4.594,-4.6515,-4.6532,-4.6583,-4.6667,-4.6583,-4.6583,-4.6667,-4.4998,-4.4468,-4.514,-4.3411,-4.2881,-4.3488,-4.3369,-4.329,-3.3161,-3.4477,0.0,0.0,-3.7523,-3.8514,-3.9665,-4.0679,-4.1504,-4.1933,-4.2846,-4.3638,-4.3823,-4.4578,-4.5509,0.0,-4.7428,-4.8173,-4.89,-4.9001,-4.9001,-4.9001,-5.0321,-5.1185,-5.1185,-5.2604,-5.394,-5.4989,-5.548,-5.6173,-5.7205,-5.7662,-5.7881,-5.7881,-5.7881,-5.7881,-5.7881,-5.7881,-5.7881,-5.7881,-5.7154,-5.6427,-5.5683,-5.4938,-5.4194,-5.3501,-5.3501,-5.3501,-5.3501,-5.3501,-5.3501,-5.3501,-5.3501,-5.3501,-5.3365,-5.2249,-5.1386,-5.0642,-4.9898,-4.9357,-4.9001,-4.9001,-4.9001,-4.9001,-4.9001,-4.9001,-4.8892,-4.8338,-4.8193,-4.8047,-4.7523,-4.7373,-4.7273,-4.6884,-4.6781,-4.6678,-4.6279,-4.5762,-4.5395,-4.5395,-4.4608,-4.4343,-4.5742,-4.5649,-4.5754,-4.6924,-4.6925,-4.638,-4.5196,-4.4801,-4.4767,-4.5179,-4.5229,-4.5534,-4.6278,-4.6346,-4.6464,-4.6769,-4.6786,-4.6989,-4.7428,-4.7022,-4.7005,-4.7445,-4.6708,-4.6157,-4.5911,-4.5021,-4.4465,-4.4143,-4.3551,-4.329,-3.4303,0.0,0.0,-3.7066,-3.8471,-3.9774,-3.9631,-4.0849,-4.1923,-4.1699,-4.3048,-4.4131,-4.3735,-4.4938,-4.6177,-4.6701,-4.7597,-4.8409,-4.8934,-4.8798,-4.8692,-4.8862,-5.0036,-5.0892,-5.1061,-5.2539,-5.3805,-5.4532,-5.5294,-5.6038,-5.6765,-5.7492,-5.7881,-5.7881,-5.7881,-5.7881,-5.7881,-5.7881,-5.7881,-5.7881,-5.6951,-5.6224,-5.5683,-5.4735,-5.4008,-5.3501,-5.3501,-5.3501,-5.3501,-5.3501,-5.3501,-5.3501,-5.3501,-5.3501,-5.3433,-5.2858,-5.2029,-5.1099,-5.0355,-4.961,-4.9001,-4.9001,-4.9001,-4.894,-4.8688,-4.8608,-4.8401,-4.7489,-4.7189,-4.707,-4.6384,-4.6208,-4.6138,-4.5869,-4.5798,-4.5726,-4.5473,-4.4893,-4.4472,-4.4737,-4.4004,-4.3693,-4.4968,-4.4983,-4.5102,-4.5992,-4.6456,-4.6333,-4.5348,-4.499,-4.503,-4.5555,-4.5606,-4.5908,-4.666,-4.6971,-4.7192,-4.7378,-4.7411,-4.7648,-4.8189,-4.7454,-4.7281,-4.7788,-4.7315,-4.6701,-4.6036,-4.5615,-4.5048,-4.4373,-4.363,-4.329,0.0,0.0,-3.6981,-3.7702,-3.8447,-3.9394,-4.0815,-4.1187,-4.1617,-4.3027,-4.3392,-4.3663,-4.4406,-4.5771,-4.6769,-4.6786,-4.802,-4.8984,-4.9001,-4.8225,-4.7886,-4.8544,-4.932,-5.0096,0.0,-5.2452,-5.3805,-5.4532,-5.5294,-5.6038,-5.6765,-5.7492,-5.7881,-5.7881,-5.7881,-5.7881,-5.7881,-5.7881,-5.7881,-5.7865,-5.6444,-5.5733,-5.5666,-5.4211,-5.3518,-5.3501,-5.3501,-5.3501,-5.3501,-5.3501,-5.3501,-5.3501,-5.3501,-5.3501,-5.3501,-5.3467,-5.252,-5.1099,-5.0355,-4.961,-4.9001,-4.9001,-4.9001,-4.8829,-4.7901,-4.7655,-4.7456,-4.6488,-4.6244,-4.6244,-4.6208,-4.6208,-4.5977,-4.5042,-4.4849,-4.4586,-4.3591,-4.3369,-4.3615,-4.4624,-4.4004,-4.3897,-4.5818,-4.5395,-4.4898,-4.5088,-4.5928,-4.6573,-4.6714,-4.5943,-4.5382,-4.5398,-4.5398,-4.5711,-4.6452,-4.7328,-4.8159,-4.89,-4.8934,-4.8951,-4.8968,-4.8062,-4.7573,-4.7622,-4.5818,-4.4893,-4.4856,-4.3873,-4.3369,-4.3329,-4.3329,-4.329,0.0,0.0,-3.7584,-3.7838,-3.8819,-3.9859,-4.0367,-4.0849,-4.1339,-4.1847,-4.2337,-4.2895,-4.3673,-4.4637,-4.5652,-4.6633,-4.7631,-4.846,-4.8934,-4.856,-4.8362,-4.8559,-4.9102,0.0,0.0,0.0,0.0,-5.3856,-5.5023,-5.5818,-5.6072,-5.7222,-5.7881,-5.7881,-5.7881,-5.7881,-5.7881,-5.7881,-5.7645,-5.7154,-5.5666,-5.4718,-5.4228,-5.3737,-5.3501,-5.3501,-5.3501,-5.3501,-5.3501,-5.3501,-5.3501,-5.3501,-5.3501,-5.3501,-5.3501,-5.3501,-5.2841,-5.1826,-5.1099,-5.0355,-4.9644,-4.9171,-4.9001,-4.8829,-4.7868,-4.7589,-4.7273,-4.5706,-4.5248,-4.5116,-4.4441,-4.4289,-4.419,-4.3873,-4.381,-4.3693,-4.3369,-4.329,-4.3409,-4.3732,-4.3512,-4.3512,-4.4151,-4.4013,-4.4067,-4.4767,-4.5395,-4.5791,-4.5872,-4.5605,-4.5357,-4.5223,-4.5767,-4.642,-4.7177,-4.8082,-4.8748,-4.8984,-4.8401,-4.808,-4.808,-4.7155,-4.6678,-4.6678,-4.6048,-4.5431,-4.4812,-4.4472,-4.3966,-4.329,-4.329,-4.329,-3.5396,-3.6518,-3.7475,-3.7475,-3.837,-3.9332,-3.961,-4.0048,-4.052,-4.1101,-4.1576,-4.2202,-4.3206,-4.4062,-4.5089,-4.6549,-4.7648,-4.8562,-4.9289,-4.8879,-4.8567,-4.8828,-4.9005,-4.9228,0.0,0.0,0.0,-5.2955,-5.4881,-5.5987,-5.5698,-5.7103,-5.7881,-5.7881,-5.7881,-5.7763,-5.7509,-5.7509,-5.7002,-5.6004,-5.504,-5.4211,-5.3501,-5.3501,-5.3501,-5.3501,-5.3501,-5.3501,-5.3501,-5.3501,-5.3501,-5.3501,-5.3501,-5.3501,-5.3501,-5.3501,-5.3179,-5.2621,-5.186,-5.0947,-5.0016,-4.9543,-4.9001,-4.8321,-4.7373,-4.6866,-4.626,-4.4706,-4.4259,-4.4105,-4.3488,-4.329,-4.329,-4.329,-4.329,-4.329,-4.329,-4.329,-4.329,-4.329,-4.329,-4.329,-4.329,-4.329,-4.363,-4.4662,-4.5017,-4.5302,-4.5652,-4.5386,-4.514,-4.5009,-4.5533,-4.609,-4.6542,-4.777,-4.837,-4.8015,-4.777,-4.744,-4.7122,-4.6189,-4.5706,-4.5706,-4.5327,-4.4878,-4.4259,-4.4259,-4.3927,-4.329,-4.329,-4.329,-3.57,-3.6111,-3.6699,-3.6648,-3.7221,-3.7978,-3.869,-3.8881,-3.9311,-4.0785,-4.1144,-4.1644,-4.3071,0.0,-4.5089,-4.6549,-4.8037,-4.9224,-4.9919,-4.9061,-4.8552,0.0,0.0,0.0,0.0,0.0,0.0,-5.201,0.0,-5.6494,-5.5801,-5.707,-5.7831,-5.7831,-5.7797,-5.7442,-5.6748,-5.6714,-5.5987,-5.4583,-5.4549,-5.4177,-5.3501,-5.3501,-5.3501,-5.3501,-5.3501,-5.3501,-5.3501,-5.3501,-5.3501,-5.3501,-5.3501,-5.3501,-5.3501,-5.3501,-5.3501,-5.3399,-5.2638,-5.142,-5.0185,-5.0086,-4.8939,-4.7472,-4.6435,-4.5488,-4.4586,-4.3591,-4.329,-4.329,-4.329,-4.329,-4.329,-4.329,-4.329,-4.329,-4.329,-4.329,-4.329,-4.329,-4.329,-4.329,-4.329,-4.329,-4.363,-4.4586,-4.4737,-4.5079,-4.6012,-4.5358,-4.4774,-4.4737,-4.4774,-4.4812,-4.4812,-4.647,-4.7138,-4.6244,-4.6986,-4.707,-4.6173,-4.5211,-4.4737,-4.4737,-4.3771,-4.329,-4.329,-4.329,-4.329,-4.329,-4.329,-4.329,-3.4984,-3.5762,-3.657,-3.6071,-3.6878,-3.7835,-3.8035,-3.8497,-3.9011,-3.9415,-4.04,-4.1491,-4.2405,0.0,0.0,-4.6549,-4.8037,0.0,-4.8995,-4.9027,0.0,-4.8192,0.0,-4.7951,-4.8615,-5.1269,0.0,0.0,-5.5114,-5.6731,-5.6528,-5.6884,-5.707,-5.707,-5.6562,-5.619,-5.5987,-5.5446,-5.4955,-5.4583,-5.4042,-5.3687,-5.3501,-5.3501,-5.3501,-5.3501,-5.3501,-5.3501,-5.3501,-5.3501,-5.3501,-5.3501,-5.3501,-5.3501,-5.3501,-5.3501,-5.3501,-5.3467,-5.3264,-5.2553,-5.1441,-4.9626,-4.8779,-4.8027,-4.5844,-4.4983,-4.4586,-4.3591,-4.329,-4.329,-4.329,-4.329,-4.329,-4.329,-4.329,-4.329,-4.329,-4.329,-4.329,-4.329,-4.329,-4.329,-4.329,-4.329,-4.3409,-4.363,-4.3669,-4.4028,-4.5042,-4.4946,-4.451,-4.3771,-4.4373,-4.4812,-4.4812,-4.5885,-4.6454,-4.6208,-4.5778,-4.541,-4.5153,-4.4205,-4.3669,-4.3669,-4.3448,-4.329,-4.329,-4.329,-4.329,-4.329,-4.329,-4.329,-3.4868,-3.5397,-3.6045,-3.5348,-3.5992,-3.6812,-3.6841,-3.7377,-3.7906,-3.7963,-3.9439,0.0,-4.1686,-4.3058,0.0,0.0,0.0,0.0,-4.9074,-4.9479,-4.9367,0.0,-4.7907,0.0,-4.8252,-5.0871,-5.2557,0.0,-5.5165,-5.6664,-5.6342,-5.6325,-5.6325,-5.6325,-5.5936,-5.5598,-5.5362,-5.4515,-5.411,-5.411,-5.3704,-5.3501,-5.3501,-5.3501,-5.3501,-5.3501,0.0,-5.3501,-5.3501,-5.3501,-5.3501,-5.3501,-5.3501,-5.3501,-5.3501,-5.3501,-5.3501,-5.3416,-5.2956,-5.2316,-5.1395,-4.9722,-4.8195,-4.6717,-4.5241,-4.4472,-4.4028,-4.3448,-4.329,-4.329,-4.329,-4.329,-4.329,-4.329,-4.329,-4.329,-4.329,-4.329,-4.329,-4.329,-4.329,-4.329,-4.329,-4.329,-4.329,-4.329,-4.329,-4.3512,-4.4066,-4.4143,-4.3927,-4.3369,-4.381,-4.4143,-4.4143,-4.5026,-4.5416,-4.4974,-4.4871,-4.4586,-4.4143,-4.3591,-4.329,-4.329,-4.329,-4.329,-4.329,-4.329,-4.329,-4.329,-4.329,-4.329,-3.5068,-3.5095,-3.5411,-3.4678,-3.5002,-3.5518,-3.5554,-3.609,-3.6641,-3.6762,0.0,-4.043,-4.1073,-4.2579,-4.4384,-4.6447,0.0,-4.8952,-4.9411,-4.9812,-4.9702,-4.8702,-4.8349,-4.8192,-4.8282,-5.0627,-5.2245,-5.2461,-5.4854,-5.6115,-5.5715,-5.5632,-5.553,-5.5429,-5.5429,-5.5175,-5.472,-5.3924,-5.3501,-5.3501,-5.3501,-5.3501,-5.3501,-5.3501,-5.3501,-5.3501,-5.3501,-5.3501,-5.3501,-5.3501,-5.3501,-5.3501,-5.3501,-5.3501,-5.3501,-5.3501,-5.3416,-5.3144,-5.2241,-5.1254,-5.0255,-4.9613,-4.7405,-4.4883,-4.4655,-4.4004,-4.329,-4.329,-4.329,-4.329,-4.329,-4.329,-4.329,-4.329,-4.329,-4.329,-4.329,-4.329,-4.329,-4.329,-4.329,-4.329,-4.329,-4.329,-4.329,-4.329,-4.329,-4.329,-4.329,-4.329,-4.329,-4.329,-4.329,-4.329,-4.329,-4.4105,-4.422,-4.3369,-4.4105,-4.422,-4.3329,-4.329,-4.329,-4.329,-4.329,-4.329,-4.329,-4.329,-4.329,-4.329,-4.329,-4.329,-3.5062,-3.5097,-3.541,-3.4683,-3.4986,-3.5492,-3.5518,-3.6089,0.0,0.0,0.0,-4.104,-4.1172,-4.3432,-4.5635,-4.6633,0.0,0.0,0.0,0.0,-4.81,0.0,0.0,0.0,0.0,0.0,0.0,0.0,0.0,-5.4259,-5.5612,-5.5124,-5.4515,-5.3907,-5.389,-5.3839,-5.3721,-5.3585,-5.3501,-5.3501,-5.3501,-5.3501,-5.3501,-5.3501,-5.3501,-5.3501,-5.3501,0.0,-5.3501,-5.3501,-5.3501,-5.3501,-5.3501,-5.3501,-5.3501,-5.3501,-5.2956,-5.2153,-5.1957,-5.0036,-4.7556,-4.7431,-4.6637,-4.5448,-4.4016,-4.3448,-4.329,-4.329,-4.329,-4.329,-4.329,-4.329,-4.329,-4.329,-4.329,-4.329,-4.329,-4.329,-4.329,-4.329,-4.329,-4.329,-4.329,-4.329,-4.329,-4.329,-4.329,-4.329,-4.329,-4.329,-4.329,-4.329,-4.329,-4.329,-4.329,-4.3448,-4.3472,-4.329,-4.3472,-4.3472,-4.329,-4.329,-4.329,-4.329,-4.329,-4.329,-4.329,-4.329,-4.329,-4.329,-4.329,-4.329,-3.5656,-3.5655,-3.5783,-3.4165,-3.4255,-3.4489,-3.3672,0.0,0.0,0.0,0.0,-4.059,-4.059,0.0,0.0,0.0,0.0,0.0,0.0,0.0,0.0,0.0,0.0,0.0,0.0,0.0,0.0,0.0,0.0,-5.3213,-5.5039,-5.4431,-5.3873,-5.3518,-5.3501,-5.3501,-5.3501,-5.3501,-5.3501,-5.3501,-5.3501,-5.3501,-5.3501,-5.3501,-5.3501,-5.3501,-5.3501,-5.3501,-5.3501,-5.3501,-5.3501,-5.3501,-5.3501,-5.3501,-5.3501,-5.3501,-5.2818,-5.1849,-5.1303,-4.948,-4.7298,-4.6742,-4.5894,-4.4917,-4.4088,-4.3798,-4.3798,-4.3798,-4.3559,-4.329,-4.329,-4.329,-4.329,-4.329,-4.329,-4.329,-4.329,-4.329,-4.329,-4.329,-4.329,-4.329,-4.329,-4.329,-4.329,-4.329,-4.329,-4.329,-4.329,-4.329,-4.329,-4.329,-4.329,-4.329,-4.329,-4.329,-4.329,-4.329,-4.329,-4.329,-4.329,-4.329,-4.329,-4.329,-4.329,-4.329,-4.329,-4.329,-4.329,-4.329,-4.329,-4.329,-3.6356,-3.6119,-3.5902,-3.397,-3.3613,-3.3399,-3.2235,-3.3022,0.0,0.0,-3.6965,-4.0053,-4.0184,0.0,0.0,0.0,0.0,0.0,0.0,0.0,0.0,0.0,0.0,0.0,0.0,0.0,0.0,0.0,0.0,-5.2877,-5.4295,-5.3805,-5.3501,-5.3501,-5.3501,-5.3501,-5.3501,-5.3501,-5.3501,-5.3501,-5.3501,-5.3501,-5.3501,-5.3501,-5.3501,-5.3501,-5.3501,-5.3501,-5.3501,-5.3501,-5.3501,-5.3501,-5.3501,-5.3501,-5.3501,-5.3501,-5.2679,-5.1467,-5.0665,-4.9135,-4.7364,-4.6545,-4.5514,-4.4526,-4.4526,-4.4526,-4.4496,-4.4347,-4.3902,-4.3469,-4.3334,-4.329,-4.329,-4.329,-4.329,-4.329,-4.329,-4.329,-4.329,-4.329,-4.329,-4.329,-4.329,-4.329,-4.329,-4.329,-4.329,-4.329,-4.329,-4.329,-4.329,-4.329,-4.329,-4.329,-4.329,-4.329,-4.329,-4.329,-4.329,-4.329,-4.329,-4.329,-4.329,-4.329,-4.329,-4.329,-4.329,-4.329,-4.329,-4.329,-4.329,-4.329,-3.6961,-3.5991,-3.5247,-3.483,-3.3706,-3.2838,-3.3156,0.0,0.0,-3.4724,-3.7594,-4.0184,-4.0796,-4.2278,-4.3627,0.0,0.0,0.0,0.0,0.0,0.0,0.0,0.0,0.0,0.0,0.0,0.0,0.0,0.0,-5.3416,-5.3602,-5.3551,-5.3501,-5.3501,-5.3501,-5.3501,-5.3501,-5.3501,-5.3501,-5.3501,-5.3501,-5.3501,-5.3501,-5.3501,-5.3501,-5.3501,-5.3501,-5.3501,0.0,-5.3501,-5.3501,-5.3501,-5.3501,-5.3501,-5.3501,-5.3501,-5.2258,-5.0512,-5.0435,-4.8673,-4.6434,-4.6322,-4.5813,-4.5214,-4.5214,-4.5214,-4.508,-4.4481,-4.4272,-4.4092,-4.3454,-4.329,-4.329,-4.329,-4.329,-4.329,-4.329,-4.329,-4.329,-4.329,-4.329,-4.329,-4.329,-4.329,-4.329,-4.329,-4.329,-4.329,-4.329,-4.329,-4.329,-4.329,-4.329,-4.329,-4.329,-4.329,-4.329,-4.329,-4.329,-4.329,-4.329,-4.329,-4.329,-4.329,-4.329,-4.329,-4.329,-4.329,-4.329,-4.329,-4.329,-4.329,-3.7598,-3.6549,-3.5427,-3.4285,-3.3344,-3.2644,-3.228,0.0,-3.4301,-3.459,-3.7807,-4.0512,-4.0259,-4.1911,-4.2834,0.0,-4.1111,-4.0995,0.0,0.0,0.0,0.0,0.0,0.0,0.0,0.0,0.0,0.0,0.0,-5.2835,-5.3467,-5.3501,-5.3501,-5.3501,-5.3501,-5.3501,-5.3501,-5.3501,-5.3501,-5.3501,-5.3501,-5.3501,-5.3501,-5.3501,-5.3501,-5.3501,-5.3501,-5.3501,0.0,-5.3501,-5.311,-5.2592,-5.323,-5.311,-5.2557,-5.2557,-5.1631,-5.0336,-4.9655,-4.8317,-4.692,-4.692,-4.6726,-4.6426,-4.6037,-4.5918,-4.5858,-4.5603,-4.4945,-4.4257,-4.3947,-4.3589,-4.329,-4.329,-4.329,-4.329,-4.329,-4.329,-4.329,-4.329,-4.329,-4.329,-4.329,-4.329,-4.329,-4.329,-4.329,-4.329,-4.329,-4.329,-4.329,-4.329,-4.329,-4.329,-4.329,-4.329,-4.329,-4.329,-4.329,-4.329,-4.329,-4.329,-4.329,-4.329,-4.329,-4.329,-4.329,-4.329,-4.329,-4.329,-4.329,-4.329,-3.7822,-3.6374,-3.4712,-3.3278,-3.2084,-3.1257,0.0,0.0,-3.3644,-3.4524,-3.7828,-4.0435,-4.0049,-4.1358,-4.1709,0.0,-3.9247,-3.9122,-3.8526,0.0,0.0,0.0,0.0,0.0,0.0,0.0,0.0,0.0,0.0,0.0,-5.3433,-5.3501,-5.3501,-5.3501,-5.3501,-5.3501,-5.3501,-5.3501,-5.3501,-5.3501,-5.3501,-5.3501,-5.3501,-5.3501,-5.3501,-5.3501,-5.3501,-5.3501,0.0,-5.3501,-5.287,-5.1957,-5.2714,-5.24,-5.1467,-5.1467,-5.0817,-4.9813,-4.9054,-4.8141,-4.7309,-4.7309,-4.7309,-4.7219,-4.6756,-4.6621,-4.6488,-4.6142,-4.5065,-4.4018,-4.4018,-4.3633,-4.329,-4.329,-4.329,-4.329,-4.329,-4.329,-4.329,-4.329,-4.329,-4.329,-4.329,-4.329,-4.329,-4.329,-4.329,-4.329,-4.329,-4.329,-4.329,-4.329,-4.329,-4.329,-4.329,-4.329,-4.329,-4.329,-4.329,-4.329,-4.329,-4.329,-4.329,-4.329,-4.329,-4.329,-4.329,-4.329,-4.329,-4.329,-4.329,-4.329,-3.7513,-3.5083,-3.2678,-3.2006,-2.9756,-2.8215,0.0,-3.0711,-3.1862,-3.479,-3.755,-3.9685,-4.052,-4.0569,-4.0139,-3.9223,-3.8474,-3.7795,-3.7202,0.0,0.0,0.0,0.0,0.0,0.0,0.0,0.0,0.0,0.0,0.0,-5.3433,-5.3501,-5.3501,-5.3501,-5.3501,-5.3501,-5.3501,-5.3501,-5.3501,-5.3501,-5.3501,-5.3501,-5.3501,-5.3501,-5.3501,-5.3501,-5.3501,-5.3501,0.0,-5.3501,-5.287,-5.1921,-5.1921,-5.1303,-5.0413,-5.0413,-4.9734,-4.8825,-4.8784,-4.8141,-4.7309,-4.7309,-4.7309,-4.7309,-4.7294,-4.7294,-4.701,-4.5678,-4.4362,-4.3305,-4.3305,-4.3305,-4.329,-4.329,-4.329,-4.329,-4.329,-4.329,-4.329,-4.329,-4.329,-4.329,-4.329,-4.329,-4.329,-4.329,-4.329,-4.329,-4.329,-4.329,-4.329,-4.329,-4.329,-4.329,-4.329,-4.329,-4.329,-4.329,-4.329,-4.329,-4.329,-4.329,-4.329,-4.329,-4.329,-4.329,-4.329,-4.329,-4.329,-4.329,-4.329,-4.329,-3.6101,-3.422,-3.2343,-3.1473,-3.0052,-2.924,-3.0617,-3.2174,-3.3816,-3.5578,-3.8251,-3.9975,-3.8926,-3.9155,-3.9009,-3.7422,-3.7306,0.0,0.0,0.0,0.0,0.0,0.0,0.0,0.0,0.0,0.0,0.0,0.0,0.0,-5.3433,-5.3501,-5.3501,-5.3501,-5.3501,-5.3501,-5.3501,-5.3501,-5.3501,-5.3501,-5.3501,-5.3501,-5.3501,-5.3501,-5.3501,-5.3501,-5.3501,-5.3501,-5.3501,-5.3501,-5.287,-5.1921,-5.1921,-5.1283,-5.032,-4.9575,-4.9094,-4.8702,-4.803,-4.7581,-4.7309,-4.7309,-4.7309,-4.7219,-4.677,-4.6636,-4.6352,-4.5005,-4.4332,-4.3898,-4.3409,-4.329,-4.329,-4.329,-4.329,-4.329,-4.329,-4.329,-4.329,-4.329,-4.329,-4.329,-4.329,-4.329,-4.329,-4.329,-4.329,-4.329,-4.329,-4.329,-4.329,-4.329,-4.329,-4.329,-4.329,-4.329,-4.329,-4.329,-4.329,-4.329,-4.329,-4.329,-4.329,-4.329,-4.329,-4.329,-4.329,-4.329,-4.329,-4.329,-4.329,-4.329,0.0,-3.3275,-3.1063,-3.0519,-2.9206,-2.8448,-3.0124,-3.1532,-3.3208,-3.568,-3.7641,-3.8656,-3.7951,-3.7858,-3.7495,-3.6204,-3.6507,0.0,0.0,0.0,0.0,0.0,0.0,0.0,0.0,0.0,0.0,0.0,0.0,0.0,-5.28,-5.3264,-5.3501,-5.3501,-5.3501,-5.3501,-5.3501,-5.3501,-5.3501,-5.3501,-5.3501,-5.3501,-5.3501,-5.3501,-5.3501,-5.3501,-5.3501,-5.3501,0.0,-5.3501,-5.287,-5.1849,-5.1504,-5.0687,-4.9655,-4.861,-4.821,-4.8141,-4.7538,-4.7309,-4.7309,-4.7309,-4.713,-4.677,-4.5843,-4.5574,-4.5394,-4.4541,-4.4137,-4.3813,-4.3409,-4.329,-4.329,-4.329,-4.329,-4.329,-4.329,-4.329,-4.329,-4.329,-4.329,-4.329,-4.329,-4.329,-4.329,-4.329,-4.329,-4.329,-4.329,-4.3514,-4.3559,-4.3319,-4.3514,-4.3559,-4.3319,-4.329,-4.329,-4.329,-4.329,-4.329,-4.329,-4.329,-4.329,-4.329,-4.329,-4.329,-4.329,-4.329,-4.329,-4.329,-4.329,-4.329,0.0,-3.2398,-2.9402,-2.9455,-2.7688,-2.661,-2.8993,-2.9579,0.0,-3.5305,-3.6034,-3.632,-3.7539,-3.6718,-3.5843,-3.5701,0.0,0.0,0.0,0.0,0.0,0.0,0.0,0.0,0.0,0.0,0.0,0.0,0.0,0.0,-5.1849,-5.2904,-5.3501,-5.3501,-5.345,-5.3416,-5.3416,-5.3467,-5.3467,-5.3416,-5.3467,-5.3501,-5.3501,-5.3501,-5.3501,0.0,-5.3501,-5.3501,-5.3501,-5.3501,-5.2904,-5.1921,-5.0817,-4.9773,-4.8784,-4.7694,-4.7309,-4.7309,-4.7309,-4.7309,-4.7294,-4.7249,-4.6756,-4.5948,-4.4691,-4.4317,-4.4302,-4.4257,-4.3768,-4.329,-4.329,-4.329,-4.329,-4.329,-4.329,-4.329,-4.329,-4.329,-4.329,-4.329,-4.329,-4.329,-4.329,-4.329,-4.329,-4.329,-4.329,-4.3305,-4.3364,-4.3888,-4.4092,-4.3484,-4.3947,-4.4062,-4.3409,-4.3319,-4.329,-4.329,-4.329,-4.329,-4.329,-4.329,-4.329,-4.329,-4.329,-4.329,-4.329,-4.329,-4.329,-4.329,-4.329,-4.329,-3.3924,0.0,-3.1027,-3.0359,-2.9353,-2.8901,0.0,-3.1404,-3.2805,0.0,0.0,-3.6348,-3.7127,-3.6334,-3.6,-3.7263,0.0,0.0,0.0,0.0,0.0,0.0,0.0,0.0,0.0,0.0,0.0,0.0,0.0,-5.0817,-5.1849,-5.2904,-5.3501,-5.3501,-5.2909,-5.2587,-5.2587,-5.3196,-5.3196,-5.2587,-5.3213,-5.3501,-5.3501,-5.3501,-5.3501,-5.3501,-5.3501,-5.3501,-5.3501,-5.3501,-5.3348,-5.2956,-5.1096,-5.0242,-4.9813,-4.7961,-4.7309,-4.7309,-4.7309,-4.7309,-4.7219,-4.6711,-4.5753,-4.4721,-4.4407,-4.4317,-4.4212,-4.3663,-4.3409,-4.329,-4.329,-4.329,-4.329,-4.329,-4.329,-4.329,-4.329,-4.329,-4.329,-4.329,-4.329,-4.329,-4.329,-4.329,-4.329,-4.329,-4.329,-4.3484,-4.4018,-4.4212,-4.4451,-4.4796,-4.4526,-4.4257,-4.4092,-4.3589,-4.329,-4.329,-4.329,-4.329,-4.329,-4.329,-4.329,-4.329,-4.329,-4.329,-4.329,-4.329,-4.329,-4.329,-4.329,-4.329,-3.319,-3.2503,-3.149,-3.1224,-3.0466,-3.0113,-3.1321,0.0,0.0,0.0,0.0,0.0,-3.7601,-3.6988,0.0,0.0,0.0,0.0,0.0,0.0,0.0,0.0,0.0,0.0,0.0,0.0,0.0,0.0,0.0,-4.9915,-5.0442,-5.1467,-5.1949,-5.1638,-5.1208,-5.1408,-5.23,-5.2401,-5.2249,-5.1809,-5.2587,-5.2959,-5.2959,-5.2959,-5.2959,-5.2959,-5.2959,-5.2959,-5.2993,-5.3348,-5.3501,-5.3298,-5.1208,-5.0397,-5.0142,-4.8088,-4.7309,-4.7309,-4.7309,-4.7115,-4.6696,-4.5723,-4.49,-4.4257,-4.3917,-4.3828,-4.3753,-4.3394,-4.329,-4.329,-4.329,-4.329,-4.329,-4.329,-4.329,-4.329,-4.329,-4.329,-4.329,-4.329,-4.329,-4.329,-4.329,-4.329,-4.329,-4.329,-4.329,-4.3529,-4.4227,-4.4571,-4.49,-4.5259,-4.5259,-4.499,-4.4362,-4.3988,-4.3618,-4.3319,-4.329,-4.329,-4.329,-4.329,-4.329,-4.329,-4.329,-4.329,-4.329,-4.329,-4.329,-4.329,-4.329,-4.3454,-3.2854,-3.2467,-3.1812,-3.2169,-3.1354,-3.0731,-3.1742,0.0,0.0,0.0,0.0,0.0,0.0,0.0,0.0,0.0,0.0,0.0,0.0,0.0,0.0,0.0,0.0,0.0,0.0,0.0,0.0,0.0,0.0,-4.8784,-4.8784,-4.9702,-4.9987,-4.9416,-4.9176,-4.9886,-5.1514,-5.1027,-5.0791,-5.0837,-5.1562,-5.1982,-5.2131,-5.2131,-5.2131,-5.2147,0.0,0.0,-5.2367,-5.3179,-5.3501,-5.3314,-5.1373,-5.055,-5.0181,-4.824,-4.7349,-4.713,-4.704,-4.6576,-4.5828,-4.4691,-4.4242,-4.4062,-4.3469,-4.329,-4.329,-4.329,-4.329,-4.329,-4.329,-4.329,-4.329,-4.329,-4.329,-4.329,-4.329,-4.329,-4.329,-4.329,-4.329,-4.329,-4.329,-4.329,-4.329,-4.329,-4.329,-4.3559,-4.4362,-4.4945,-4.5379,-4.5574,-4.6037,-4.5816,-4.4721,-4.4436,-4.4077,-4.3484,-4.3349,-4.329,-4.329,-4.329,-4.329,-4.329,-4.329,-4.329,-4.329,-4.329,-4.329,-4.329,-4.329,-4.3589,-3.3314,-3.3977,-3.3981,-3.3134,-3.235,-3.1731,0.0,0.0,0.0,0.0,0.0,0.0,0.0,0.0,0.0,0.0,0.0,0.0,0.0,0.0,0.0,0.0,0.0,0.0,0.0,0.0,0.0,0.0,0.0,-4.8784,-4.8784,-4.9267,-4.9512,-4.9384,-4.8247,-4.7782,-4.8052,-4.8573,-4.8931,-4.9076,-4.9822,-5.061,-5.1386,-5.1386,-5.1386,-5.142,0.0,-5.23,-5.2367,-5.3179,-5.3501,-5.3382,-5.2153,-5.1155,-5.0242,-4.9029,-4.7665,-4.6396,-4.5798,-4.517,-4.4586,-4.4392,-4.3943,-4.3424,-4.3319,-4.329,-4.329,-4.329,-4.329,-4.329,-4.329,-4.329,-4.329,-4.329,-4.329,-4.329,-4.329,-4.329,-4.329,-4.329,-4.329,-4.329,-4.329,-4.329,-4.329,-4.329,-4.329,-4.3738,-4.499,-4.5229,-4.5723,-4.6875,-4.6591,-4.6204,-4.5995,-4.496,-4.4272,-4.4167,-4.3604,-4.329,-4.329,-4.329,-4.329,-4.329,-4.329,-4.329,-4.329,-4.329,-4.329,-4.329,-4.329,-4.3349,-3.3214,-3.4259,-3.4734,-3.3179,-3.2805,-3.2605,0.0,0.0,0.0,0.0,0.0,0.0,0.0,0.0,0.0,0.0,0.0,0.0,0.0,0.0,0.0,0.0,0.0,0.0,0.0,0.0,0.0,0.0,0.0,0.0,-4.7471,-4.7615,-4.7398,-4.6694,-4.6036,-4.5487,-4.5117,-4.6016,-4.6989,-4.81,-4.8858,-4.9709,-5.0608,-5.0608,-5.0608,-5.0625,0.0,-5.1336,-5.1775,-5.2536,-5.3112,-5.3382,-5.2312,-5.1614,-5.0957,-4.8992,-4.745,-4.613,-4.5125,-4.4571,-4.4257,-4.3898,-4.3544,-4.329,-4.329,-4.329,-4.329,-4.329,-4.329,-4.329,-4.329,-4.329,-4.329,-4.329,-4.329,-4.329,-4.329,-4.329,-4.329,-4.329,-4.329,-4.329,-4.329,-4.329,-4.329,-4.329,-4.3604,-4.4212,-4.517,-4.5618,-4.6232,-4.7204,-4.704,-4.6711,-4.6309,-4.5409,-4.4541,-4.3823,-4.3469,-4.329,-4.329,-4.329,-4.329,-4.329,-4.329,-4.329,-4.329,-4.329,-4.329,-4.329,-4.329,-4.3484,-3.3181,-3.4384,-3.4956,-3.2706,0.0,-3.247,0.0,0.0,0.0,0.0,0.0,0.0,0.0,0.0,0.0,0.0,0.0,0.0,0.0,0.0,0.0,0.0,0.0,0.0,0.0,0.0,0.0,0.0,0.0,0.0,-4.6309,-4.598,-4.5379,-4.4347,-4.4167,-4.3798,-4.3305,-4.4297,-4.5649,-4.7273,-4.8048,-4.8928,-4.983,-4.983,-4.983,-4.9847,-5.0016,-5.0524,-5.1268,-5.1995,-5.2773,-5.3433,-5.2592,-5.1894,-5.0998,-4.8513,-4.6839,-4.5636,-4.4496,-4.4092,-4.4003,-4.3454,-4.329,-4.329,-4.329,-4.329,-4.329,-4.329,-4.329,-4.329,-4.329,-4.329,-4.329,-4.329,-4.329,-4.325,-4.2941,-4.29,-4.29,-4.29,-4.29,-4.2981,-4.325,-4.329,-4.329,-4.329,-4.3723,-4.4377,-4.5185,-4.5753,-4.6396,-4.7219,-4.7309,-4.698,-4.6157,-4.5454,-4.4571,-4.3364,-4.329,-4.329,-4.329,-4.329,-4.329,-4.329,-4.329,-4.329,-4.329,-4.329,-4.329,-4.329,-4.329,-4.3559,-3.3646,-3.4637,-3.477,-3.1773,0.0,0.0,0.0,0.0,0.0,0.0,0.0,0.0,0.0,0.0,0.0,0.0,0.0,0.0,0.0,0.0,0.0,0.0,0.0,0.0,0.0,0.0,0.0,0.0,0.0,0.0,-4.6279,-4.514,-4.4407,-4.4317,-4.3678,-4.3349,-4.329,-4.4297,-4.5322,-4.6314,-4.7254,-4.8163,-4.9086,-4.9086,-4.9086,-4.912,-4.9796,-5.0524,-5.1268,-5.1995,-5.2773,-5.3501,-5.3416,-5.1827,-4.9384,-4.7613,-4.5886,-4.4362,-4.3604,-4.3364,-4.3349,-4.3305,-4.329,-4.329,-4.329,-4.329,-4.329,-4.329,-4.329,-4.329,-4.329,-4.329,-4.329,-4.329,-4.329,-4.3036,-4.1932,-4.1726,-4.1726,-4.1726,-4.1726,-4.207,-4.3115,-4.329,-4.329,-4.329,-4.3334,-4.3828,-4.5125,-4.5334,-4.5858,-4.716,-4.7309,-4.6785,-4.5484,-4.4766,-4.4092,-4.3349,-4.329,-4.329,-4.329,-4.329,-4.329,-4.329,-4.329,-4.329,-4.329,-4.329,-4.329,-4.329,-4.329,-4.3319,-3.5247,-3.5883,-3.5925,-3.3469,0.0,0.0,0.0,0.0,0.0,0.0,0.0,0.0,0.0,0.0,0.0,0.0,0.0,0.0,0.0,0.0,0.0,0.0,0.0,0.0,0.0,0.0,0.0,0.0,0.0,0.0,-4.5095,-4.4586,-4.4122,-4.3678,-4.3424,-4.329,-4.329,-4.4878,-4.5834,-4.6208,-4.7155,-4.808,-4.9001,-4.9001,-4.9001,-4.9018,-4.9289,-4.983,-5.0541,-5.0811,-5.1657,-5.2756,-5.2756,-5.1363,-4.9219,-4.7728,-4.5928,-4.4212,-4.3529,-4.329,-4.329,-4.329,-4.329,-4.329,-4.329,-4.329,-4.329,-4.329,-4.329,-4.329,-4.329,-4.329,-4.329,-4.329,-4.2765,-4.2111,-4.1684,-4.1042,-4.0532,-4.0532,-4.144,-4.2346,-4.2792,-4.3793,-4.4407,-4.3962,-4.4287,-4.4736,-4.5229,-4.5663,-4.6292,-4.7204,-4.6935,-4.6322,-4.5379,-4.4691,-4.3992,-4.3334,-4.329,-4.329,-4.329,-4.329,-4.329,-4.329,-4.329,-4.329,-4.329,-4.329,-4.329,-4.329,-4.329,-4.329,-3.6541,-3.7059,-3.7248,0.0,0.0,0.0,0.0,0.0,0.0,0.0,0.0,0.0,0.0,0.0,0.0,0.0,0.0,0.0,0.0,0.0,0.0,0.0,0.0,0.0,0.0,0.0,0.0,0.0,0.0,0.0,0.0,-4.4122,-4.3753,-4.3305,-4.329,-4.3448,-4.3771,-4.54,-4.6349,-4.6662,-4.7589,-4.837,-4.9001,-4.9001,-4.9001,-4.9001,-4.9001,-4.9424,-5.0084,-5.0084,-5.0828,-5.1961,-5.1961,-5.0634,-4.8615,-4.767,-4.5899,-4.3943,-4.3454,-4.329,-4.329,-4.329,-4.329,-4.329,-4.329,-4.329,-4.329,-4.329,-4.329,-4.329,-4.329,-4.329,-4.321,-4.286,-4.2152,-4.142,-4.0632,-3.9871,-3.9316,-3.9316,-4.0793,-4.2124,-4.2523,-4.3929,-4.4825,-4.4392,-4.4526,-4.4751,-4.496,-4.5574,-4.6262,-4.692,-4.6217,-4.5499,-4.502,-4.4392,-4.3898,-4.3618,-4.3604,-4.3604,-4.3604,-4.3604,-4.3708,-4.3943,-4.3917,-4.3917,-4.3917,-4.3917,-4.3917,-4.3917,-4.3917,-4.3838,-3.7232,-3.8006,0.0,0.0,0.0,0.0,0.0,0.0,0.0,0.0,0.0,0.0,0.0,0.0,0.0,0.0,0.0,0.0,0.0,0.0,0.0,0.0,0.0,0.0,0.0,0.0,0.0,0.0,0.0,0.0,0.0,-4.3648,-4.329,-4.329,-4.329,-4.3771,-4.4774,-4.5726,-4.6678,-4.7622,-4.8545,-4.9001,-4.9001,-4.9001,-4.9001,-4.9001,-4.9001,-4.9407,-5.0084,-5.0084,-5.0524,-5.12,-5.12,-4.9591,-4.7317,-4.7317,-4.5588,-4.3329,-4.329,-4.329,-4.329,-4.329,-4.329,-4.329,-4.329,-4.329,-4.329,-4.329,-4.329,-4.329,-4.329,-4.329,-4.2981,-4.185,-4.1587,-4.0944,-3.859,-3.8107,-3.8062,-3.8062,-3.9541,-4.1197,-4.241,-4.3561,-4.4332,-4.4332,-4.3723,-4.3544,-4.4227,-4.4885,-4.5559,-4.6204,-4.5125,-4.4317,-4.4332,-4.3678,-4.3589,-4.4287,-4.4332,-4.4332,-4.4332,-4.4332,-4.4631,-4.5289,-4.5289,-4.5289,-4.5289,-4.5289,-4.5289,-4.5289,-4.5289,-4.4945,-3.8475,-3.9035,0.0,0.0,0.0,0.0,0.0,0.0,0.0,0.0,0.0,0.0,0.0,0.0,0.0,0.0,0.0,0.0,0.0,0.0,0.0,0.0,0.0,0.0,0.0,0.0,0.0,0.0,0.0,0.0,0.0,-4.3409,-4.329,-4.329,-4.329,-4.3771,-4.4774,-4.5726,-4.6678,-4.7622,-4.8545,-4.9001,-4.9001,-4.9001,-4.9001,-4.9001,-4.9001,-4.912,-4.9373,-4.9881,-5.0219,-5.0422,-5.0422,-4.9542,-4.815,-4.6969,-4.5589,-4.4259,-4.3551,-4.329,-4.329,-4.329,-4.329,-4.329,-4.329,-4.329,-4.329,-4.329,-4.329,-4.329,-4.329,-4.2725,-4.2029,-4.167,-4.1,-3.9972,-3.8424,-3.7461,-3.6883,-3.6883,-3.9013,-4.1057,-4.1889,-4.3686,-4.5005,-4.5005,-4.4451,-4.4092,-4.4287,-4.4885,-4.5379,-4.5589,-4.4825,-4.4496,-4.496,-4.4407,-4.4302,-4.496,-4.5005,-4.5005,-4.5005,-4.5005,-4.5095,-4.5289,-4.5289,-4.5289,-4.5289,-4.5289,-4.5289,-4.5289,-4.5289,-4.5185,-4.0127,0.0,0.0,0.0,0.0,0.0,0.0,0.0,0.0,0.0,0.0,0.0,0.0,0.0,0.0,0.0,0.0,0.0,0.0,0.0,0.0,0.0,0.0,0.0,0.0,0.0,0.0,0.0,0.0,0.0,0.0,-4.329,-4.329,-4.329,-4.329,-4.395,-4.5358,-4.5905,-4.685,-4.8161,-4.8719,-4.9001,-4.9001,-4.9001,-4.9001,-4.9001,-4.9001,-4.9001,-4.9035,-4.9475,-4.9661,-4.9661,-4.9661,-4.9103,-4.8098,-4.6719,-4.5597,-4.4662,-4.3669,-4.329,-4.329,-4.329,-4.329,-4.329,-4.329,-4.329,-4.329,-4.329,-4.329,-4.329,-4.329,-4.2467,-4.1504,-4.1042,-4.0045,-3.8872,-3.7678,-3.6883,-3.6534,-3.6977,-3.9104,-4.1088,-4.1952,-4.3684,-4.49,-4.49,-4.4347,-4.4018,-4.4287,-4.4436,-4.4616,-4.487,-4.4541,-4.4466,-4.487,-4.4781,-4.499,-4.5663,-4.5708,-4.5828,-4.6082,-4.5843,-4.5828,-4.6082,-4.6097,-4.6097,-4.6097,-4.6097,-4.6097,-4.6097,-4.6097,-4.5948,0.0,0.0,0.0,0.0,0.0,0.0,0.0,0.0,0.0,0.0,0.0,0.0,0.0,0.0,0.0,0.0,0.0,0.0,0.0,0.0,0.0,0.0,0.0,0.0,0.0,0.0,0.0,0.0,0.0,0.0,-4.329,-4.329,-4.329,-4.329,-4.3409,-4.4343,-4.6173,-4.6279,-4.7239,-4.9001,-4.9001,-4.9001,-4.9001,-4.9001,-4.9001,-4.9001,-4.9001,-4.9001,-4.9001,-4.9001,-4.9001,-4.9001,-4.9001,-4.8465,-4.7589,-4.6574,-4.567,-4.4759,-4.3669,-4.329,-4.329,-4.329,-4.329,-4.329,-4.329,-4.329,-4.329,-4.329,-4.329,-4.329,-4.329,-4.2386,-4.1169,-4.0159,-3.8961,-3.7802,-3.6675,-3.6405,-3.6756,-3.7893,-3.95,-4.1128,-4.2381,-4.3502,-4.4227,-4.4227,-4.3678,-4.3514,-4.4152,-4.3663,-4.3529,-4.4127,-4.4272,-4.4332,-4.4407,-4.4945,-4.5589,-4.6234,-4.6219,-4.6531,-4.7189,-4.6696,-4.6696,-4.7294,-4.7309,-4.7309,-4.7309,-4.7309,-4.7309,-4.7309,-4.7309,-4.698,0.0,0.0,0.0,0.0,0.0,0.0,0.0,0.0,0.0,0.0,0.0,0.0,0.0,0.0,0.0,0.0,0.0,0.0,0.0,0.0,0.0,0.0,0.0,0.0,0.0,0.0,0.0,0.0,0.0,0.0,-4.329,-4.329,-4.329,-4.329,-4.4082,-4.5042,-4.6173,-4.6918,-4.7868,-4.9001,-4.9001,-4.9001,-4.9001,-4.9001,-4.9001,-4.9001,-4.9001,-4.9001,-4.9001,-4.9001,-4.9001,-4.9001,-4.9001,-4.8861,-4.8513,-4.6815,-4.6067,-4.5654,-4.3897,-4.329,-4.329,-4.329,-4.329,-4.329,-4.329,-4.329,-4.329,-4.329,-4.329,-4.329,-4.329,-4.1782,-4.0189,-3.9942,-3.8961,-3.7802,-3.6675,-3.6405,-3.6756,-3.7893,-3.9189,-4.0623,-4.2323,-4.3093,-4.3499,-4.3499,-4.3379,-4.3349,-4.3484,-4.3379,-4.3349,-4.3484,-4.4003,-4.4526,-4.5035,-4.5214,-4.5589,-4.6234,-4.5813,-4.5828,-4.6516,-4.689,-4.716,-4.7309,-4.7309,-4.7309,-4.7309,-4.7309,-4.7309,-4.7309,-4.7309,-4.7234,0.0,0.0,0.0,0.0,0.0,0.0,0.0,0.0,0.0,0.0,0.0,0.0,0.0,0.0,0.0,0.0,0.0,0.0,0.0,0.0,0.0,0.0,0.0,0.0,0.0,0.0,0.0,0.0,0.0,-4.329,-4.329,-4.329,-4.329,-4.329,-4.3937,-4.4726,-4.5658,-4.624,-4.72,-4.8477,-4.8477,-4.8413,-4.8338,-4.8338,-4.808,-4.7688,-4.8112,-4.8338,-4.837,-4.8813,-4.8719,-4.8338,-4.8338,-4.8047,-4.7489,-4.6048,-4.5525,-4.5322,-4.3834,-4.329,-4.329,-4.329,-4.329,-4.329,-4.329,-4.329,-4.329,-4.329,-4.329,-4.329,-4.329,-4.1988,-4.0575,-4.0029,-3.8572,-3.7103,-3.6534,-3.6849,-3.7553,-3.8738,-3.9915,-4.1184,-4.2687,-4.3123,-4.329,-4.329,-4.329,-4.329,-4.329,-4.329,-4.3409,-4.3723,-4.4107,-4.4586,-4.5229,-4.5289,-4.5589,-4.6234,-4.5978,-4.6097,-4.677,-4.7115,-4.7309,-4.7309,-4.7309,-4.7309,-4.7309,-4.7309,-4.7309,-4.7309,-4.7309,-4.7309,0.0,0.0,0.0,0.0,0.0,0.0,0.0,0.0,0.0,0.0,0.0,0.0,0.0,0.0,0.0,0.0,0.0,0.0,0.0,0.0,0.0,0.0,0.0,0.0,0.0,0.0,0.0,0.0,0.0,-4.329,-4.329,-4.329,-4.329,-4.329,-4.3736,-4.4322,-4.508,-4.5456,-4.6357,-4.7733,-4.7683,-4.7445,-4.7023,-4.6887,-4.6595,-4.6244,-4.702,-4.734,-4.744,-4.837,-4.8193,-4.7373,-4.7556,-4.702,-4.6083,-4.5153,-4.4812,-4.4662,-4.3669,-4.329,-4.329,-4.329,-4.329,-4.329,-4.329,-4.329,-4.329,-4.329,-4.329,-4.329,-4.329,-4.2467,-4.1378,-4.0404,-3.8572,-3.6943,-3.6756,-3.7415,-3.8514,-3.9929,-4.1127,-4.2193,-4.3155,-4.329,-4.329,-4.329,-4.329,-4.329,-4.329,-4.329,-4.3499,-4.4092,-4.4242,-4.4526,-4.508,-4.5229,-4.5544,-4.6112,-4.6142,-4.6441,-4.7115,-4.713,-4.7189,-4.7309,-4.7309,-4.7309,-4.7309,-4.7309,-4.7309,-4.7309,-4.7309,-4.7309,0.0,0.0,0.0,0.0,0.0,0.0,0.0,0.0,0.0,0.0,0.0,0.0,0.0,0.0,0.0,0.0,0.0,0.0,0.0,0.0,0.0,0.0,0.0,0.0,0.0,0.0,0.0,0.0,-4.329,-4.329,-4.329,-4.329,-4.329,-4.329,-4.4356,-4.4976,-4.508,-4.6111,-4.6748,-4.6938,-4.6779,-4.6021,-4.4809,-4.3975,-4.458,-4.6208,-4.6314,-4.6384,-4.6454,-4.7406,-4.7223,-4.6454,-4.7273,-4.702,-4.6083,-4.5153,-4.4812,-4.4662,-4.3669,-4.329,-4.329,-4.329,-4.329,-4.329,-4.329,-4.329,-4.329,-4.329,-4.329,-4.329,-4.329,-4.2467,-4.1545,-4.142,-4.039,-3.9139,-3.8121,-3.7984,-3.8769,-4.0944,-4.229,-4.3115,-4.325,-4.329,-4.329,-4.329,-4.329,-4.329,-4.329,-4.329,-4.3319,-4.3409,-4.3932,-4.4347,-4.4436,-4.4975,-4.5334,-4.5424,-4.5424,-4.5738,-4.6426,-4.6414,-4.6726,-4.7294,-4.7309,-4.7309,-4.7309,-4.7309,-4.7309,-4.7309,-4.7309,-4.7309,0.0,0.0,0.0,0.0,0.0,0.0,0.0,0.0,0.0,0.0,0.0,0.0,0.0,0.0,0.0,0.0,0.0,0.0,0.0,0.0,0.0,0.0,0.0,0.0,0.0,0.0,0.0,0.0,-4.329,-4.329,-4.329,-4.329,-4.3125,-4.2806,-4.3888,-4.4074,-4.3211,-4.4762,-4.5517,-4.544,-4.4642,-4.3831,-4.3016,-4.1474,-4.1803,-4.3652,-4.4181,-4.4791,-4.5504,-4.6435,-4.626,-4.5468,-4.5885,-4.5452,-4.454,-4.409,-4.3966,-4.3888,-4.3448,-4.329,-4.329,-4.329,-4.329,-4.329,-4.329,-4.329,-4.329,-4.329,-4.329,-4.329,-4.329,-4.2941,-4.2371,-4.1767,-4.0746,-3.9768,-3.9227,-3.961,-4.0547,-4.2249,-4.2941,-4.329,-4.329,-4.329,-4.329,-4.329,-4.329,-4.329,-4.329,-4.329,-4.3439,-4.3798,-4.4137,-4.4466,-4.4825,-4.5125,-4.5454,-4.5843,-4.5873,-4.6172,-4.6845,-4.6875,-4.701,-4.7294,-4.7309,-4.7309,-4.7309,-4.7309,-4.7309,-4.7309,-4.7309,-4.7309,0.0,0.0,0.0,0.0,0.0,0.0,0.0,0.0,0.0,0.0,0.0,0.0,0.0,0.0,0.0,0.0,0.0,0.0,0.0,0.0,0.0,0.0,0.0,0.0,0.0,0.0,0.0,0.0,-4.329,-4.329,-4.329,-4.329,-4.303,-4.2425,-4.3236,-4.3025,-4.1724,-4.3206,-4.3969,-4.4064,-4.2598,-4.1717,-4.1281,-3.9269,-3.9311,-4.101,-4.2137,-4.3144,-4.4082,-4.5327,-4.5269,-4.4434,-4.4699,-4.4182,-4.329,-4.329,-4.329,-4.329,-4.329,-4.329,-4.329,-4.329,-4.329,-4.329,-4.329,-4.329,-4.329,-4.329,-4.329,-4.329,-4.329,-4.329,-4.3036,-4.185,-4.0958,-4.0232,-3.9942,-4.0788,-4.1932,-4.3076,-4.329,-4.329,-4.329,-4.329,-4.329,-4.329,-4.329,-4.329,-4.329,-4.329,-4.3484,-4.4003,-4.4212,-4.4511,-4.5005,-4.5364,-4.5783,-4.6249,-4.6444,-4.68,-4.7279,-4.7309,-4.7309,-4.7309,-4.7309,-4.7309,-4.7309,-4.7309,-4.7309,-4.7309,-4.7309,-4.7309,0.0,0.0,0.0,0.0,0.0,0.0,0.0,0.0,0.0,0.0,0.0,0.0,0.0,0.0,0.0,0.0,0.0,0.0,0.0,0.0,0.0,0.0,0.0,0.0,0.0,0.0,0.0,0.0,-4.329,-4.329,-4.329,-4.329,-4.303,-4.2425,-4.2628,-4.2441,-4.1724,-4.2006,-4.2462,-4.3152,-4.1172,-4.0017,-3.9574,-3.7548,-3.7545,-3.9241,-4.0925,-4.1711,-4.1918,-4.399,-4.4282,-4.3472,-4.445,-4.4182,-4.329,-4.329,-4.329,-4.329,-4.329,-4.329,-4.329,-4.329,-4.329,-4.329,-4.329,-4.329,-4.329,-4.329,-4.329,-4.329,-4.329,-4.329,-4.3036,-4.185,-4.1545,-4.1211,-4.0145,-4.0788,-4.1932,-4.3076,-4.329,-4.329,-4.329,-4.329,-4.329,-4.329,-4.329,-4.329,-4.329,-4.329,-4.3305,-4.3349,-4.3902,-4.4332,-4.4362,-4.5544,-4.6249,-4.6279,-4.692,-4.7264,-4.7309,-4.7309,-4.7309,-4.7309,-4.7309,-4.7309,-4.7309,-4.7309,-4.7309,-4.7309,-4.7309,-4.7309,0.0,0.0,0.0,0.0,0.0,0.0,0.0,0.0,0.0,0.0,0.0,0.0,0.0,0.0,0.0,0.0,0.0,0.0,0.0,0.0,0.0,0.0,0.0,0.0,0.0,0.0,0.0,0.0,0.0,-4.329,-4.329,-4.329,-4.2851,-4.1811,-4.2377,-4.2455,-4.1906,-4.1406,-4.1305,-4.1525,-4.0127,-3.9298,-3.8917,-3.7522,-3.7646,-3.9002,-4.0373,-4.161,-4.2765,-4.3521,-4.363,-4.3329,-4.3708,-4.363,-4.329,-4.329,-4.329,-4.329,-4.329,-4.329,-4.329,-4.329,-4.329,-4.329,-4.329,-4.329,-4.329,-4.329,-4.329,-4.329,-4.329,-4.2765,-4.1726,-3.98,-3.9332,-3.9464,-3.9798,-4.0788,-4.1932,-4.3076,-4.329,-4.329,-4.329,-4.329,-4.329,-4.329,-4.329,-4.329,-4.329,-4.329,-4.329,-4.329,-4.4302,-4.4945,-4.4945,-4.6172,-4.695,-4.695,-4.7174,-4.7309,-4.7309,-4.7309,-4.7309,-4.7309,-4.7309,-4.7309,-4.7309,-4.7309,-4.7309,-4.7309,-4.7309,-4.7309,0.0,0.0,0.0,0.0,0.0,0.0,0.0,0.0,0.0,0.0,0.0,0.0,0.0,0.0,0.0,0.0,0.0,0.0,0.0,0.0,0.0,0.0,0.0,0.0,0.0,0.0,0.0,0.0,0.0,0.0,-4.329,-4.3135,-4.2402,-4.11,-4.1413,-4.1441,-4.1145,-4.0535,-4.0274,-4.0239,-3.9164,-3.8559,-3.8371,-3.7286,-3.77,-3.9242,-3.9996,-4.1244,-4.2765,-4.3155,-4.329,-4.329,-4.329,-4.329,-4.329,-4.329,-4.329,-4.329,-4.329,-4.329,-4.329,-4.329,-4.329,-4.329,-4.329,-4.329,-4.329,-4.329,-4.3036,-4.2725,-4.2725,-4.1587,-4.0017,-3.8456,-3.8107,-3.8424,-3.9637,-4.049,-4.1476,-4.2981,-4.329,-4.329,-4.329,-4.329,-4.329,-4.329,-4.329,-4.329,-4.329,-4.329,-4.329,-4.329,-4.4511,-4.5289,-4.5289,-4.6531,-4.7309,-4.7309,-4.7309,-4.7309,-4.7309,-4.7309,-4.7309,-4.7309,-4.7309,-4.7309,-4.7309,-4.7309,-4.7309,-4.7309,-4.7309,-4.7309,0.0,0.0,0.0,0.0,0.0,0.0,0.0,0.0,0.0,0.0,0.0,0.0,0.0,0.0,0.0,0.0,0.0,0.0,0.0,0.0,0.0,0.0,0.0,0.0,0.0,0.0,0.0,0.0,-4.3305,-4.329,-4.329,-4.2701,-4.1782,-4.0472,-3.9768,-3.9388,-3.9388,-3.9388,-3.9388,-3.9388,-3.8345,-3.7829,-3.7791,-3.6774,-3.7605,-3.9834,-3.9834,-4.0516,-4.1726,-4.286,-4.329,-4.329,-4.329,-4.329,-4.329,-4.329,-4.329,-4.329,-4.329,-4.329,-4.329,-4.329,-4.329,-4.329,-4.329,-4.329,-4.329,-4.329,-4.2467,-4.1587,-4.1504,-3.98,-3.8107,-3.8062,-3.8062,-3.8424,-3.9637,-3.9942,-4.0618,-4.286,-4.329,-4.329,-4.329,-4.329,-4.329,-4.329,-4.329,-4.329,-4.329,-4.329,-4.329,-4.329,-4.4496,-4.5274,-4.5274,-4.6486,-4.7249,-4.7279,-4.7279,-4.7279,-4.7309,-4.7309,-4.7309,-4.7309,-4.7309,-4.7309,-4.7309,-4.7309,-4.7309,-4.7309,-4.7309,-4.7309,-3.2918,0.0,0.0,0.0,0.0,0.0,0.0,0.0,0.0,0.0,0.0,0.0,0.0,0.0,0.0,0.0,0.0,0.0,0.0,0.0,0.0,0.0,0.0,0.0,0.0,0.0,0.0,0.0,-4.3559,-4.329,-4.329,-4.2267,-4.1527,-4.113,-4.0008,-3.9388,-3.9388,-3.9388,-3.9388,-3.9388,-3.9104,-3.8943,-3.8943,-3.8657,-3.94,-4.0959,-4.0959,-4.1661,-4.286,-4.3155,-4.329,-4.329,-4.329,-4.329,-4.329,-4.329,-4.329,-4.329,-4.329,-4.329,-4.329,-4.329,-4.329,-4.329,-4.329,-4.329,-4.329,-4.329,-4.2467,-4.1197,-3.9508,-3.859,-3.7893,-3.7057,-3.7494,-3.8424,-3.9637,-4.0532,-4.156,-4.3036,-4.329,-4.329,-4.329,-4.329,-4.329,-4.329,-4.329,-4.329,-4.329,-4.329,-4.329,-4.329,-4.4092,-4.4586,-4.4586,-4.5364,-4.6067,-4.6561,-4.6591,-4.6815,-4.7279,-4.7309,-4.7309,-4.7309,-4.7309,-4.7309,-4.7309,-4.7309,-4.7309,-4.7309,-4.7309,-4.7309,-3.2918,-3.3124,0.0,0.0,0.0,0.0,0.0,-3.4517,0.0,0.0,0.0,0.0,0.0,0.0,0.0,0.0,0.0,0.0,0.0,0.0,0.0,0.0,0.0,0.0,0.0,-4.3366,-4.3285,-4.3507,-4.3645,-4.3509,-4.2955,-4.2207,-4.1707,-4.1384,-4.0367,-3.9828,-3.9828,-3.9559,-3.9388,-3.9388,-3.9388,-3.9388,-3.9388,-3.9388,-4.0142,-4.1422,-4.1422,-4.2371,-4.3927,-4.3927,-4.3669,-4.329,-4.329,-4.329,-4.329,-4.329,-4.329,-4.329,-4.329,-4.329,-4.329,-4.329,-4.329,-4.329,-4.329,-4.329,-4.329,-4.329,-4.2126,-4.0347,-3.7984,-3.7368,-3.7322,-3.715,-3.7984,-3.9169,-4.0347,-4.1518,-4.2508,-4.3155,-4.329,-4.329,-4.329,-4.329,-4.329,-4.329,-4.329,-4.329,-4.329,-4.329,-4.329,-4.329,-4.3888,-4.4317,-4.4317,-4.4915,-4.5469,-4.5873,-4.5888,-4.6202,-4.6875,-4.689,-4.7025,-4.7294,-4.7309,-4.7309,-4.7309,-4.7309,-4.7309,-4.7309,-4.7309,-4.7309,-3.293,-3.3124,-3.3194,-3.3684,-3.3432,0.0,-3.4445,-3.4325,-3.4461,0.0,0.0,0.0,0.0,0.0,0.0,0.0,0.0,0.0,0.0,0.0,0.0,0.0,0.0,0.0,-4.2571,-4.3476,-4.3714,-4.2596,-4.3531,-4.3688,-4.2575,-4.244,-4.2096,-4.1399,-4.0741,-4.0367,-4.0292,-3.9709,-3.9388,-3.9388,-3.9388,-3.9388,-3.9388,-3.9388,-4.0119,-4.1438,-4.1438,-4.2726,-4.4837,-4.4837,-4.4357,-4.3615,-4.3512,-4.3488,-4.3448,-4.3329,-4.329,-4.329,-4.329,-4.329,-4.329,-4.329,-4.329,-4.329,-4.329,-4.329,-4.325,-4.2996,-4.1351,-3.9183,-3.6977,-3.6499,-3.6849,-3.7848,-3.9139,-4.0375,-4.1378,-4.2508,-4.329,-4.329,-4.329,-4.329,-4.329,-4.329,-4.329,-4.329,-4.329,-4.329,-4.329,-4.329,-4.329,-4.329,-4.3813,-4.4212,-4.4212,-4.4751,-4.511,-4.5185,-4.5185,-4.5499,-4.6145,-4.6234,-4.6591,-4.7189,-4.7264,-4.7309,-4.7309,-4.7309,-4.7309,-4.7309,-4.7309,-4.7309,-3.3086,-3.3124,-3.3149,-3.3206,-3.3156,0.0,-3.4478,-3.4635,-3.4993,0.0,0.0,0.0,0.0,0.0,0.0,0.0,0.0,0.0,0.0,0.0,0.0,0.0,0.0,0.0,-4.1826,-4.2412,-4.2974,-4.3199,-4.3369,-4.3379,-4.3125,-4.2641,-4.2096,-4.1399,-4.0741,-4.0142,-3.9619,-3.9484,-3.9388,-3.9388,-3.9388,-3.9388,-3.9388,-3.9388,-4.0211,-4.1643,-4.1643,-4.2954,-4.5059,-4.5059,-4.5271,-4.5582,-4.4781,-4.451,-4.4412,-4.3591,-4.329,-4.329,-4.329,-4.329,-4.329,-4.329,-4.329,-4.329,-4.329,-4.329,-4.29,-4.1057,-3.9522,-3.8121,-3.6756,-3.7057,-3.7802,-3.8062,-3.9727,-4.1337,-4.1545,-4.2508,-4.329,-4.329,-4.329,-4.329,-4.329,-4.329,-4.329,-4.329,-4.329,-4.329,-4.329,-4.329,-4.329,-4.329,-4.3409,-4.3484,-4.3484,-4.3604,-4.3902,-4.4466,-4.4511,-4.4811,-4.5469,-4.6022,-4.6339,-4.6516,-4.704,-4.7309,-4.7309,-4.7309,-4.7309,-4.7309,-4.7309,-4.7309,-3.3124,-3.3124,-3.324,-3.3755,0.0,0.0,0.0,-3.544,-3.5843,-3.7156,0.0,0.0,0.0,0.0,0.0,0.0,0.0,0.0,0.0,0.0,0.0,0.0,0.0,0.0,-4.0693,-4.2094,-4.3353,-4.4279,-4.3682,-4.329,-4.329,-4.3015,-4.2551,-4.1931,-4.1235,-4.0576,-3.9918,-3.9589,-3.9388,-3.9388,-3.9388,-3.9388,-3.9388,-3.9388,-4.0243,-4.1709,-4.1709,-4.3258,-4.5811,-4.5811,-4.6501,-4.7456,-4.6048,-4.5227,-4.4737,-4.422,-4.3747,-4.329,-4.329,-4.329,-4.329,-4.329,-4.29,-4.2467,-4.2467,-4.2044,-4.1225,-3.9478,-3.8559,-3.7984,-3.7415,-3.7678,-3.8411,-3.9596,-4.0718,-4.1767,-4.233,-4.29,-4.329,-4.329,-4.329,-4.329,-4.329,-4.329,-4.329,-4.329,-4.329,-4.329,-4.329,-4.329,-4.329,-4.329,-4.329,-4.329,-4.329,-4.329,-4.3424,-4.3768,-4.3783,-4.4122,-4.4781,-4.514,-4.5633,-4.6264,-4.698,-4.7309,-4.7309,-4.698,-4.698,-4.7294,-4.698,-4.6995,0.0,0.0,-3.367,0.0,0.0,-3.5251,0.0,0.0,0.0,-3.7904,0.0,0.0,0.0,0.0,0.0,0.0,0.0,0.0,0.0,0.0,0.0,0.0,0.0,0.0,-3.9448,-4.1245,-4.3038,-4.4316,-4.3449,-4.2847,-4.2981,-4.317,-4.297,-4.2231,-4.1692,-4.101,-4.0217,-3.9694,-3.9388,-3.9388,-3.9388,-3.9388,-3.9388,-3.9388,-4.0259,-4.175,-4.175,-4.3515,-4.6379,-4.6511,-4.7326,-4.8344,-4.6801,-4.5726,-4.5005,-4.4662,-4.4004,-4.329,-4.329,-4.329,-4.325,-4.3036,-4.2208,-4.1253,-4.1253,-4.049,-3.936,-3.8379,-3.8107,-3.8107,-3.8107,-3.8456,-3.9244,-4.1155,-4.1767,-4.2193,-4.3115,-4.329,-4.329,-4.329,-4.329,-4.329,-4.329,-4.329,-4.329,-4.329,-4.329,-4.329,-4.329,-4.329,-4.329,-4.329,-4.329,-4.329,-4.329,-4.329,-4.329,-4.329,-4.329,-4.3529,-4.4107,-4.4242,-4.4885,-4.6055,-4.6651,-4.692,-4.692,-4.6262,-4.6352,-4.71,-4.6576,-4.6606,0.0,0.0,0.0,0.0,-3.6053,0.0,0.0,0.0,-3.7904,-3.898,0.0,0.0,0.0,0.0,0.0,0.0,0.0,0.0,0.0,0.0,0.0,0.0,0.0,0.0,0.0,-3.8527,-3.9456,-4.1179,-4.1166,-4.1297,-4.178,-4.2765,-4.2776,-4.1572,-4.1452,-4.0786,-3.9544,-3.9454,-3.9388,-3.9388,-3.9388,-3.9388,-3.9388,-3.9388,-4.0335,-4.1964,-4.1964,-4.3418,-4.5845,-4.6486,-4.6779,-4.6748,-4.6366,-4.6138,-4.5818,-4.4128,-4.3409,-4.329,-4.329,-4.329,-4.3115,-4.2111,-4.1,-4.0073,-4.0073,-3.9271,-3.8289,-3.8153,-3.8107,-3.8107,-3.8107,-3.9626,-4.128,-4.1545,-4.2371,-4.3155,-4.325,-4.329,-4.329,-4.329,-4.329,-4.329,-4.329,-4.329,-4.329,-4.329,-4.329,-4.329,-4.329,-4.329,-4.329,-4.329,-4.329,-4.329,-4.329,-4.329,-4.329,-4.329,-4.329,-4.3319,-4.3409,-4.3962,-4.4661,-4.5394,-4.5484,-4.5529,-4.5529,-4.4855,-4.52,-4.6384,-4.6324,-4.6324,0.0,0.0,0.0,0.0,0.0,0.0,-3.8457,0.0,-3.887,0.0,0.0,0.0,0.0,0.0,0.0,0.0,0.0,0.0,0.0,0.0,0.0,0.0,0.0,0.0,0.0,0.0,0.0,0.0,-4.0152,-4.0291,-4.1517,-4.207,-4.2216,-4.1983,-4.1617,-4.0935,-3.9993,-3.9568,-3.9388,-3.9388,-3.9388,-3.9388,-3.9388,-3.9388,-4.0095,-4.1247,-4.1247,-4.2639,-4.4947,-4.5151,-4.5748,-4.6438,-4.5686,-4.5395,-4.5285,-4.4457,-4.381,-4.329,-4.329,-4.286,-4.2029,-4.0161,-3.9258,-3.8738,-3.8088,-3.752,-3.7243,-3.7893,-3.8107,-3.8411,-3.9757,-4.0845,-4.1767,-4.2412,-4.2941,-4.329,-4.329,-4.329,-4.329,-4.329,-4.329,-4.329,-4.329,-4.329,-4.329,-4.329,-4.329,-4.329,-4.329,-4.329,-4.329,-4.329,-4.329,-4.329,-4.329,-4.329,-4.329,-4.329,-4.329,-4.329,-4.329,-4.3917,-4.4451,-4.4721,-4.5095,-4.5289,-4.5289,-4.4631,-4.4601,-4.517,-4.5544,-4.5948,-3.5047,0.0,0.0,0.0,0.0,0.0,0.0,0.0,0.0,0.0,0.0,0.0,0.0,0.0,0.0,0.0,0.0,0.0,0.0,0.0,0.0,0.0,0.0,0.0,0.0,0.0,0.0,0.0,0.0,-3.9128,-4.1042,-4.142,-4.1773,-4.2117,-4.1662,-4.098,-4.0142,-3.9649,-3.9388,-3.9388,-3.9388,-3.9388,-3.9388,-3.9388,-3.99,-4.069,-4.069,-4.1845,-4.3773,-4.4007,-4.4649,-4.5399,-4.4956,-4.4457,-4.3967,-4.4266,-4.3741,-4.282,-4.282,-4.185,-4.0376,-3.8635,-3.7893,-3.7507,-3.6675,-3.6628,-3.7023,-3.7848,-3.8545,-3.9464,-4.1155,-4.185,-4.229,-4.3115,-4.329,-4.329,-4.329,-4.329,-4.3349,-4.3529,-4.3424,-4.3349,-4.3529,-4.3409,-4.329,-4.329,-4.329,-4.329,-4.329,-4.329,-4.329,-4.329,-4.329,-4.329,-4.329,-4.329,-4.329,-4.329,-4.329,-4.329,-4.329,-4.3753,-4.4047,-4.4047,-4.4511,-4.4751,-4.4751,-4.4272,-4.4153,-4.4448,-4.5023,-4.5559,0.0,0.0,0.0,-3.9068,0.0,0.0,0.0,0.0,-3.9388,0.0,0.0,0.0,0.0,0.0,0.0,-3.4897,0.0,0.0,0.0,0.0,0.0,0.0,0.0,0.0,0.0,0.0,0.0,0.0,-3.6259,0.0,-3.983,-4.1,-4.1543,-4.1459,-4.1384,-4.0756,-3.9433,-3.9388,-3.9388,-3.9388,-3.9388,-3.9388,-3.9388,-3.9388,-3.99,-4.069,-4.069,-4.1213,-4.2174,-4.3533,-4.3579,-4.2957,-4.4285,-4.3524,-4.185,-4.2926,-4.2629,-4.1629,-4.1629,-4.0161,-3.8198,-3.8107,-3.7368,-3.6452,-3.6405,-3.715,-3.8062,-3.8107,-3.9713,-4.1504,-4.1587,-4.2412,-4.325,-4.329,-4.329,-4.329,-4.329,-4.329,-4.3484,-4.4152,-4.3723,-4.3499,-4.4167,-4.3708,-4.329,-4.329,-4.329,-4.329,-4.329,-4.329,-4.329,-4.329,-4.329,-4.329,-4.329,-4.329,-4.329,-4.329,-4.329,-4.329,-4.329,-4.3319,-4.3319,-4.3319,-4.3349,-4.3349,-4.3349,-4.3334,-4.384,-4.4799,-4.5148,-4.5304,0.0,0.0,-3.8943,-3.9301,0.0,0.0,0.0,0.0,0.0,0.0,0.0,0.0,0.0,0.0,0.0,-3.3713,-3.3641,0.0,0.0,0.0,0.0,0.0,0.0,0.0,0.0,0.0,0.0,0.0,-3.5364,0.0,0.0,-3.9605,-4.028,-4.1361,-4.0965,-4.0516,-4.0068,-3.9634,-3.9388,-3.9388,-3.9388,-3.9388,-3.9388,-3.9388,-3.9574,-3.9829,-3.9829,-4.0343,-4.1189,-4.198,-4.2479,-4.271,-4.2686,-4.2231,-4.1629,-4.2029,-4.1462,-4.0361,-3.9552,-3.8769,-3.7984,-3.7243,-3.6709,-3.6534,-3.7276,-3.7802,-3.8411,-3.9974,-4.0986,-4.1767,-4.2548,-4.3036,-4.329,-4.329,-4.329,-4.3409,-4.3883,-4.3947,-4.4182,-4.484,-4.4781,-4.4556,-4.4347,-4.4122,-4.3798,-4.3364,-4.329,-4.329,-4.329,-4.329,-4.329,-4.329,-4.329,-4.329,-4.329,-4.329,-4.329,-4.329,-4.329,-4.329,-4.329,-4.329,-4.329,-4.329,-4.329,-4.329,-4.329,-4.3966,-4.4703,-4.5554,-4.6747,-4.7284,-3.7625,-3.8583,0.0,-3.9388,-3.9388,0.0,-3.9388,0.0,-3.9104,0.0,0.0,0.0,0.0,0.0,0.0,-3.3124,-3.3124,0.0,0.0,-3.3124,0.0,0.0,0.0,0.0,0.0,0.0,-3.3985,-3.4843,-3.4625,0.0,0.0,0.0,-3.9139,-4.0427,-4.042,-4.0292,-4.0053,-3.9634,-3.9388,-3.9388,-3.9388,-3.9388,-3.9388,-3.9388,-3.9388,-3.9388,-3.9388,-3.9737,-4.0312,-4.1076,-4.1475,-4.1596,-4.1613,-4.1112,-4.0419,-4.0817,-4.0261,-3.9094,-3.7906,-3.7494,-3.7368,-3.6628,-3.6405,-3.6628,-3.7756,-3.8379,-3.9125,-4.107,-4.1891,-4.2371,-4.3115,-4.329,-4.329,-4.329,-4.3469,-4.3753,-4.4227,-4.4496,-4.4855,-4.5529,-4.5469,-4.5244,-4.5065,-4.4825,-4.4362,-4.3424,-4.329,-4.329,-4.329,-4.329,-4.329,-4.329,-4.329,-4.329,-4.329,-4.329,-4.329,-4.329,-4.329,-4.329,-4.329,-4.329,-4.329,-4.329,-4.329,-4.329,-4.329,-4.4565,-4.5597,-4.6432,-4.8352,-4.9385]},{"header":{"parameterUnit":"m.s-1","parameterCategory":1,"la1":30.6,"la2":29.2853,"lo1":-89.7004,"lo2":-87.6739,"dy":0.0162,"dx":0.0183,"nx":112,"ny":82,"refTime":"2024-06-28T06:00:00:Z","depth":0,"parameterNumber":3,"parameterNumberName":"V-component_of_WINDS"},"data":[0.0,0.0,0.0,0.0,0.0,0.0,0.0,0.0,0.0,0.0,0.0,0.0,0.0,0.0,0.0,0.0,0.0,0.0,0.0,0.0,0.0,0.0,0.0,0.0,0.0,0.0,0.0,0.0,0.0,0.0,0.0,0.0,0.0,0.0,0.0,0.0,0.0,0.0,0.0,0.0,0.0,0.0,0.0,0.0,0.0,0.0,0.0,0.0,0.0,0.0,0.0,0.0,0.0,0.0,0.0,0.0,0.0,0.0,0.0,0.0,0.0,0.0,0.0,0.0,0.0,0.0,0.0,0.0,0.0,0.0,0.0,0.0,0.0,0.0,0.0,0.0,0.0,0.0,0.0,0.0,0.0,0.0,0.0,0.0,0.0,0.0,0.0,0.0,0.0,0.0,-2.0094,-2.0885,-2.2146,-2.2928,-2.2928,-2.2546,-2.1735,-2.0314,0.0,0.0,0.0,0.0,0.0,0.0,0.0,0.0,0.0,0.0,0.0,0.0,0.0,0.0,0.0,0.0,0.0,0.0,0.0,0.0,0.0,0.0,0.0,0.0,0.0,0.0,0.0,0.0,0.0,0.0,0.0,0.0,0.0,0.0,0.0,0.0,0.0,0.0,0.0,0.0,0.0,0.0,0.0,0.0,0.0,0.0,0.0,0.0,0.0,0.0,0.0,0.0,0.0,0.0,0.0,0.0,0.0,0.0,0.0,0.0,0.0,0.0,0.0,0.0,0.0,0.0,0.0,0.0,0.0,0.0,0.0,0.0,0.0,0.0,0.0,0.0,0.0,0.0,0.0,0.0,0.0,0.0,0.0,0.0,0.0,0.0,0.0,0.0,0.0,0.0,0.0,0.0,0.0,0.0,0.0,0.0,0.0,0.0,0.0,0.0,0.0,0.0,0.0,0.0,-2.0394,-2.1943,-2.2613,-2.2928,-2.2928,-2.2352,-2.1516,-2.0307,0.0,0.0,0.0,0.0,0.0,0.0,0.0,0.0,0.0,0.0,0.0,0.0,0.0,0.0,0.0,0.0,0.0,0.0,0.0,0.0,0.0,0.0,0.0,0.0,0.0,0.0,0.0,0.0,0.0,0.0,0.0,0.0,0.0,0.0,0.0,0.0,0.0,0.0,0.0,0.0,0.0,0.0,0.0,0.0,0.0,0.0,0.0,0.0,0.0,0.0,0.0,0.0,0.0,0.0,0.0,0.0,0.0,0.0,0.0,0.0,0.0,0.0,0.0,0.0,0.0,0.0,0.0,0.0,0.0,0.0,0.0,0.0,0.0,0.0,0.0,0.0,0.0,0.0,0.0,0.0,0.0,0.0,0.0,0.0,0.0,0.0,0.0,0.0,0.0,0.0,0.0,0.0,0.0,0.0,0.0,0.0,0.0,0.0,0.0,0.0,0.0,0.0,0.0,-2.0211,-2.0929,-2.2515,-2.2665,-2.264,-2.2619,-2.2084,-2.1249,-2.0074,-2.0406,0.0,0.0,0.0,0.0,0.0,0.0,0.0,0.0,0.0,0.0,0.0,0.0,0.0,0.0,0.0,0.0,0.0,0.0,0.0,0.0,0.0,0.0,0.0,0.0,0.0,0.0,0.0,0.0,0.0,0.0,0.0,0.0,0.0,0.0,0.0,0.0,0.0,0.0,0.0,0.0,0.0,0.0,0.0,0.0,0.0,0.0,0.0,0.0,0.0,0.0,0.0,0.0,0.0,0.0,0.0,0.0,0.0,0.0,0.0,0.0,0.0,0.0,0.0,0.0,0.0,0.0,0.0,0.0,0.0,0.0,0.0,0.0,0.0,0.0,0.0,0.0,0.0,0.0,0.0,0.0,0.0,0.0,0.0,0.0,0.0,0.0,0.0,0.0,0.0,0.0,0.0,0.0,0.0,0.0,0.0,0.0,0.0,0.0,0.0,0.0,0.0,0.0,-2.1195,-2.1806,-2.2579,-2.2827,-2.2697,-2.2311,-2.1724,-2.109,-2.0322,-2.0845,0.0,0.0,0.0,0.0,0.0,0.0,0.0,0.0,0.0,0.0,0.0,0.0,0.0,0.0,0.0,0.0,0.0,0.0,0.0,0.0,0.0,0.0,0.0,0.0,0.0,0.0,0.0,0.0,0.0,0.0,0.0,0.0,0.0,0.0,0.0,0.0,0.0,0.0,0.0,0.0,0.0,0.0,0.0,0.0,0.0,0.0,0.0,0.0,0.0,0.0,0.0,0.0,0.0,0.0,0.0,0.0,0.0,0.0,0.0,0.0,0.0,0.0,0.0,0.0,0.0,0.0,0.0,0.0,0.0,0.0,0.0,0.0,0.0,0.0,0.0,0.0,0.0,0.0,0.0,0.0,0.0,0.0,0.0,0.0,0.0,0.0,0.0,0.0,0.0,0.0,0.0,0.0,0.0,0.0,0.0,0.0,0.0,0.0,0.0,0.0,0.0,0.0,-2.2155,-2.3335,-2.2182,-2.3392,-2.3674,-2.2143,-2.1229,-2.0998,-2.1598,-2.0974,0.0,0.0,0.0,0.0,0.0,0.0,0.0,0.0,0.0,0.0,0.0,0.0,0.0,0.0,0.0,0.0,0.0,0.0,0.0,0.0,0.0,0.0,0.0,0.0,0.0,0.0,0.0,0.0,0.0,0.0,0.0,0.0,0.0,0.0,0.0,0.0,0.0,0.0,0.0,0.0,0.0,0.0,0.0,0.0,0.0,0.0,0.0,0.0,0.0,0.0,0.0,0.0,0.0,0.0,0.0,0.0,0.0,0.0,0.0,0.0,0.0,0.0,0.0,0.0,0.0,0.0,0.0,0.0,0.0,0.0,0.0,0.0,0.0,0.0,0.0,0.0,0.0,0.0,0.0,0.0,0.0,0.0,0.0,0.0,0.0,0.0,0.0,0.0,0.0,0.0,0.0,0.0,0.0,0.0,0.0,0.0,0.0,0.0,0.0,0.0,0.0,0.0,-2.3766,-2.4673,0.0,-2.5438,-2.5407,-2.4782,-2.4047,-2.3392,-2.3067,0.0,0.0,0.0,0.0,0.0,0.0,0.0,0.0,0.0,0.0,0.0,0.0,0.0,0.0,0.0,0.0,0.0,0.0,0.0,0.0,0.0,0.0,0.0,0.0,0.0,0.0,0.0,0.0,0.0,0.0,0.0,0.0,0.0,0.0,0.0,0.0,0.0,0.0,0.0,0.0,0.0,0.0,0.0,0.0,0.0,0.0,0.0,0.0,0.0,0.0,0.0,0.0,0.0,0.0,0.0,0.0,0.0,0.0,0.0,0.0,0.0,0.0,0.0,0.0,0.0,0.0,0.0,0.0,0.0,0.0,0.0,0.0,0.0,0.0,0.0,0.0,0.0,0.0,0.0,0.0,0.0,0.0,0.0,0.0,0.0,0.0,0.0,0.0,0.0,0.0,0.0,0.0,0.0,0.0,0.0,0.0,0.0,0.0,0.0,0.0,0.0,0.0,-2.4005,-2.5094,-2.5996,0.0,-2.6876,-2.6789,-2.6113,-2.5279,-2.4621,-2.409,0.0,0.0,0.0,0.0,0.0,0.0,0.0,0.0,0.0,0.0,0.0,0.0,0.0,0.0,0.0,0.0,0.0,0.0,0.0,0.0,0.0,0.0,0.0,0.0,0.0,0.0,0.0,0.0,0.0,0.0,0.0,0.0,0.0,0.0,0.0,0.0,0.0,0.0,0.0,0.0,0.0,0.0,0.0,0.0,0.0,0.0,0.0,0.0,0.0,0.0,0.0,0.0,0.0,0.0,0.0,0.0,0.0,0.0,0.0,0.0,0.0,0.0,0.0,0.0,0.0,0.0,0.0,0.0,0.0,0.0,0.0,0.0,0.0,0.0,0.0,0.0,0.0,0.0,0.0,0.0,0.0,0.0,0.0,0.0,0.0,0.0,0.0,0.0,0.0,0.0,0.0,0.0,0.0,0.0,0.0,0.0,0.0,0.0,0.0,0.0,0.0,0.0,-2.3723,-2.616,-2.7342,-2.6204,-2.7503,-2.7584,-2.5524,-2.4449,-2.4065,0.0,0.0,0.0,0.0,0.0,0.0,0.0,0.0,0.0,0.0,0.0,0.0,0.0,0.0,0.0,0.0,0.0,0.0,0.0,0.0,0.0,0.0,0.0,0.0,0.0,0.0,0.0,0.0,0.0,0.0,0.0,0.0,0.0,0.0,0.0,0.0,0.0,0.0,0.0,0.0,0.0,0.0,0.0,0.0,0.0,0.0,0.0,0.0,0.0,0.0,0.0,0.0,0.0,0.0,0.0,0.0,0.0,0.0,0.0,0.0,0.0,0.0,0.0,0.0,0.0,0.0,0.0,0.0,0.0,0.0,0.0,0.0,0.0,0.0,0.0,0.0,0.0,0.0,0.0,0.0,0.0,0.0,0.0,0.0,0.0,0.0,0.0,0.0,0.0,0.0,0.0,0.0,0.0,0.0,0.0,0.0,0.0,0.0,0.0,0.0,0.0,0.0,0.0,-2.6803,-2.8169,-2.9184,-2.9446,-2.9903,-2.9781,-2.8864,-2.7903,-2.7067,-2.6332,0.0,0.0,0.0,0.0,0.0,0.0,0.0,0.0,0.0,0.0,0.0,0.0,0.0,0.0,0.0,0.0,0.0,0.0,0.0,0.0,0.0,0.0,0.0,0.0,0.0,0.0,0.0,0.0,0.0,0.0,0.0,0.0,0.0,0.0,0.0,0.0,0.0,0.0,0.0,0.0,0.0,0.0,0.0,0.0,0.0,0.0,0.0,0.0,0.0,0.0,0.0,0.0,0.0,0.0,0.0,0.0,0.0,0.0,0.0,0.0,0.0,0.0,0.0,0.0,0.0,0.0,0.0,0.0,0.0,0.0,0.0,0.0,0.0,0.0,0.0,0.0,0.0,0.0,0.0,0.0,0.0,0.0,0.0,0.0,0.0,0.0,0.0,0.0,0.0,0.0,0.0,0.0,0.0,0.0,0.0,0.0,0.0,0.0,0.0,0.0,0.0,0.0,-2.79,-2.8789,-2.958,-3.0293,-3.0361,-3.0185,-2.9726,-2.9062,-2.8125,-2.6846,0.0,0.0,0.0,0.0,0.0,0.0,0.0,0.0,0.0,0.0,0.0,0.0,0.0,0.0,0.0,0.0,0.0,0.0,0.0,0.0,0.0,0.0,0.0,0.0,0.0,0.0,0.0,0.0,0.0,0.0,0.0,0.0,0.0,0.0,0.0,0.0,0.0,0.0,0.0,0.0,0.0,0.0,0.0,0.0,0.0,0.0,0.0,0.0,0.0,0.0,0.0,0.0,0.0,0.0,0.0,0.0,0.0,0.0,0.0,0.0,0.0,0.0,0.0,0.0,0.0,0.0,0.0,0.0,0.0,0.0,0.0,0.0,0.0,0.0,0.0,0.0,0.0,0.0,0.0,0.0,0.0,0.0,0.0,0.0,0.0,0.0,0.0,0.0,0.0,0.0,0.0,0.0,0.0,0.0,0.0,0.0,0.0,0.0,0.0,0.0,0.0,0.0,-2.7549,-2.8398,-2.9082,-2.9521,-2.9626,-2.9394,-2.8955,-2.8535,-2.7754,-2.6465,0.0,0.0,0.0,0.0,0.0,0.0,0.0,0.0,0.0,0.0,0.0,0.0,0.0,0.0,0.0,0.0,0.0,0.0,0.0,0.0,0.0,0.0,0.0,0.0,0.0,0.0,0.0,0.0,0.0,0.0,0.0,0.0,0.0,0.0,0.0,0.0,0.0,0.0,0.0,0.0,0.0,0.0,0.0,0.0,0.0,0.0,0.0,0.0,0.0,0.0,0.0,0.0,0.0,0.0,0.0,0.0,0.0,0.0,0.0,0.0,-1.7889,0.0,0.0,0.0,0.0,0.0,0.0,0.0,0.0,0.0,0.0,0.0,0.0,0.0,0.0,0.0,0.0,0.0,0.0,0.0,0.0,0.0,0.0,0.0,0.0,0.0,0.0,0.0,0.0,0.0,0.0,0.0,0.0,0.0,0.0,0.0,0.0,0.0,0.0,0.0,0.0,0.0,-2.751,-2.8398,-2.9082,-2.9521,-2.9626,-2.9394,-2.8955,-2.8535,-2.7754,-2.6465,-2.5977,0.0,0.0,0.0,0.0,0.0,0.0,0.0,0.0,0.0,0.0,0.0,0.0,0.0,0.0,0.0,0.0,0.0,0.0,0.0,0.0,0.0,0.0,0.0,0.0,0.0,0.0,0.0,0.0,0.0,0.0,0.0,0.0,0.0,0.0,0.0,0.0,0.0,0.0,0.0,0.0,0.0,0.0,0.0,0.0,0.0,0.0,0.0,0.0,0.0,0.0,0.0,0.0,0.0,0.0,0.0,0.0,0.0,0.0,0.0,0.0,-1.817,0.0,0.0,0.0,0.0,0.0,0.0,0.0,0.0,0.0,0.0,0.0,0.0,0.0,0.0,0.0,0.0,0.0,0.0,0.0,0.0,0.0,0.0,0.0,0.0,0.0,0.0,0.0,0.0,0.0,0.0,0.0,0.0,0.0,0.0,0.0,0.0,0.0,0.0,0.0,0.0,-2.7187,-2.792,-2.8486,-2.8906,-2.8955,-2.8867,-2.8633,-2.8418,-2.7832,-2.6758,-2.6289,0.0,0.0,0.0,0.0,0.0,0.0,0.0,0.0,0.0,0.0,0.0,0.0,0.0,0.0,0.0,0.0,0.0,0.0,0.0,0.0,0.0,0.0,0.0,0.0,0.0,0.0,0.0,0.0,0.0,0.0,0.0,0.0,0.0,0.0,0.0,0.0,0.0,0.0,0.0,0.0,0.0,0.0,0.0,0.0,0.0,0.0,0.0,0.0,0.0,0.0,0.0,0.0,0.0,-1.9829,-1.998,-1.9973,-1.9688,-1.9519,-1.9551,-1.9339,-1.9145,-1.9029,-1.9993,0.0,0.0,0.0,0.0,0.0,0.0,0.0,0.0,0.0,0.0,0.0,0.0,0.0,0.0,0.0,0.0,0.0,0.0,0.0,0.0,0.0,0.0,0.0,0.0,-2.7129,-2.6836,-2.5801,0.0,0.0,0.0,0.0,0.0,0.0,0.0,0.0,0.0,0.0,0.0,-2.6855,-2.7393,-2.7822,-2.8252,-2.8291,-2.8291,-2.8291,-2.8291,-2.793,-2.707,-2.6689,-2.6064,0.0,0.0,0.0,0.0,0.0,0.0,0.0,0.0,0.0,0.0,0.0,0.0,0.0,0.0,0.0,0.0,0.0,0.0,0.0,0.0,0.0,0.0,0.0,0.0,0.0,0.0,0.0,0.0,0.0,0.0,0.0,0.0,-1.6051,-1.7757,0.0,0.0,0.0,0.0,0.0,0.0,0.0,0.0,0.0,0.0,0.0,0.0,0.0,-1.8951,-1.931,-2.0938,-2.1764,-2.1771,-2.2127,-2.2231,-2.2231,-2.0762,-2.0114,-2.0174,-2.1558,0.0,-2.0777,-2.1238,0.0,0.0,0.0,0.0,0.0,0.0,0.0,0.0,0.0,0.0,0.0,0.0,0.0,0.0,0.0,0.0,0.0,0.0,0.0,0.0,0.0,0.0,-2.7891,-2.7637,-2.763,-2.7581,0.0,-2.6738,-2.6084,-2.5596,-2.5293,0.0,0.0,0.0,0.0,0.0,0.0,0.0,-2.6894,-2.7393,-2.7822,-2.8252,-2.8291,-2.8291,-2.8291,-2.8291,-2.793,-2.707,-2.6963,-2.6377,-2.5165,-2.5008,0.0,0.0,0.0,0.0,0.0,0.0,0.0,0.0,0.0,0.0,0.0,0.0,0.0,0.0,0.0,0.0,0.0,0.0,0.0,0.0,0.0,0.0,0.0,0.0,0.0,0.0,0.0,0.0,0.0,-1.5565,-1.649,-1.7563,-1.7253,-1.753,0.0,0.0,0.0,0.0,0.0,0.0,0.0,0.0,0.0,-1.9399,-1.9573,-2.0126,-2.1246,-2.243,-2.3351,-2.409,-2.4396,-2.4563,-2.4503,-2.3778,-2.3483,-2.3475,-2.4262,-2.4655,-2.4817,-2.4574,-2.4789,-2.5208,0.0,0.0,0.0,0.0,-2.2995,-2.3852,-2.4062,-2.4675,-2.5396,-2.5689,0.0,0.0,0.0,0.0,0.0,0.0,0.0,0.0,0.0,0.0,-2.8002,-2.8008,-2.8018,-2.8219,-2.8977,-2.8269,-2.7256,0.0,-2.6494,-2.624,-2.5312,0.0,0.0,0.0,0.0,-2.5996,-2.6904,-2.7393,-2.7822,-2.8252,-2.8291,-2.8291,-2.8291,-2.8291,-2.793,-2.707,-2.7012,-2.6543,-2.5488,-2.5205,-2.4795,0.0,0.0,0.0,0.0,0.0,0.0,0.0,0.0,0.0,0.0,0.0,0.0,0.0,0.0,0.0,0.0,0.0,0.0,0.0,0.0,0.0,0.0,0.0,0.0,0.0,0.0,0.0,0.0,-1.6217,-1.6943,-1.7712,-1.7959,-1.8624,0.0,0.0,0.0,0.0,0.0,0.0,-1.9858,-1.9699,-2.0023,-2.0879,-2.1113,-2.2108,-2.3868,-2.4646,-2.5513,-2.6508,-2.6566,-2.6591,-2.6582,-2.6158,-2.5976,-2.6037,-2.647,-2.7107,-2.7872,-2.7245,-2.69,-2.681,-2.6541,-2.6159,-2.5558,-2.4492,-2.4807,-2.5709,-2.6058,-2.6831,-2.7679,-2.7412,-2.7275,-2.7002,-2.6025,0.0,0.0,0.0,0.0,-2.7275,-2.7715,-2.7822,-2.791,-2.8223,-2.8291,-2.8644,-3.0016,-2.926,-2.8172,0.0,-2.769,-2.7324,-2.625,0.0,0.0,0.0,0.0,-2.6288,-2.709,-2.7461,-2.7822,-2.8252,-2.8291,-2.8252,-2.8144,-2.8135,-2.7764,-2.6904,-2.6855,-2.6514,-2.5713,-2.542,-2.5233,-2.5116,0.0,0.0,0.0,0.0,0.0,0.0,0.0,0.0,0.0,0.0,0.0,0.0,0.0,0.0,0.0,0.0,0.0,0.0,0.0,0.0,0.0,0.0,0.0,0.0,0.0,0.0,0.0,0.0,0.0,-1.9302,-2.0084,0.0,0.0,0.0,0.0,-2.3382,-2.2283,-2.1875,-2.249,-2.1004,-2.136,-2.3925,-2.397,-2.5006,-2.7038,-2.8228,-2.8855,-2.8889,-2.8469,-2.8298,-2.8239,-2.6712,-2.5976,-2.6098,-2.7623,-2.828,-2.8354,-2.789,-2.8143,-2.8777,-2.8748,-2.8242,-2.7575,-2.747,-2.7522,-2.7584,-2.7604,-2.7666,-2.7777,-2.8105,-2.7959,-2.7669,-2.7611,-2.7256,0.0,0.0,-2.7669,-2.7777,-2.8144,-2.8262,-2.8262,-2.8291,-2.8291,-2.8644,-3.0016,-2.926,-2.8569,0.0,-2.8541,-2.7562,-2.7031,0.0,-2.6943,-2.6924,-2.6934,-2.7119,-2.7578,-2.7708,-2.7822,-2.8252,-2.8291,-2.8135,-2.7777,-2.7748,-2.7334,-2.6475,-2.6426,-2.6211,-2.5703,-2.5664,-2.5508,-2.5125,-2.4619,0.0,0.0,0.0,0.0,0.0,0.0,0.0,0.0,0.0,0.0,0.0,0.0,0.0,0.0,0.0,0.0,0.0,0.0,0.0,0.0,0.0,0.0,0.0,0.0,0.0,0.0,0.0,0.0,-2.1243,-2.2049,0.0,-2.4307,-2.4185,-2.4446,-2.5491,-2.4818,-2.4547,-2.492,-2.4833,-2.5188,-2.619,-2.6352,-2.7245,-2.8843,-2.9467,-3.0091,-3.0638,-3.0486,-3.0277,-2.9962,-2.9403,-2.9166,-2.9166,-2.9776,-3.002,-3.0011,-2.9868,-2.9757,-2.9746,-2.9746,-2.9394,-2.8941,-2.8941,-2.8711,-2.8476,-2.8476,-2.8301,-2.8096,-2.8242,-2.8008,-2.7718,-2.7718,-2.7559,-2.7471,-2.7679,-2.7914,-2.8105,-2.8252,-2.8291,-2.8291,-2.8291,-2.8291,-2.8644,-3.0016,-2.9911,-2.9713,-3.0004,-2.8975,-2.793,-2.75,-2.7432,-2.7344,-2.706,-2.7256,-2.749,-2.7699,-2.7953,-2.8125,-2.8271,-2.8291,-2.8125,-2.7748,-2.7718,-2.7356,-2.6445,-2.6387,-2.6191,-2.5703,-2.5693,-2.5615,-2.5508,-2.5068,-2.4492,0.0,0.0,0.0,0.0,0.0,0.0,0.0,0.0,0.0,0.0,0.0,0.0,0.0,0.0,0.0,0.0,0.0,0.0,0.0,0.0,0.0,0.0,0.0,0.0,0.0,0.0,-2.2245,-2.249,-2.3761,-2.4937,-2.5748,-2.6059,-2.6693,-2.7781,-2.7301,-2.7056,-2.7313,-2.7374,-2.7768,-2.8468,-2.8064,-2.8854,-3.09,-3.0446,-3.0773,-3.1943,-3.166,-3.1367,-3.1094,-3.0957,-3.0889,-3.0889,-3.0889,-3.0889,-3.0889,-3.0889,-3.0713,-3.043,-3.043,-3.0166,-2.9785,-2.9785,-2.9414,-2.8896,-2.876,-2.8525,-2.8291,-2.8291,-2.8105,-2.7881,-2.7881,-2.7881,-2.7881,-2.7881,-2.8076,-2.8291,-2.8291,-2.8291,-2.8291,-2.8291,-2.8291,-2.8644,-3.0016,-3.0317,-3.0421,-3.0876,-2.9911,-2.8757,-2.8025,-2.7881,-2.7783,-2.749,-2.7695,-2.7881,-2.7881,-2.8125,-2.8291,-2.8291,-2.8291,-2.8066,-2.749,-2.7441,-2.708,-2.6221,-2.6172,-2.6035,-2.5703,-2.5693,-2.5693,-2.5693,-2.5712,-2.5267,-2.443,0.0,0.0,0.0,0.0,0.0,0.0,0.0,0.0,0.0,0.0,0.0,0.0,0.0,0.0,0.0,0.0,0.0,0.0,0.0,0.0,0.0,0.0,0.0,-2.234,-2.252,-2.2933,-2.3073,-2.5246,-2.6707,-2.6472,-2.8709,-3.0225,-3.0234,-2.9561,-2.9333,-2.959,-2.8532,-2.8828,-3.0827,-2.9213,-3.0004,-3.3355,-3.1318,-3.1113,-3.2783,-3.1953,-3.1543,-3.1504,-3.1094,-3.0898,-3.0889,-3.0889,-3.0889,-3.0889,-3.0889,-3.0889,-3.0889,-3.0889,-3.0615,-3.0215,-3.0215,-2.9678,-2.8877,-2.8437,-2.8291,-2.8291,-2.8291,-2.8291,-2.8291,-2.8291,-2.8291,-2.8291,-2.8291,-2.8291,-2.8291,-2.8291,-2.8291,-2.8291,-2.8291,-2.8291,-2.8644,-2.9964,-3.0266,-3.0669,-3.1977,-3.1224,-2.9964,-2.8591,-2.8344,-2.8291,-2.8291,-2.8291,0.0,-2.8291,-2.8291,-2.8291,-2.8291,-2.8291,-2.7949,-2.709,-2.7012,-2.665,-2.5742,-2.5693,-2.5693,-2.5693,-2.5693,-2.5693,-2.5693,-2.6494,-2.648,-2.5642,0.0,0.0,0.0,0.0,0.0,0.0,0.0,0.0,0.0,0.0,0.0,0.0,0.0,0.0,0.0,0.0,0.0,0.0,0.0,0.0,0.0,-2.5375,-2.6401,-2.4845,-2.5633,-2.6458,-2.6758,-2.8005,-2.8904,-2.9134,-3.0083,-3.083,-3.1133,-3.1291,-3.1529,-3.188,-3.1841,-3.2115,-3.2692,-3.2237,-3.2438,-3.3418,-3.2777,-3.2638,-3.2793,-3.2559,-3.2119,-3.1514,-3.1396,-3.1182,-3.0889,-3.0889,-3.0889,-3.0889,-3.0889,-3.0889,-3.0889,-3.0889,-3.081,-3.0703,-3.0703,-3.0146,-2.9287,-2.8545,-2.8291,-2.8291,-2.8291,-2.8291,-2.8291,-2.8291,-2.8291,-2.8291,-2.8291,-2.8291,-2.8291,-2.8291,-2.8291,-2.8291,-2.8291,-2.8291,-2.8398,-2.8751,-2.9608,-3.0421,-3.0773,-3.1327,-3.1327,-2.9964,-2.8953,-2.8291,-2.8291,-2.8291,0.0,-2.8291,-2.8291,-2.8291,-2.8291,-2.8291,-2.7949,-2.709,-2.7012,-2.665,-2.5742,-2.5693,-2.5693,-2.5693,-2.5693,-2.5693,-2.5693,-2.6494,-2.676,0.0,0.0,0.0,0.0,0.0,0.0,0.0,0.0,0.0,0.0,0.0,0.0,0.0,0.0,0.0,0.0,0.0,0.0,0.0,0.0,0.0,0.0,-2.6661,-2.7817,-2.7117,-2.7408,-2.7891,-2.8486,-2.916,-2.9736,-3.0156,-3.0615,-3.1064,-3.1484,-3.1924,-3.2353,-3.2773,-3.3193,-3.3418,-3.3418,-3.2692,-3.2692,-3.3418,-3.2692,-3.2568,-3.3057,-3.2881,-3.2441,-3.1787,-3.1601,-3.1289,-3.0889,-3.0889,-3.0889,-3.0889,-3.0889,-3.0889,0.0,0.0,0.0,0.0,0.0,-2.9893,-2.9199,-2.8525,-2.8291,-2.8291,-2.8291,-2.8291,-2.8291,-2.8291,-2.8291,-2.8291,-2.8291,-2.8291,-2.8291,-2.8291,-2.8291,-2.8291,-2.8291,-2.8291,-2.8291,-2.8291,-2.9355,-3.0473,-3.1019,-3.1774,0.0,-3.1276,-3.0016,-2.8953,-2.8398,-2.8291,-2.8291,-2.8291,-2.8291,-2.8291,-2.8291,-2.8291,-2.8018,-2.7344,-2.7119,0.0,0.0,0.0,-2.5693,-2.5693,-2.5693,0.0,0.0,0.0,0.0,0.0,0.0,0.0,0.0,-3.0977,-3.1821,0.0,0.0,0.0,0.0,0.0,0.0,0.0,0.0,0.0,0.0,0.0,0.0,0.0,0.0,0.0,0.0,-2.7704,-2.8755,-2.8668,-2.8144,-2.8027,-2.8818,-2.9307,-2.9736,-3.0156,-3.0615,-3.1084,-3.1553,-3.1953,-3.2373,-3.2842,0.0,0.0,0.0,0.0,-3.1835,-3.3355,-3.1899,-3.1899,-3.3418,-3.3047,-3.2617,-3.2219,-3.1768,-3.1338,-3.0889,-3.0889,-3.0889,-3.0889,-3.0889,-3.0889,-3.0889,-3.0889,-3.0859,-3.0713,-2.9883,-2.9287,-2.8857,-2.8437,0.0,0.0,-2.8291,-2.8291,-2.8291,-2.8291,-2.8291,-2.8291,-2.8291,-2.8291,-2.8291,-2.8291,-2.8291,-2.8291,-2.8291,-2.8291,-2.8291,-2.8291,-2.9207,-3.0525,-3.2028,-3.228,-3.228,-3.228,-3.1173,-2.9859,-2.8495,-2.8252,-2.8223,-2.8223,-2.8174,-2.8144,-2.8144,0.0,0.0,-2.7611,-2.7168,-2.6768,-2.6338,-2.5947,-2.5693,-2.5693,-2.5693,-2.5693,-2.5693,-2.8121,-2.9642,-3.0193,-3.2677,-3.4211,-3.4743,-3.2711,-3.313,0.0,0.0,0.0,0.0,0.0,0.0,0.0,0.0,0.0,0.0,0.0,0.0,0.0,0.0,0.0,-2.5989,-2.7511,-2.858,-2.7978,-2.8058,-2.8359,-2.8857,-2.9307,-2.9736,-3.0156,-3.0615,-3.1211,-3.1982,-3.2119,-3.25,-3.3262,-3.3379,-3.3418,-3.3418,-3.3092,-3.3092,-3.3418,-3.3092,-3.3092,-3.3418,0.0,0.0,-3.2229,-3.208,-3.1621,-3.0889,-3.0889,-3.0889,-3.0889,-3.0889,-3.0889,-3.0889,-3.0889,-3.0664,-3.0264,-2.9756,-2.9287,-2.8857,-2.8437,-2.8291,-2.8291,-2.8291,-2.8291,-2.8291,-2.8291,-2.8291,0.0,-2.8291,-2.8291,-2.8291,-2.8291,-2.8291,-2.8291,-2.8291,-2.8291,-2.8291,-2.8291,-2.8495,-2.9408,-3.1825,-3.228,-3.228,-3.228,-3.1173,-2.9859,-2.8495,-2.7998,-2.7836,-2.7836,-2.748,-2.7266,-2.7266,-2.7266,-2.709,-2.667,-2.6553,-2.6328,-2.584,-2.5732,-2.5693,-2.5693,-2.5693,-2.5693,-2.5693,-2.8121,-2.9642,-3.0193,-3.2677,-3.4412,-3.532,-3.4474,-3.4574,0.0,0.0,0.0,0.0,0.0,0.0,0.0,0.0,0.0,0.0,0.0,-2.4334,-2.5193,0.0,-2.7382,-2.7033,-2.8012,-2.8751,-2.8634,-2.843,-2.8447,-2.8867,-2.9307,-2.9736,-3.0156,-3.0615,-3.125,-3.21,-3.2229,-3.2529,-3.3379,-3.3418,-3.3418,-3.3418,-3.3418,-3.3418,-3.3418,-3.3418,-3.3418,-3.3418,-3.3418,-3.2978,-3.2229,-3.2229,-3.1699,-3.0889,-3.0889,-3.0889,-3.0889,-3.0889,-3.0889,-3.0889,-3.0889,-3.0605,-3.0146,-2.9726,-2.9287,-2.8857,-2.8437,-2.8291,-2.8291,-2.8291,-2.8291,-2.8291,-2.8291,-2.8291,-2.8291,-2.8291,-2.8291,-2.8291,-2.8291,-2.8291,-2.8291,-2.8291,-2.8291,-2.8291,-2.8291,-2.8857,-2.9911,-3.1927,-3.2844,-3.3155,-3.2431,-3.1724,-3.0543,-2.8315,-2.7855,-2.764,-2.7373,-2.7148,-2.7012,-2.7012,-2.7012,-2.6934,-2.6719,-2.6514,-2.6201,-2.5713,-2.5693,-2.5791,-2.6055,-2.5801,-2.5791,-2.6055,-2.7877,-2.9081,-2.9606,-3.2382,-3.4135,-3.4976,-3.5376,-3.5692,0.0,0.0,0.0,0.0,0.0,0.0,0.0,0.0,-2.2678,-2.4621,-2.4696,-2.4851,-2.6378,-2.691,-2.7338,-2.7883,-2.8301,-2.8745,-2.9198,-2.8733,-2.8418,-2.876,-2.9258,-2.9707,-3.0039,-3.0566,-3.125,-3.21,-3.2229,-3.2529,-3.3379,-3.3418,-3.3418,-3.3418,-3.3418,-3.3418,-3.3418,-3.3418,-3.3418,-3.3418,-3.334,-3.29,-3.2229,-3.208,-3.1621,-3.0889,-3.0889,-3.0889,-3.0889,-3.0889,-3.0889,-3.0889,-3.0889,-3.0664,-3.0264,-2.9756,-2.9287,-2.8857,-2.8437,-2.8291,-2.8291,-2.8291,-2.8291,-2.8291,-2.8291,-2.8291,-2.8291,-2.8291,-2.8291,-2.8291,-2.8291,-2.8291,-2.8398,-2.8644,-2.8698,-2.8751,-2.9006,-2.9911,-3.1019,-3.2079,-3.3464,-3.3871,-3.2191,-3.2129,-3.1266,-2.8175,-2.7598,-2.7383,-2.6943,-2.6816,-2.6768,-2.6768,-2.6768,-2.6797,-2.6885,-2.6582,-2.6269,-2.5957,-2.5937,-2.6143,-2.6494,-2.6172,-2.6152,-2.6504,-2.7979,-2.9008,-2.9515,-3.2432,-3.4198,-3.4824,-3.5918,-3.6405,-1.8894,-1.8948,-1.9502,-2.0674,-2.0791,-2.1104,0.0,0.0,-2.335,-2.4822,-2.5889,-2.6398,-2.5942,-2.7046,-2.7855,-2.725,-2.7501,-2.7996,-2.8367,-2.8368,-2.831,-2.8359,-2.9082,-2.9646,-2.9639,-3.04,-3.125,-3.21,-3.2229,-3.2529,-3.3379,-3.3418,-3.3418,-3.3418,-3.3418,-3.3418,-3.3418,-3.3418,-3.3418,-3.3418,-3.3047,-3.2617,-3.2219,-3.1768,-3.1338,-3.0889,-3.0889,-3.0889,-3.0889,-3.0889,-3.0889,-3.0889,-3.0889,-3.0859,-3.0713,-2.9883,-2.9287,-2.8857,-2.8437,-2.8291,-2.8291,-2.8291,-2.8291,-2.8291,-2.8291,-2.8291,-2.8291,-2.8291,-2.8291,-2.8291,-2.8291,-2.8291,-2.8601,-2.9807,-3.0068,-3.0421,-3.1582,-3.1977,-3.2129,-3.228,-3.3464,-3.3563,-3.0979,-3.1531,-3.1266,-2.8175,-2.7334,-2.6934,-2.6514,-2.6123,-2.583,-2.583,-2.583,-2.5986,-2.6426,-2.6416,-2.6523,-2.6855,-2.6865,-2.6894,-2.6943,-2.6894,-2.6894,-2.6943,-2.9362,-3.0849,-3.1388,-3.3993,-3.5584,-3.6168,-3.631,-3.6405,-1.9242,-1.9855,0.0,0.0,-2.1609,-2.2236,-2.29,-2.3486,-2.4205,-2.5508,-2.5999,-2.635,-2.6723,-2.6984,-2.7142,0.0,-2.7383,-2.7812,-2.8232,-2.8291,-2.8291,-2.8291,-2.9053,-2.9626,-2.9626,-3.0371,-3.1143,-3.1748,-3.2031,-3.2432,-3.3027,-3.3291,-3.3418,-3.3418,-3.3418,-3.3418,-3.3418,-3.3418,-3.3418,-3.3418,-3.2998,-3.2578,-3.2148,-3.1719,-3.1289,-3.0889,-3.0889,-3.0889,-3.0889,-3.0889,-3.0889,-3.0889,-3.0889,-3.0889,-3.081,-3.0166,-2.9668,-2.9238,-2.8809,-2.8496,-2.8291,-2.8291,-2.8291,-2.8291,-2.8291,-2.8291,-2.8441,-2.926,-2.946,-2.966,-3.0421,-3.0618,-3.0773,-3.1327,-3.148,-3.1633,-3.218,-3.2944,-3.3514,-3.3514,-3.4617,-3.4957,-3.3005,-3.3166,-3.2485,-2.9321,-2.7779,-2.6777,-2.6094,-2.5801,-2.5781,-2.6084,-2.6113,-2.6289,-2.6719,-2.6758,-2.6826,-2.7002,-2.7012,-2.7129,-2.7383,-2.7148,-2.7139,-2.7393,-2.8482,-2.9547,-3.0532,-3.2635,-3.4196,-3.5271,-3.6061,-3.6405,-1.9805,0.0,0.0,-2.1346,-2.2155,-2.2906,-2.2881,-2.3584,-2.4572,-2.5741,-2.5738,-2.5866,-2.6867,-2.6802,-2.666,-2.6963,-2.748,-2.7949,-2.8252,-2.8601,-2.8897,-2.907,-2.9694,-3.0203,-3.0378,-3.0717,-3.1064,-3.1484,-3.1924,-3.2353,-3.2773,-3.3193,-3.3418,-3.3418,-3.3418,-3.3418,-3.3418,-3.3418,-3.3418,-3.3418,-3.2881,-3.2461,-3.2148,-3.1601,-3.1182,-3.0889,-3.0889,-3.0889,-3.0889,-3.0889,-3.0889,-3.0889,-3.0889,-3.0889,-3.085,-3.0518,-3.0039,-2.9502,-2.9072,-2.8643,-2.8291,-2.8291,-2.8291,-2.8398,-2.8751,-2.8847,-2.9154,-3.0473,-3.0865,-3.1081,-3.2028,-3.228,-3.2381,-3.2794,-3.2894,-3.2994,-3.3342,-3.4215,-3.4824,-3.4483,-3.5475,-3.5858,-3.4117,-3.4129,-3.345,-3.0658,-2.8818,-2.736,-2.6182,-2.6369,-2.6724,-2.7102,-2.7132,-2.7312,-2.7691,-2.7393,-2.7246,-2.7353,-2.7373,-2.751,-2.7822,-2.7883,-2.806,-2.8431,-2.9137,-3.0039,-3.0978,-3.2612,-3.3946,-3.4981,-3.5966,-3.6405,0.0,0.0,-2.1298,-2.1768,-2.2197,-2.2744,-2.3564,-2.3779,-2.4088,-2.4967,-2.5116,-2.5272,-2.5703,-2.6426,-2.7002,-2.7012,-2.7725,-2.8281,-2.8291,-2.9408,-3.0433,-3.0926,-3.1345,-3.1761,0.0,-3.1439,-3.1064,-3.1484,-3.1924,-3.2353,-3.2773,-3.3193,-3.3418,-3.3418,-3.3418,-3.3418,-3.3418,-3.3418,-3.3418,-3.3408,-3.2588,-3.2178,-3.2139,-3.1299,-3.0898,-3.0889,-3.0889,-3.0889,-3.0889,-3.0889,-3.0889,-3.0889,-3.0889,-3.0889,-3.0889,-3.0869,-3.0322,-2.9502,-2.9072,-2.8643,-2.8291,-2.8291,-2.8291,-2.8548,-2.9859,-3.0214,-3.0525,-3.1876,-3.223,-3.223,-3.228,-3.228,-3.2644,-3.4019,-3.4337,-3.4678,-3.6013,-3.631,-3.5953,-3.4629,-3.5475,-3.5547,-3.2833,-3.3514,-3.3756,-3.1939,-3.0471,-2.8961,-2.7174,-2.8085,-2.8911,-2.8922,-2.8922,-2.9121,-2.9593,-2.8438,-2.7875,-2.8232,-2.8252,-2.8262,-2.8271,-2.9525,-3.0234,-3.0193,-3.2833,-3.4215,-3.4264,-3.5607,-3.631,-3.6358,-3.6358,-3.6405,0.0,0.0,-2.1699,-2.1846,-2.2412,-2.2955,-2.3247,-2.3584,-2.3867,-2.416,-2.4443,-2.4766,-2.5215,-2.5771,-2.6357,-2.6924,-2.75,-2.7978,-2.8252,-2.9758,-3.0884,-3.1085,-3.2577,0.0,0.0,0.0,0.0,-3.1094,-3.1768,-3.2226,-3.2373,-3.3037,-3.3418,-3.3418,-3.3418,-3.3418,-3.3418,-3.3418,-3.3281,-3.2998,-3.2139,-3.1592,-3.1309,-3.1025,-3.0889,-3.0889,-3.0889,-3.0889,-3.0889,-3.0889,-3.0889,-3.0889,-3.0889,-3.0889,-3.0889,-3.0889,-3.0508,-2.9922,-2.9502,-2.9072,-2.8662,-2.8389,-2.8291,-2.8548,-2.9911,-3.0317,-3.0773,-3.3055,-3.3712,-3.392,-3.48,-3.4993,-3.515,-3.5607,-3.5715,-3.5858,-3.631,-3.6405,-3.6263,-3.581,-3.6108,-3.6108,-3.5198,-3.5403,-3.521,-3.3734,-3.1053,-2.9032,-2.8387,-2.8705,-2.9455,-3.0647,-3.0006,-2.9644,-3.0055,-2.889,-2.8144,-2.8281,-2.9154,-2.9608,-2.9608,-3.0916,-3.1633,-3.1633,-3.2543,-3.3464,-3.4385,-3.4824,-3.5523,-3.6405,-3.6405,-3.6405,-2.0333,-2.1511,-2.2462,-2.2462,-2.3398,-2.4221,-2.38,-2.3944,-2.4107,-2.3849,-2.4004,-2.4365,-2.5008,-2.5439,-2.5966,-2.6875,-2.751,-2.8037,-2.8457,-3.0543,-3.2146,-3.2318,-3.4314,-3.5684,0.0,0.0,0.0,-3.174,-3.2166,-3.2324,-3.2238,-3.2969,-3.3418,-3.3418,-3.3418,-3.335,-3.3203,-3.3203,-3.291,-3.2334,-3.1777,-3.1299,-3.0889,-3.0889,-3.0889,-3.0889,-3.0889,-3.0889,-3.0889,-3.0889,-3.0889,-3.0889,-3.0889,-3.0889,-3.0889,-3.0889,-3.0703,-3.0381,-2.9941,-2.9414,-2.8877,-2.8603,-2.872,-2.925,-3.0618,-3.1389,-3.2241,-3.4459,-3.5126,-3.5319,-3.6168,-3.6405,-3.6405,-3.6405,-3.6405,-3.6405,-3.6405,-3.6405,-3.6405,-3.6405,-3.6405,-3.6405,-3.6405,-3.6405,-3.5966,-3.4581,-3.2408,-3.0773,-3.0216,-3.0614,-3.1388,-3.2551,-3.1883,-3.1455,-3.1763,-3.0068,-2.9207,-2.9713,-3.0068,-3.0514,-3.0968,-3.2342,-3.3055,-3.3055,-3.354,-3.4203,-3.5126,-3.5126,-3.5571,-3.6405,-3.6405,-3.6405,-2.0352,-2.2075,-2.3492,-2.3572,-2.5047,-2.6224,-2.5126,-2.483,-2.4624,-2.3964,-2.3814,-2.4043,-2.493,0.0,-2.5966,-2.6875,-2.7734,-2.8491,-2.8966,-3.1784,-3.4075,0.0,0.0,0.0,0.0,0.0,0.0,-3.3374,0.0,-3.2617,-3.2217,-3.2949,-3.3389,-3.3389,-3.3369,-3.3164,-3.2764,-3.2744,-3.2324,-3.1514,-3.1494,-3.1279,-3.0889,-3.0889,-3.0889,-3.0889,-3.0889,-3.0889,-3.0889,-3.0889,-3.0889,-3.0889,-3.0889,-3.0889,-3.0889,-3.0889,-3.0889,-3.083,-3.0391,-2.9687,-2.8975,-2.899,-2.9624,-3.0608,-3.1988,-3.3353,-3.4678,-3.6013,-3.6405,-3.6405,-3.6405,-3.6405,-3.6405,-3.6405,-3.6405,-3.6405,-3.6405,-3.6405,-3.6405,-3.6405,-3.6405,-3.6405,-3.6405,-3.6405,-3.5966,-3.4678,-3.4483,-3.397,-3.2593,-3.3563,-3.4434,-3.4483,-3.4434,-3.4385,-3.4385,-3.1938,-3.0979,-3.223,-3.1173,-3.1081,-3.2331,-3.3761,-3.4483,-3.4483,-3.5763,-3.6405,-3.6405,-3.6405,-3.6405,-3.6405,-3.6405,-3.6405,-2.1072,-2.2564,-2.3692,-2.4445,-2.5583,-2.6431,-2.6141,-2.542,-2.4734,-2.4569,-2.4155,-2.3955,-2.4482,0.0,0.0,-2.6875,-2.7734,0.0,-3.0319,-3.2759,0.0,-3.6069,0.0,-3.9352,-3.9897,-3.7592,0.0,0.0,-3.394,-3.2754,-3.2637,-3.2842,-3.2949,-3.2949,-3.2656,-3.2441,-3.2324,-3.2012,-3.1728,-3.1514,-3.1201,-3.0996,-3.0889,-3.0889,-3.0889,-3.0889,-3.0889,-3.0889,-3.0889,-3.0889,-3.0889,-3.0889,-3.0889,-3.0889,-3.0889,-3.0889,-3.0889,-3.0869,-3.0752,-3.0342,-2.9924,-3.0336,-3.0629,-3.1189,-3.3231,-3.4129,-3.4678,-3.6013,-3.6405,-3.6405,-3.6405,-3.6405,-3.6405,-3.6405,-3.6405,-3.6405,-3.6405,-3.6405,-3.6405,-3.6405,-3.6405,-3.6405,-3.6405,-3.6405,-3.6263,-3.5966,-3.5918,-3.5415,-3.4019,-3.4178,-3.4775,-3.5763,-3.4981,-3.4385,-3.4385,-3.2805,-3.1927,-3.228,-3.2955,-3.3525,-3.3871,-3.5162,-3.5918,-3.5918,-3.6216,-3.6405,-3.6405,-3.6405,-3.6405,-3.6405,-3.6405,-3.6405,-2.1263,-2.3097,-2.4484,-2.5447,-2.6815,-2.774,-2.7013,-2.6538,-2.6052,-2.5306,-2.4824,0.0,-2.5048,-2.53,0.0,0.0,0.0,0.0,-3.1113,-3.3453,-3.5458,0.0,-3.8881,0.0,-4.0488,-3.8161,-3.663,0.0,-3.4304,-3.2715,-3.2529,-3.2519,-3.2519,-3.2519,-3.2295,-3.21,-3.1883,-3.1475,-3.124,-3.124,-3.1006,-3.0889,-3.0889,-3.0889,-3.0889,-3.0889,0.0,-3.0889,-3.0889,-3.0889,-3.0889,-3.0889,-3.0889,-3.0889,-3.0889,-3.0889,-3.0889,-3.0995,-3.1662,-3.1513,-3.1111,-3.1221,-3.1824,-3.2712,-3.4014,-3.4824,-3.5415,-3.6216,-3.6405,-3.6405,-3.6405,-3.6405,-3.6405,-3.6405,-3.6405,-3.6405,-3.6405,-3.6405,-3.6405,-3.6405,-3.6405,-3.6405,-3.6405,-3.6405,-3.6405,-3.6405,-3.6405,-3.6108,-3.5367,-3.5271,-3.5571,-3.631,-3.5715,-3.5271,-3.5271,-3.4007,-3.3453,-3.4044,-3.4276,-3.4678,-3.5271,-3.6013,-3.6405,-3.6405,-3.6405,-3.6405,-3.6405,-3.6405,-3.6405,-3.6405,-3.6405,-3.6405,-2.1385,-2.3727,-2.5492,-2.6609,-2.8344,-2.9409,-2.7965,-2.7881,-2.7674,-2.6222,0.0,-2.5633,-2.6041,-2.5647,-2.5625,-2.6816,0.0,-2.9413,-3.1782,-3.4075,-3.6028,-3.7624,-3.9327,-4.0438,-4.0513,-3.8323,-3.6837,-3.6733,-3.436,-3.2726,-3.2248,-3.2119,-3.206,-3.2002,-3.2002,-3.1855,-3.1433,-3.1054,-3.0889,-3.0889,-3.0889,-3.0889,-3.0889,-3.0889,-3.0889,-3.0889,-3.0889,-3.0889,-3.0889,-3.0889,-3.0889,-3.0889,-3.0889,-3.0889,-3.0889,-3.0889,-3.0995,-3.1383,-3.2644,-3.2889,-3.2636,-3.2296,-3.3193,-3.4518,-3.4653,-3.5475,-3.6405,-3.6405,-3.6405,-3.6405,-3.6405,-3.6405,-3.6405,-3.6405,-3.6405,-3.6405,-3.6405,-3.6405,-3.6405,-3.6405,-3.6405,-3.6405,-3.6405,-3.6405,-3.6405,-3.6405,-3.6405,-3.6405,-3.6405,-3.6405,-3.6405,-3.6405,-3.6405,-3.6405,-3.6405,-3.5319,-3.5174,-3.631,-3.5319,-3.5174,-3.6358,-3.6405,-3.6405,-3.6405,-3.6405,-3.6405,-3.6405,-3.6405,-3.6405,-3.6405,-3.6405,-3.6405,-2.2715,-2.4518,-2.5727,-2.7961,-2.9163,-2.9715,-2.9409,-2.8706,0.0,0.0,0.0,-2.602,-2.6104,-2.6161,-2.6348,-2.6924,0.0,0.0,0.0,0.0,-3.7159,0.0,0.0,0.0,0.0,0.0,0.0,0.0,0.0,-3.3168,-3.227,-3.1826,-3.1475,-3.1123,-3.1113,-3.1084,-3.1016,-3.0937,-3.0889,-3.0889,-3.0889,-3.0889,-3.0889,-3.0889,-3.0889,-3.0889,-3.0889,0.0,-3.0889,-3.0889,-3.0889,-3.0889,-3.0889,-3.0889,-3.0889,-3.0889,-3.1662,-3.2747,-3.3021,-3.3988,-3.519,-3.5097,-3.4985,-3.5032,-3.5803,-3.6216,-3.6405,-3.6405,-3.6405,-3.6405,-3.6405,-3.6405,-3.6405,-3.6405,-3.6405,-3.6405,-3.6405,-3.6405,-3.6405,-3.6405,-3.6405,-3.6405,-3.6405,-3.6405,-3.6405,-3.6405,-3.6405,-3.6405,-3.6405,-3.6405,-3.6405,-3.6405,-3.6405,-3.6405,-3.6405,-3.6216,-3.6156,-3.6405,-3.6156,-3.6156,-3.6405,-3.6405,-3.6405,-3.6405,-3.6405,-3.6405,-3.6405,-3.6405,-3.6405,-3.6405,-3.6405,-3.6405,-2.3377,-2.5082,-2.6177,-2.8987,-3.0107,-3.058,-3.0787,0.0,0.0,0.0,0.0,-2.693,-2.693,0.0,0.0,0.0,0.0,0.0,0.0,0.0,0.0,0.0,0.0,0.0,0.0,0.0,0.0,0.0,0.0,-3.2929,-3.1857,-3.1426,-3.1103,-3.0898,-3.0889,-3.0889,-3.0889,-3.0889,-3.0889,-3.0889,-3.0889,-3.0889,-3.0889,-3.0889,-3.0889,-3.0889,-3.0889,-3.0889,-3.0889,-3.0889,-3.0889,-3.0889,-3.0889,-3.0889,-3.0889,-3.0889,-3.1815,-3.3191,-3.3957,-3.5131,-3.6375,-3.7181,-3.6834,-3.6211,-3.6668,-3.6832,-3.6832,-3.6832,-3.6631,-3.6405,-3.6405,-3.6405,-3.6405,-3.6405,-3.6405,-3.6405,-3.6405,-3.6405,-3.6405,-3.6405,-3.6405,-3.6405,-3.6405,-3.6405,-3.6405,-3.6405,-3.6405,-3.6405,-3.6405,-3.6405,-3.6405,-3.6405,-3.6405,-3.6405,-3.6405,-3.6405,-3.6405,-3.6405,-3.6405,-3.6405,-3.6405,-3.6405,-3.6405,-3.6405,-3.6405,-3.6405,-3.6405,-3.6405,-3.6405,-3.6405,-3.6405,-3.6405,-2.3949,-2.5645,-2.687,-2.9988,-3.1139,-3.1625,-3.2095,-3.1681,0.0,0.0,-2.9141,-2.7721,-2.7876,0.0,0.0,0.0,0.0,0.0,0.0,0.0,0.0,0.0,0.0,0.0,0.0,0.0,0.0,0.0,0.0,-3.2245,-3.1426,-3.1064,-3.0889,-3.0889,-3.0889,-3.0889,-3.0889,-3.0889,-3.0889,-3.0889,-3.0889,-3.0889,-3.0889,-3.0889,-3.0889,-3.0889,-3.0889,-3.0889,-3.0889,-3.0889,-3.0889,-3.0889,-3.0889,-3.0889,-3.0889,-3.0889,-3.2045,-3.3744,-3.4902,-3.611,-3.7339,-3.854,-3.8191,-3.7362,-3.7362,-3.7362,-3.7337,-3.7211,-3.692,-3.6556,-3.6443,-3.6405,-3.6405,-3.6405,-3.6405,-3.6405,-3.6405,-3.6405,-3.6405,-3.6405,-3.6405,-3.6405,-3.6405,-3.6405,-3.6405,-3.6405,-3.6405,-3.6405,-3.6405,-3.6405,-3.6405,-3.6405,-3.6405,-3.6405,-3.6405,-3.6405,-3.6405,-3.6405,-3.6405,-3.6405,-3.6405,-3.6405,-3.6405,-3.6405,-3.6405,-3.6405,-3.6405,-3.6405,-3.6405,-3.6405,-3.6405,-3.6405,-2.4697,-2.6389,-2.7849,-3.1224,-3.2266,-3.2624,-3.3301,0.0,0.0,-3.1749,-2.9637,-2.7876,-2.8433,-2.7917,-2.7593,0.0,0.0,0.0,0.0,0.0,0.0,0.0,0.0,0.0,0.0,0.0,0.0,0.0,0.0,-3.1073,-3.0947,-3.0918,-3.0889,-3.0889,-3.0889,-3.0889,-3.0889,-3.0889,-3.0889,-3.0889,-3.0889,-3.0889,-3.0889,-3.0889,-3.0889,-3.0889,-3.0889,-3.0889,0.0,-3.0889,-3.0889,-3.0889,-3.0889,-3.0889,-3.0889,-3.0889,-3.2654,-3.5123,-3.5233,-3.6761,-3.8704,-3.8868,-3.8442,-3.7939,-3.7939,-3.7939,-3.7826,-3.7324,-3.7149,-3.6998,-3.6543,-3.6405,-3.6405,-3.6405,-3.6405,-3.6405,-3.6405,-3.6405,-3.6405,-3.6405,-3.6405,-3.6405,-3.6405,-3.6405,-3.6405,-3.6405,-3.6405,-3.6405,-3.6405,-3.6405,-3.6405,-3.6405,-3.6405,-3.6405,-3.6405,-3.6405,-3.6405,-3.6405,-3.6405,-3.6405,-3.6405,-3.6405,-3.6405,-3.6405,-3.6405,-3.6405,-3.6405,-3.6405,-3.6405,-3.6405,-3.6405,-3.6405,-2.536,-2.7667,-2.9793,-3.2393,-3.3857,-3.4854,-3.5693,0.0,-3.3196,-3.3403,-3.0684,-2.8565,-2.9519,-2.8536,-2.8351,0.0,-3.2337,-3.4551,0.0,0.0,0.0,0.0,0.0,0.0,0.0,0.0,0.0,0.0,0.0,-3.1825,-3.0947,-3.0889,-3.0889,-3.0889,-3.0889,-3.0889,-3.0889,-3.0889,-3.0889,-3.0889,-3.0889,-3.0889,-3.0889,-3.0889,-3.0889,-3.0889,-3.0889,-3.0889,0.0,-3.0889,-3.1441,-3.215,-3.1276,-3.1441,-3.2207,-3.2207,-3.3529,-3.5409,-3.6325,-3.7834,-3.9371,-3.9371,-3.9207,-3.8956,-3.863,-3.853,-3.8479,-3.8266,-3.7713,-3.7136,-3.6958,-3.6656,-3.6405,-3.6405,-3.6405,-3.6405,-3.6405,-3.6405,-3.6405,-3.6405,-3.6405,-3.6405,-3.6405,-3.6405,-3.6405,-3.6405,-3.6405,-3.6405,-3.6405,-3.6405,-3.6405,-3.6405,-3.6405,-3.6405,-3.6405,-3.6405,-3.6405,-3.6405,-3.6405,-3.6405,-3.6405,-3.6405,-3.6405,-3.6405,-3.6405,-3.6405,-3.6405,-3.6405,-3.6405,-3.6405,-3.6405,-3.6405,-2.6483,-2.9193,-3.1878,-3.4385,-3.6105,-3.7334,0.0,0.0,-3.5145,-3.475,-3.1671,-2.9378,-3.0454,-2.95,-2.9545,0.0,-3.4041,-3.6085,-3.9033,0.0,0.0,0.0,0.0,0.0,0.0,0.0,0.0,0.0,0.0,0.0,-3.1005,-3.0889,-3.0889,-3.0889,-3.0889,-3.0889,-3.0889,-3.0889,-3.0889,-3.0889,-3.0889,-3.0889,-3.0889,-3.0889,-3.0889,-3.0889,-3.0889,-3.0889,0.0,-3.0889,-3.1767,-3.3021,-3.1988,-3.2426,-3.3744,-3.3744,-3.4681,-3.6108,-3.7133,-3.8465,-3.9697,-3.9697,-3.9697,-3.9622,-3.9233,-3.912,-3.9095,-3.8718,-3.7814,-3.6935,-3.6935,-3.6694,-3.6405,-3.6405,-3.6405,-3.6405,-3.6405,-3.6405,-3.6405,-3.6405,-3.6405,-3.6405,-3.6405,-3.6405,-3.6405,-3.6405,-3.6405,-3.6405,-3.6405,-3.6405,-3.6405,-3.6405,-3.6405,-3.6405,-3.6405,-3.6405,-3.6405,-3.6405,-3.6405,-3.6405,-3.6405,-3.6405,-3.6405,-3.6405,-3.6405,-3.6405,-3.6405,-3.6405,-3.6405,-3.6405,-3.6405,-3.6405,-2.814,-3.097,-3.3987,-3.7391,-3.9131,-3.9923,0.0,-3.8437,-3.6896,-3.5557,-3.257,-3.0383,-3.1092,-3.106,-3.136,-3.2621,-3.5721,-3.8629,-4.051,0.0,0.0,0.0,0.0,0.0,0.0,0.0,0.0,0.0,0.0,0.0,-3.1005,-3.0889,-3.0889,-3.0889,-3.0889,-3.0889,-3.0889,-3.0889,-3.0889,-3.0889,-3.0889,-3.0889,-3.0889,-3.0889,-3.0889,-3.0889,-3.0889,-3.0889,0.0,-3.0889,-3.1767,-3.3077,-3.3077,-3.3957,-3.53,-3.53,-3.6217,-3.7465,-3.7518,-3.8465,-3.9697,-3.9697,-3.9697,-3.9697,-3.9685,-3.9685,-3.9446,-3.8329,-3.7224,-3.6417,-3.6417,-3.6417,-3.6405,-3.6405,-3.6405,-3.6405,-3.6405,-3.6405,-3.6405,-3.6405,-3.6405,-3.6405,-3.6405,-3.6405,-3.6405,-3.6405,-3.6405,-3.6405,-3.6405,-3.6405,-3.6405,-3.6405,-3.6405,-3.6405,-3.6405,-3.6405,-3.6405,-3.6405,-3.6405,-3.6405,-3.6405,-3.6405,-3.6405,-3.6405,-3.6405,-3.6405,-3.6405,-3.6405,-3.6405,-3.6405,-3.6405,-3.6405,-2.891,-3.2121,-3.5451,-3.7178,-3.952,-4.1183,-4.0538,-3.8858,-3.7147,-3.6125,-3.3251,-3.1443,-3.3246,-3.2855,-3.339,-3.7016,-3.8885,0.0,0.0,0.0,0.0,0.0,0.0,0.0,0.0,0.0,0.0,0.0,0.0,0.0,-3.1005,-3.0889,-3.0889,-3.0889,-3.0889,-3.0889,-3.0889,-3.0889,-3.0889,-3.0889,-3.0889,-3.0889,-3.0889,-3.0889,-3.0889,-3.0889,-3.0889,-3.0889,-3.0889,-3.0889,-3.1767,-3.3077,-3.3077,-3.4024,-3.5398,-3.6433,-3.7079,-3.7624,-3.8635,-3.931,-3.9697,-3.9697,-3.9697,-3.9622,-3.9245,-3.9132,-3.8894,-3.7764,-3.7199,-3.6835,-3.6505,-3.6405,-3.6405,-3.6405,-3.6405,-3.6405,-3.6405,-3.6405,-3.6405,-3.6405,-3.6405,-3.6405,-3.6405,-3.6405,-3.6405,-3.6405,-3.6405,-3.6405,-3.6405,-3.6405,-3.6405,-3.6405,-3.6405,-3.6405,-3.6405,-3.6405,-3.6405,-3.6405,-3.6405,-3.6405,-3.6405,-3.6405,-3.6405,-3.6405,-3.6405,-3.6405,-3.6405,-3.6405,-3.6405,-3.6405,-3.6405,-3.6405,0.0,-3.3787,-3.7267,-3.8714,-4.104,-4.2676,-4.1462,-4.0178,-3.8625,-3.6626,-3.4492,-3.3381,-3.4472,-3.4312,-3.5195,-3.8825,-3.9928,0.0,0.0,0.0,0.0,0.0,0.0,0.0,0.0,0.0,0.0,0.0,0.0,0.0,-3.1883,-3.1218,-3.0889,-3.0889,-3.0889,-3.0889,-3.0889,-3.0889,-3.0889,-3.0889,-3.0889,-3.0889,-3.0889,-3.0889,-3.0889,-3.0889,-3.0889,-3.0889,0.0,-3.0889,-3.1767,-3.3191,-3.3687,-3.4836,-3.6325,-3.7808,-3.8348,-3.8465,-3.9362,-3.9697,-3.9697,-3.9697,-3.9546,-3.9245,-3.8467,-3.8241,-3.809,-3.7374,-3.7036,-3.6845,-3.6505,-3.6405,-3.6405,-3.6405,-3.6405,-3.6405,-3.6405,-3.6405,-3.6405,-3.6405,-3.6405,-3.6405,-3.6405,-3.6405,-3.6405,-3.6405,-3.6405,-3.6405,-3.6405,-3.6593,-3.6631,-3.643,-3.6593,-3.6631,-3.643,-3.6405,-3.6405,-3.6405,-3.6405,-3.6405,-3.6405,-3.6405,-3.6405,-3.6405,-3.6405,-3.6405,-3.6405,-3.6405,-3.6405,-3.6405,-3.6405,-3.6405,0.0,-3.5824,-3.9106,-4.1294,-4.315,-4.396,-4.2284,-4.1853,0.0,-3.6961,-3.6113,-3.577,-3.5006,-3.5614,-3.6794,-3.8706,0.0,0.0,0.0,0.0,0.0,0.0,0.0,0.0,0.0,0.0,0.0,0.0,0.0,0.0,-3.3191,-3.171,-3.0889,-3.0889,-3.0859,-3.084,-3.084,-3.0869,-3.0869,-3.084,-3.0869,-3.0889,-3.0889,-3.0889,-3.0889,0.0,-3.0889,-3.0889,-3.0889,-3.0889,-3.171,-3.3077,-3.4681,-3.6162,-3.7518,-3.9141,-3.9697,-3.9697,-3.9697,-3.9697,-3.9685,-3.9647,-3.9233,-3.8555,-3.75,-3.7186,-3.7174,-3.7136,-3.6807,-3.6405,-3.6405,-3.6405,-3.6405,-3.6405,-3.6405,-3.6405,-3.6405,-3.6405,-3.6405,-3.6405,-3.6405,-3.6405,-3.6405,-3.6405,-3.6405,-3.6405,-3.6405,-3.6417,-3.6468,-3.6908,-3.6998,-3.6568,-3.6958,-3.6973,-3.6505,-3.643,-3.6405,-3.6405,-3.6405,-3.6405,-3.6405,-3.6405,-3.6405,-3.6405,-3.6405,-3.6405,-3.6405,-3.6405,-3.6405,-3.6405,-3.6405,-3.6405,-3.5983,0.0,-3.8659,-3.9924,-4.1438,-4.2347,0.0,-4.0377,-3.9095,0.0,0.0,-3.6269,-3.6564,-3.7461,-3.8775,-4.0665,0.0,0.0,0.0,0.0,0.0,0.0,0.0,0.0,0.0,0.0,0.0,0.0,0.0,-3.4681,-3.3191,-3.171,-3.0889,-3.0889,-3.0547,-3.0361,-3.0361,-3.0713,-3.0713,-3.0361,-3.0723,-3.0889,-3.0889,-3.0889,-3.0889,-3.0889,-3.0889,-3.0889,-3.0889,-3.0889,-3.1112,-3.1662,-3.4303,-3.5508,-3.6108,-3.8752,-3.9697,-3.9697,-3.9697,-3.9697,-3.9622,-3.9195,-3.8391,-3.7525,-3.7262,-3.7186,-3.7098,-3.6719,-3.6505,-3.6405,-3.6405,-3.6405,-3.6405,-3.6405,-3.6405,-3.6405,-3.6405,-3.6405,-3.6405,-3.6405,-3.6405,-3.6405,-3.6405,-3.6405,-3.6405,-3.6405,-3.6405,-3.6568,-3.6935,-3.7098,-3.7299,-3.7588,-3.7362,-3.7136,-3.6998,-3.6656,-3.6405,-3.6405,-3.6405,-3.6405,-3.6405,-3.6405,-3.6405,-3.6405,-3.6405,-3.6405,-3.6405,-3.6405,-3.6405,-3.6405,-3.6405,-3.6405,-3.8097,-3.8736,-3.9589,-4.0418,-4.1551,-4.2216,-4.1376,0.0,0.0,0.0,0.0,0.0,-3.647,-3.7312,0.0,0.0,0.0,0.0,0.0,0.0,0.0,0.0,0.0,0.0,0.0,0.0,0.0,0.0,0.0,-3.5934,-3.5156,-3.3744,-3.2778,-3.2502,-3.2232,-3.1503,-3.0195,-3.0254,-3.0166,-2.9912,-3.0361,-3.0576,-3.0576,-3.0576,-3.0576,-3.0576,-3.0576,-3.0576,-3.0596,-3.0801,-3.0889,-3.116,-3.4136,-3.5288,-3.5683,-3.8594,-3.9697,-3.9697,-3.9697,-3.9534,-3.9182,-3.8366,-3.7676,-3.7136,-3.6933,-3.6857,-3.6795,-3.6493,-3.6405,-3.6405,-3.6405,-3.6405,-3.6405,-3.6405,-3.6405,-3.6405,-3.6405,-3.6405,-3.6405,-3.6405,-3.6405,-3.6405,-3.6405,-3.6405,-3.6405,-3.6405,-3.6405,-3.6606,-3.7111,-3.74,-3.7676,-3.7977,-3.7977,-3.7751,-3.7224,-3.691,-3.6681,-3.643,-3.6405,-3.6405,-3.6405,-3.6405,-3.6405,-3.6405,-3.6405,-3.6405,-3.6405,-3.6405,-3.6405,-3.6405,-3.6405,-3.6543,-3.9766,-4.0183,-4.0901,-4.1267,-4.2084,-4.259,-4.1743,0.0,0.0,0.0,0.0,0.0,0.0,0.0,0.0,0.0,0.0,0.0,0.0,0.0,0.0,0.0,0.0,0.0,0.0,0.0,0.0,0.0,0.0,-3.7518,-3.7518,-3.6028,-3.492,-3.4441,-3.4274,-3.3019,-3.0648,-3.0358,-3.0067,-2.9796,-3.0221,-3.0315,-3.0098,-3.0098,-3.0098,-3.0107,0.0,0.0,-3.0234,-3.0703,-3.0889,-3.117,-3.3923,-3.5068,-3.5629,-3.8372,-3.9467,-3.9546,-3.9471,-3.9082,-3.8454,-3.75,-3.7123,-3.6973,-3.6556,-3.6405,-3.6405,-3.6405,-3.6405,-3.6405,-3.6405,-3.6405,-3.6405,-3.6405,-3.6405,-3.6405,-3.6405,-3.6405,-3.6405,-3.6405,-3.6405,-3.6405,-3.6405,-3.6405,-3.6405,-3.6405,-3.6405,-3.6631,-3.7224,-3.7713,-3.8078,-3.8241,-3.863,-3.8529,-3.7525,-3.7287,-3.6985,-3.6568,-3.6455,-3.6405,-3.6405,-3.6405,-3.6405,-3.6405,-3.6405,-3.6405,-3.6405,-3.6405,-3.6405,-3.6405,-3.6405,-3.6656,-4.0323,-4.0763,-4.1039,-4.0016,-4.0852,-4.1728,0.0,0.0,0.0,0.0,0.0,0.0,0.0,0.0,0.0,0.0,0.0,0.0,0.0,0.0,0.0,0.0,0.0,0.0,0.0,0.0,0.0,0.0,0.0,-3.7518,-3.7518,-3.563,-3.4508,-3.4419,-3.3626,-3.2993,-3.2564,-3.284,-3.2233,-3.0815,-3.1208,-3.0786,-2.9668,-2.9668,-2.9668,-2.9687,0.0,-3.0195,-3.0234,-3.0703,-3.0889,-3.1054,-3.2747,-3.4181,-3.5508,-3.7198,-3.8341,-3.8931,-3.8429,-3.7902,-3.7412,-3.7249,-3.6872,-3.6518,-3.643,-3.6405,-3.6405,-3.6405,-3.6405,-3.6405,-3.6405,-3.6405,-3.6405,-3.6405,-3.6405,-3.6405,-3.6405,-3.6405,-3.6405,-3.6405,-3.6405,-3.6405,-3.6405,-3.6405,-3.6405,-3.6405,-3.6405,-3.6782,-3.7751,-3.7952,-3.8366,-3.9333,-3.9094,-3.8856,-3.868,-3.7726,-3.7149,-3.7061,-3.6669,-3.6405,-3.6405,-3.6405,-3.6405,-3.6405,-3.6405,-3.6405,-3.6405,-3.6405,-3.6405,-3.6405,-3.6405,-3.6455,-3.9847,-3.9936,-4.0222,-4.1064,-4.2083,-4.2878,0.0,0.0,0.0,0.0,0.0,0.0,0.0,0.0,0.0,0.0,0.0,0.0,0.0,0.0,0.0,0.0,0.0,0.0,0.0,0.0,0.0,0.0,0.0,0.0,-3.827,-3.7368,-3.6534,-3.5911,-3.5485,-3.5141,-3.4854,-3.4283,-3.2902,-3.0643,-3.1051,-3.0537,-2.9219,-2.9219,-2.9219,-2.9228,0.0,-2.9639,-2.9893,-3.0332,-3.0664,-3.1054,-3.253,-3.3519,-3.4371,-3.6335,-3.7828,-3.8793,-3.7864,-3.74,-3.7136,-3.6835,-3.6619,-3.6405,-3.6405,-3.6405,-3.6405,-3.6405,-3.6405,-3.6405,-3.6405,-3.6405,-3.6405,-3.6405,-3.6405,-3.6405,-3.6405,-3.6405,-3.6405,-3.6405,-3.6405,-3.6405,-3.6405,-3.6405,-3.6405,-3.6405,-3.6669,-3.7098,-3.7902,-3.8278,-3.8793,-3.9609,-3.9471,-3.9195,-3.8944,-3.8103,-3.7374,-3.6772,-3.6556,-3.6405,-3.6405,-3.6405,-3.6405,-3.6405,-3.6405,-3.6405,-3.6405,-3.6405,-3.6405,-3.6405,-3.6405,-3.6568,-3.9544,-3.9207,-3.951,-4.2432,0.0,-4.3981,0.0,0.0,0.0,0.0,0.0,0.0,0.0,0.0,0.0,0.0,0.0,0.0,0.0,0.0,0.0,0.0,0.0,0.0,0.0,0.0,0.0,0.0,0.0,0.0,-3.8944,-3.8668,-3.8078,-3.7211,-3.7061,-3.6832,-3.6417,-3.5078,-3.3166,-3.0773,-3.0832,-3.013,-2.8769,-2.8769,-2.8769,-2.8779,-2.8877,-2.917,-2.96,-3.0019,-3.0469,-3.1005,-3.215,-3.2901,-3.3675,-3.5735,-3.7341,-3.8378,-3.7337,-3.6998,-3.6923,-3.6543,-3.6405,-3.6405,-3.6405,-3.6405,-3.6405,-3.6405,-3.6405,-3.6405,-3.6405,-3.6405,-3.6405,-3.6405,-3.6405,-3.6452,-3.6756,-3.6803,-3.6803,-3.6803,-3.6803,-3.6709,-3.6452,-3.6405,-3.6405,-3.6405,-3.6769,-3.7236,-3.7914,-3.8391,-3.8931,-3.9622,-3.9697,-3.9421,-3.873,-3.814,-3.74,-3.6468,-3.6405,-3.6405,-3.6405,-3.6405,-3.6405,-3.6405,-3.6405,-3.6405,-3.6405,-3.6405,-3.6405,-3.6405,-3.6405,-3.6631,-4.0098,-3.9583,-3.9648,-4.3135,0.0,0.0,0.0,0.0,0.0,0.0,0.0,0.0,0.0,0.0,0.0,0.0,0.0,0.0,0.0,0.0,0.0,0.0,0.0,0.0,0.0,0.0,0.0,0.0,0.0,0.0,-3.8919,-3.7877,-3.7262,-3.7186,-3.6732,-3.6455,-3.6405,-3.5078,-3.3613,-3.2129,-3.0908,-2.9659,-2.834,-2.834,-2.834,-2.8359,-2.875,-2.917,-2.96,-3.0019,-3.0469,-3.0889,-3.0995,-3.2385,-3.4419,-3.5474,-3.65,-3.7224,-3.6669,-3.6468,-3.6455,-3.6417,-3.6405,-3.6405,-3.6405,-3.6405,-3.6405,-3.6405,-3.6405,-3.6405,-3.6405,-3.6405,-3.6405,-3.6405,-3.6405,-3.6675,-3.7756,-3.7984,-3.7984,-3.7984,-3.7984,-3.7632,-3.6581,-3.6405,-3.6405,-3.6405,-3.6443,-3.6857,-3.7864,-3.804,-3.8479,-3.9572,-3.9697,-3.9258,-3.8165,-3.7563,-3.6998,-3.6455,-3.6405,-3.6405,-3.6405,-3.6405,-3.6405,-3.6405,-3.6405,-3.6405,-3.6405,-3.6405,-3.6405,-3.6405,-3.6405,-3.643,-3.7715,-3.7813,-3.8525,-4.1608,0.0,0.0,0.0,0.0,0.0,0.0,0.0,0.0,0.0,0.0,0.0,0.0,0.0,0.0,0.0,0.0,0.0,0.0,0.0,0.0,0.0,0.0,0.0,0.0,0.0,0.0,-3.7839,-3.7412,-3.7023,-3.6732,-3.6518,-3.6405,-3.6405,-3.4203,-3.2844,-3.228,-3.0916,-2.9608,-2.8291,-2.8291,-2.8291,-2.8301,-2.8457,-2.8769,-2.918,-2.9336,-2.9824,-3.0459,-3.0459,-3.2095,-3.4383,-3.4123,-3.5401,-3.7098,-3.6606,-3.6405,-3.6405,-3.6405,-3.6405,-3.6405,-3.6405,-3.6405,-3.6405,-3.6405,-3.6405,-3.6405,-3.6405,-3.6405,-3.6405,-3.6405,-3.693,-3.7586,-3.803,-3.8693,-3.9227,-3.9227,-3.8898,-3.8464,-3.8026,-3.7652,-3.7262,-3.6971,-3.7161,-3.7538,-3.7952,-3.8316,-3.8843,-3.9609,-3.9383,-3.8868,-3.8078,-3.75,-3.6996,-3.6443,-3.6405,-3.6405,-3.6405,-3.6405,-3.6405,-3.6405,-3.6405,-3.6405,-3.6405,-3.6405,-3.6405,-3.6405,-3.6405,-3.6405,-3.6462,-3.6577,-3.7329,0.0,0.0,0.0,0.0,0.0,0.0,0.0,0.0,0.0,0.0,0.0,0.0,0.0,0.0,0.0,0.0,0.0,0.0,0.0,0.0,0.0,0.0,0.0,0.0,0.0,0.0,0.0,0.0,-3.7023,-3.6795,-3.6417,-3.6405,-3.6216,-3.5763,-3.3441,-3.2079,-3.1622,-3.0317,-2.9207,-2.8291,-2.8291,-2.8291,-2.8291,-2.8291,-2.8535,-2.8916,-2.8916,-2.9346,-3.0,-3.0,-3.164,-3.3883,-3.3224,-3.4666,-3.6872,-3.6543,-3.6405,-3.6405,-3.6405,-3.6405,-3.6405,-3.6405,-3.6405,-3.6405,-3.6405,-3.6405,-3.6405,-3.6405,-3.6405,-3.6499,-3.6849,-3.754,-3.8289,-3.9067,-3.9871,-4.0447,-4.0447,-3.9912,-3.9367,-3.8965,-3.8271,-3.7613,-3.7249,-3.7362,-3.755,-3.7726,-3.8241,-3.8818,-3.9371,-3.8781,-3.8178,-3.7776,-3.7249,-3.6835,-3.6681,-3.6669,-3.6669,-3.6669,-3.6669,-3.6757,-3.6872,-3.6933,-3.6933,-3.6933,-3.6933,-3.6933,-3.6933,-3.6933,-3.6784,-3.707,-3.6303,0.0,0.0,0.0,0.0,0.0,0.0,0.0,0.0,0.0,0.0,0.0,0.0,0.0,0.0,0.0,0.0,0.0,0.0,0.0,0.0,0.0,0.0,0.0,0.0,0.0,0.0,0.0,0.0,0.0,-3.6707,-3.6405,-3.6405,-3.6405,-3.5763,-3.4434,-3.2994,-3.1633,-3.0266,-2.8953,-2.8291,-2.8291,-2.8291,-2.8291,-2.8291,-2.8291,-2.8525,-2.8916,-2.8916,-2.917,-2.956,-2.956,-3.0988,-3.2978,-3.2978,-3.4431,-3.6358,-3.6405,-3.6405,-3.6405,-3.6405,-3.6405,-3.6405,-3.6405,-3.6405,-3.6405,-3.6405,-3.6405,-3.6405,-3.6405,-3.6405,-3.6709,-3.7848,-3.8107,-3.8769,-4.1112,-4.1587,-4.1629,-4.1629,-4.1125,-4.0308,-3.9117,-3.795,-3.7199,-3.7199,-3.6769,-3.6619,-3.7111,-3.7663,-3.8228,-3.8856,-3.7864,-3.7186,-3.7199,-3.6732,-3.6656,-3.7161,-3.7199,-3.7199,-3.7199,-3.7199,-3.745,-3.8002,-3.8002,-3.8002,-3.8002,-3.8002,-3.8002,-3.8002,-3.8002,-3.7713,-3.4795,-3.5224,0.0,0.0,0.0,0.0,0.0,0.0,0.0,0.0,0.0,0.0,0.0,0.0,0.0,0.0,0.0,0.0,0.0,0.0,0.0,0.0,0.0,0.0,0.0,0.0,0.0,0.0,0.0,0.0,0.0,-3.6505,-3.6405,-3.6405,-3.6405,-3.5763,-3.4434,-3.2994,-3.1633,-3.0266,-2.8953,-2.8291,-2.8291,-2.8291,-2.8291,-2.8291,-2.8291,-2.8359,-2.8506,-2.8799,-2.8994,-2.9111,-2.9111,-3.0137,-3.1644,-3.2281,-3.358,-3.5126,-3.6061,-3.6405,-3.6405,-3.6405,-3.6405,-3.6405,-3.6405,-3.6405,-3.6405,-3.6405,-3.6405,-3.6405,-3.6405,-3.6977,-3.7678,-3.8017,-3.8738,-3.9798,-4.1295,-4.2249,-4.2805,-4.2805,-4.1653,-4.0701,-4.0718,-3.9077,-3.7764,-3.7764,-3.7299,-3.6998,-3.7161,-3.7663,-3.8078,-3.8253,-3.7613,-3.7337,-3.7726,-3.7262,-3.7174,-3.7726,-3.7764,-3.7764,-3.7764,-3.7764,-3.7839,-3.8002,-3.8002,-3.8002,-3.8002,-3.8002,-3.8002,-3.8002,-3.8002,-3.7914,-3.4576,0.0,0.0,0.0,0.0,0.0,0.0,0.0,0.0,0.0,0.0,0.0,0.0,0.0,0.0,0.0,0.0,0.0,0.0,0.0,0.0,0.0,0.0,0.0,0.0,0.0,0.0,0.0,0.0,0.0,0.0,-3.6405,-3.6405,-3.6405,-3.6405,-3.5511,-3.3563,-3.2744,-3.1378,-2.9513,-2.8698,-2.8291,-2.8291,-2.8291,-2.8291,-2.8291,-2.8291,-2.8291,-2.831,-2.8564,-2.8672,-2.8672,-2.8672,-2.9504,-3.0863,-3.1885,-3.3204,-3.4581,-3.5918,-3.6405,-3.6405,-3.6405,-3.6405,-3.6405,-3.6405,-3.6405,-3.6405,-3.6405,-3.6405,-3.6405,-3.6405,-3.7243,-3.8198,-3.8693,-3.9697,-4.0873,-4.2029,-4.2805,-4.3155,-4.2725,-4.1568,-4.0642,-4.0513,-3.8904,-3.7676,-3.7676,-3.7211,-3.6935,-3.7161,-3.7287,-3.7437,-3.7651,-3.7374,-3.7312,-3.7651,-3.7575,-3.7751,-3.8316,-3.8354,-3.8454,-3.8668,-3.8467,-3.8454,-3.8668,-3.868,-3.868,-3.868,-3.868,-3.868,-3.868,-3.868,-3.8555,0.0,0.0,0.0,0.0,0.0,0.0,0.0,0.0,0.0,0.0,0.0,0.0,0.0,0.0,0.0,0.0,0.0,0.0,0.0,0.0,0.0,0.0,0.0,0.0,0.0,0.0,0.0,0.0,0.0,0.0,-3.6405,-3.6405,-3.6405,-3.6405,-3.6263,-3.4957,-3.2331,-3.218,-3.0824,-2.8291,-2.8291,-2.8291,-2.8291,-2.8291,-2.8291,-2.8291,-2.8291,-2.8291,-2.8291,-2.8291,-2.8291,-2.8291,-2.8291,-2.9049,-3.0317,-3.1785,-3.3105,-3.4422,-3.5918,-3.6405,-3.6405,-3.6405,-3.6405,-3.6405,-3.6405,-3.6405,-3.6405,-3.6405,-3.6405,-3.6405,-3.6405,-3.7335,-3.8559,-3.9637,-4.0788,-4.1891,-4.3036,-4.329,-4.2941,-4.1809,-4.1083,-4.024,-3.9091,-3.7899,-3.7111,-3.7111,-3.6732,-3.6593,-3.7048,-3.6719,-3.6606,-3.7109,-3.7149,-3.7199,-3.7262,-3.7713,-3.8253,-3.8881,-3.8869,-3.9044,-3.9597,-3.9182,-3.9182,-3.9685,-3.9697,-3.9697,-3.9697,-3.9697,-3.9697,-3.9697,-3.9697,-3.9421,0.0,0.0,0.0,0.0,0.0,0.0,0.0,0.0,0.0,0.0,0.0,0.0,0.0,0.0,0.0,0.0,0.0,0.0,0.0,0.0,0.0,0.0,0.0,0.0,0.0,0.0,0.0,0.0,0.0,0.0,-3.6405,-3.6405,-3.6405,-3.6405,-3.5379,-3.4019,-3.2331,-3.1276,-2.9911,-2.8291,-2.8291,-2.8291,-2.8291,-2.8291,-2.8291,-2.8291,-2.8291,-2.8291,-2.8291,-2.8291,-2.8291,-2.8291,-2.8291,-2.8495,-2.9006,-3.1429,-3.2482,-3.3093,-3.5547,-3.6405,-3.6405,-3.6405,-3.6405,-3.6405,-3.6405,-3.6405,-3.6405,-3.6405,-3.6405,-3.6405,-3.6405,-3.7952,-3.9579,-3.9855,-4.0788,-4.1891,-4.3036,-4.329,-4.2941,-4.1809,-4.0759,-3.9834,-3.9038,-3.7625,-3.6581,-3.6581,-3.648,-3.6455,-3.6568,-3.648,-3.6455,-3.6568,-3.6923,-3.7362,-3.7789,-3.7939,-3.8253,-3.8881,-3.8442,-3.8454,-3.9032,-3.9346,-3.9572,-3.9697,-3.9697,-3.9697,-3.9697,-3.9697,-3.9697,-3.9697,-3.9697,-3.9634,0.0,0.0,0.0,0.0,0.0,0.0,0.0,0.0,0.0,0.0,0.0,0.0,0.0,0.0,0.0,0.0,0.0,0.0,0.0,0.0,0.0,0.0,0.0,0.0,0.0,0.0,0.0,0.0,0.0,-3.6405,-3.6405,-3.6405,-3.6405,-3.6405,-3.4871,-3.3399,-3.2045,-3.046,-2.9137,-2.7988,-2.7988,-2.8447,-2.926,-2.926,-2.9608,-3.0162,-2.9555,-2.926,-2.9207,-2.8538,-2.8698,-2.926,-2.926,-2.966,-3.0473,-3.2543,-3.3304,-3.3613,-3.5655,-3.6405,-3.6405,-3.6405,-3.6405,-3.6405,-3.6405,-3.6405,-3.6405,-3.6405,-3.6405,-3.6405,-3.6405,-3.7723,-3.9183,-3.9768,-4.1183,-4.2589,-4.3155,-4.286,-4.2167,-4.1,-3.9828,-3.8742,-3.7849,-3.6993,-3.6405,-3.6405,-3.6405,-3.6405,-3.6405,-3.6405,-3.6505,-3.6769,-3.701,-3.7412,-3.7952,-3.8002,-3.8253,-3.8881,-3.858,-3.868,-3.9245,-3.9534,-3.9697,-3.9697,-3.9697,-3.9697,-3.9697,-3.9697,-3.9697,-3.9697,-3.9697,-3.9697,0.0,0.0,0.0,0.0,0.0,0.0,0.0,0.0,0.0,0.0,0.0,0.0,0.0,0.0,0.0,0.0,0.0,0.0,0.0,0.0,0.0,0.0,0.0,0.0,0.0,0.0,0.0,0.0,0.0,-3.6405,-3.6405,-3.6405,-3.6405,-3.6405,-3.4401,-3.2797,-3.1712,-2.9661,-2.8269,-2.7559,-2.7878,-2.9074,-3.0976,-3.1181,-3.1651,-3.223,-3.1122,-3.0669,-3.0514,-2.9207,-2.946,-3.0618,-3.0369,-3.1122,-3.2493,-3.3871,-3.4385,-3.4581,-3.5918,-3.6405,-3.6405,-3.6405,-3.6405,-3.6405,-3.6405,-3.6405,-3.6405,-3.6405,-3.6405,-3.6405,-3.6405,-3.7243,-3.8334,-3.936,-4.1183,-4.278,-4.2941,-4.229,-4.1211,-3.9842,-3.8604,-3.7494,-3.6534,-3.6405,-3.6405,-3.6405,-3.6405,-3.6405,-3.6405,-3.6405,-3.6581,-3.6998,-3.7123,-3.7362,-3.7826,-3.7952,-3.8216,-3.8693,-3.8718,-3.8969,-3.9534,-3.9546,-3.9597,-3.9697,-3.9697,-3.9697,-3.9697,-3.9697,-3.9697,-3.9697,-3.9697,-3.9697,0.0,0.0,0.0,0.0,0.0,0.0,0.0,0.0,0.0,0.0,0.0,0.0,0.0,0.0,0.0,0.0,0.0,0.0,0.0,0.0,0.0,0.0,0.0,0.0,0.0,0.0,0.0,0.0,-3.6405,-3.6405,-3.6405,-3.6405,-3.6405,-3.6405,-3.3501,-3.186,-3.1712,-2.8743,-2.7194,-2.71,-2.8666,-3.0895,-3.3613,-3.4823,-3.4207,-3.228,-3.2129,-3.2028,-3.1927,-3.0566,-3.0813,-3.1927,-3.0773,-3.1122,-3.2493,-3.3871,-3.4385,-3.4581,-3.5918,-3.6405,-3.6405,-3.6405,-3.6405,-3.6405,-3.6405,-3.6405,-3.6405,-3.6405,-3.6405,-3.6405,-3.6405,-3.7243,-3.8153,-3.8289,-3.9346,-4.0618,-4.1601,-4.1726,-4.0944,-3.8769,-3.7415,-3.6581,-3.6452,-3.6405,-3.6405,-3.6405,-3.6405,-3.6405,-3.6405,-3.6405,-3.643,-3.6505,-3.6945,-3.7211,-3.7287,-3.7739,-3.804,-3.8115,-3.8115,-3.8379,-3.8956,-3.9032,-3.9207,-3.9685,-3.9697,-3.9697,-3.9697,-3.9697,-3.9697,-3.9697,-3.9697,-3.9697,0.0,0.0,0.0,0.0,0.0,0.0,0.0,0.0,0.0,0.0,0.0,0.0,0.0,0.0,0.0,0.0,0.0,0.0,0.0,0.0,0.0,0.0,0.0,0.0,0.0,0.0,0.0,0.0,-3.6405,-3.6405,-3.6405,-3.6405,-3.6267,-3.5918,-3.2922,-3.151,-3.1901,-2.8174,-2.6745,-2.771,-3.0111,-3.2507,-3.4834,-3.6774,-3.6903,-3.5507,-3.4752,-3.406,-3.3365,-3.1988,-3.2241,-3.3415,-3.2805,-3.3403,-3.4642,-3.5307,-3.5523,-3.5619,-3.6216,-3.6405,-3.6405,-3.6405,-3.6405,-3.6405,-3.6405,-3.6405,-3.6405,-3.6405,-3.6405,-3.6405,-3.6405,-3.6756,-3.7322,-3.7939,-3.9006,-4.0029,-4.0532,-4.0131,-3.9156,-3.7461,-3.6756,-3.6405,-3.6405,-3.6405,-3.6405,-3.6405,-3.6405,-3.6405,-3.6405,-3.6405,-3.6531,-3.6832,-3.7036,-3.7312,-3.7613,-3.7864,-3.814,-3.8467,-3.8492,-3.8743,-3.9308,-3.9333,-3.9446,-3.9685,-3.9697,-3.9697,-3.9697,-3.9697,-3.9697,-3.9697,-3.9697,-3.9697,0.0,0.0,0.0,0.0,0.0,0.0,0.0,0.0,0.0,0.0,0.0,0.0,0.0,0.0,0.0,0.0,0.0,0.0,0.0,0.0,0.0,0.0,0.0,0.0,0.0,0.0,0.0,0.0,-3.6405,-3.6405,-3.6405,-3.6405,-3.6107,-3.552,-3.2877,-3.1692,-3.2089,-2.8462,-2.7342,-2.8684,-3.1449,-3.3707,-3.557,-3.8005,-3.88,-3.8242,-3.7116,-3.6122,-3.5222,-3.354,-3.365,-3.4872,-3.4532,-3.5223,-3.6405,-3.6405,-3.6405,-3.6405,-3.6405,-3.6405,-3.6405,-3.6405,-3.6405,-3.6405,-3.6405,-3.6405,-3.6405,-3.6405,-3.6405,-3.6405,-3.6405,-3.6405,-3.6675,-3.7848,-3.8783,-3.9536,-3.9855,-3.8961,-3.7756,-3.6628,-3.6405,-3.6405,-3.6405,-3.6405,-3.6405,-3.6405,-3.6405,-3.6405,-3.6405,-3.6405,-3.6568,-3.6923,-3.7098,-3.7349,-3.7764,-3.8065,-3.8417,-3.8894,-3.9057,-3.927,-3.9672,-3.9697,-3.9697,-3.9697,-3.9697,-3.9697,-3.9697,-3.9697,-3.9697,-3.9697,-3.9697,-3.9697,0.0,0.0,0.0,0.0,0.0,0.0,0.0,0.0,0.0,0.0,0.0,0.0,0.0,0.0,0.0,0.0,0.0,0.0,0.0,0.0,0.0,0.0,0.0,0.0,0.0,0.0,0.0,0.0,-3.6405,-3.6405,-3.6405,-3.6405,-3.6107,-3.552,-3.3756,-3.2566,-3.2089,-3.0171,-2.9457,-2.9936,-3.2385,-3.4405,-3.6025,-3.846,-3.9305,-3.8815,-3.8247,-3.7971,-3.7743,-3.5306,-3.5066,-3.6156,-3.4884,-3.5223,-3.6405,-3.6405,-3.6405,-3.6405,-3.6405,-3.6405,-3.6405,-3.6405,-3.6405,-3.6405,-3.6405,-3.6405,-3.6405,-3.6405,-3.6405,-3.6405,-3.6405,-3.6405,-3.6675,-3.7848,-3.8153,-3.8514,-3.9623,-3.8961,-3.7756,-3.6628,-3.6405,-3.6405,-3.6405,-3.6405,-3.6405,-3.6405,-3.6405,-3.6405,-3.6405,-3.6405,-3.6417,-3.6455,-3.692,-3.7199,-3.7224,-3.8216,-3.8894,-3.8919,-3.9371,-3.9659,-3.9697,-3.9697,-3.9697,-3.9697,-3.9697,-3.9697,-3.9697,-3.9697,-3.9697,-3.9697,-3.9697,-3.9697,0.0,0.0,0.0,0.0,0.0,0.0,0.0,0.0,0.0,0.0,0.0,0.0,0.0,0.0,0.0,0.0,0.0,0.0,0.0,0.0,0.0,0.0,0.0,0.0,0.0,0.0,0.0,0.0,0.0,-3.6405,-3.6405,-3.6405,-3.5956,-3.5006,-3.3633,-3.2065,-3.0377,-3.0499,-3.0634,-3.0797,-3.235,-3.4011,-3.5817,-3.7359,-3.8392,-3.8917,-3.7979,-3.7384,-3.693,-3.6036,-3.5966,-3.6358,-3.587,-3.5966,-3.6405,-3.6405,-3.6405,-3.6405,-3.6405,-3.6405,-3.6405,-3.6405,-3.6405,-3.6405,-3.6405,-3.6405,-3.6405,-3.6405,-3.6405,-3.6405,-3.6405,-3.693,-3.7984,-3.9887,-4.0376,-4.0247,-3.9972,-3.8961,-3.7756,-3.6628,-3.6405,-3.6405,-3.6405,-3.6405,-3.6405,-3.6405,-3.6405,-3.6405,-3.6405,-3.6405,-3.6405,-3.6405,-3.7174,-3.7713,-3.7713,-3.8743,-3.9396,-3.9396,-3.9584,-3.9697,-3.9697,-3.9697,-3.9697,-3.9697,-3.9697,-3.9697,-3.9697,-3.9697,-3.9697,-3.9697,-3.9697,-3.9697,0.0,0.0,0.0,0.0,0.0,0.0,0.0,0.0,0.0,0.0,0.0,0.0,0.0,0.0,0.0,0.0,0.0,0.0,0.0,0.0,0.0,0.0,0.0,0.0,0.0,0.0,0.0,0.0,0.0,0.0,-3.6405,-3.6194,-3.5579,-3.4487,-3.3461,-3.2232,-3.0654,-3.1456,-3.1821,-3.1865,-3.2935,-3.4115,-3.5315,-3.6402,-3.7291,-3.8061,-3.7297,-3.6974,-3.693,-3.6534,-3.6405,-3.6405,-3.6405,-3.6405,-3.6405,-3.6405,-3.6405,-3.6405,-3.6405,-3.6405,-3.6405,-3.6405,-3.6405,-3.6405,-3.6405,-3.6405,-3.6405,-3.6405,-3.6675,-3.6977,-3.6977,-3.8107,-3.9669,-4.1239,-4.1587,-4.1295,-4.0159,-3.9271,-3.8257,-3.6709,-3.6405,-3.6405,-3.6405,-3.6405,-3.6405,-3.6405,-3.6405,-3.6405,-3.6405,-3.6405,-3.6405,-3.6405,-3.7349,-3.8002,-3.8002,-3.9044,-3.9697,-3.9697,-3.9697,-3.9697,-3.9697,-3.9697,-3.9697,-3.9697,-3.9697,-3.9697,-3.9697,-3.9697,-3.9697,-3.9697,-3.9697,-3.9697,0.0,0.0,0.0,0.0,0.0,0.0,0.0,0.0,0.0,0.0,0.0,0.0,0.0,0.0,0.0,0.0,0.0,0.0,0.0,0.0,0.0,0.0,0.0,0.0,0.0,0.0,0.0,0.0,-3.6417,-3.6405,-3.6405,-3.583,-3.4981,-3.396,-3.337,-3.3124,-3.3124,-3.3124,-3.3124,-3.3124,-3.415,-3.4664,-3.4705,-3.5668,-3.6157,-3.6262,-3.6262,-3.6964,-3.7984,-3.6849,-3.6405,-3.6405,-3.6405,-3.6405,-3.6405,-3.6405,-3.6405,-3.6405,-3.6405,-3.6405,-3.6405,-3.6405,-3.6405,-3.6405,-3.6405,-3.6405,-3.6405,-3.6405,-3.7243,-3.8107,-3.8198,-3.9887,-4.1587,-4.1629,-4.1629,-4.1295,-4.0159,-3.9855,-3.9139,-3.6849,-3.6405,-3.6405,-3.6405,-3.6405,-3.6405,-3.6405,-3.6405,-3.6405,-3.6405,-3.6405,-3.6405,-3.6405,-3.7337,-3.799,-3.799,-3.9007,-3.9647,-3.9672,-3.9672,-3.9672,-3.9697,-3.9697,-3.9697,-3.9697,-3.9697,-3.9697,-3.9697,-3.9697,-3.9697,-3.9697,-3.9697,-3.9697,-3.923,0.0,0.0,0.0,0.0,0.0,0.0,0.0,0.0,0.0,0.0,0.0,0.0,0.0,0.0,0.0,0.0,0.0,0.0,0.0,0.0,0.0,0.0,0.0,0.0,0.0,0.0,0.0,-3.6631,-3.6405,-3.6405,-3.5466,-3.4768,-3.4512,-3.3571,-3.3124,-3.3124,-3.3124,-3.3124,-3.3124,-3.3398,-3.3556,-3.3556,-3.3827,-3.4401,-3.5137,-3.5137,-3.5818,-3.6849,-3.6534,-3.6405,-3.6405,-3.6405,-3.6405,-3.6405,-3.6405,-3.6405,-3.6405,-3.6405,-3.6405,-3.6405,-3.6405,-3.6405,-3.6405,-3.6405,-3.6405,-3.6405,-3.6405,-3.7243,-3.8501,-4.0204,-4.1112,-4.1809,-4.2629,-4.2193,-4.1295,-4.0159,-3.9227,-3.8166,-3.6675,-3.6405,-3.6405,-3.6405,-3.6405,-3.6405,-3.6405,-3.6405,-3.6405,-3.6405,-3.6405,-3.6405,-3.6405,-3.6998,-3.7412,-3.7412,-3.8065,-3.8655,-3.9069,-3.9094,-3.9283,-3.9672,-3.9697,-3.9697,-3.9697,-3.9697,-3.9697,-3.9697,-3.9697,-3.9697,-3.9697,-3.9697,-3.9697,-3.923,-3.9388,0.0,0.0,0.0,0.0,0.0,-4.1227,0.0,0.0,0.0,0.0,0.0,0.0,0.0,0.0,0.0,0.0,0.0,0.0,0.0,0.0,0.0,0.0,0.0,-4.0528,-3.9318,-3.8071,-3.7194,-3.6508,-3.6044,-3.5416,-3.4919,-3.4726,-3.3872,-3.342,-3.342,-3.3194,-3.3124,-3.3124,-3.3124,-3.3124,-3.3124,-3.3124,-3.3684,-3.468,-3.468,-3.5006,-3.5571,-3.5571,-3.5918,-3.6405,-3.6405,-3.6405,-3.6405,-3.6405,-3.6405,-3.6405,-3.6405,-3.6405,-3.6405,-3.6405,-3.6405,-3.6405,-3.6405,-3.6405,-3.6405,-3.6405,-3.7599,-3.939,-4.1726,-4.233,-4.2371,-4.2548,-4.1726,-4.0561,-3.939,-3.8211,-3.7196,-3.6534,-3.6405,-3.6405,-3.6405,-3.6405,-3.6405,-3.6405,-3.6405,-3.6405,-3.6405,-3.6405,-3.6405,-3.6405,-3.6908,-3.7186,-3.7186,-3.7688,-3.8153,-3.8492,-3.8504,-3.8768,-3.9333,-3.9346,-3.9459,-3.9685,-3.9697,-3.9697,-3.9697,-3.9697,-3.9697,-3.9697,-3.9697,-3.9697,-3.9245,-3.9388,-3.9559,-4.0142,-3.9843,0.0,-4.0778,-4.0547,-3.9994,0.0,0.0,0.0,0.0,0.0,0.0,0.0,0.0,0.0,0.0,0.0,0.0,0.0,0.0,0.0,-4.2944,-4.1802,-4.0497,-3.9289,-3.7925,-3.6659,-3.5646,-3.5533,-3.5245,-3.4738,-3.4186,-3.3872,-3.3809,-3.3319,-3.3124,-3.3124,-3.3124,-3.3124,-3.3124,-3.3124,-3.359,-3.4387,-3.4387,-3.4291,-3.4095,-3.4095,-3.4812,-3.5953,-3.6108,-3.6168,-3.6216,-3.6358,-3.6405,-3.6405,-3.6405,-3.6405,-3.6405,-3.6405,-3.6405,-3.6405,-3.6405,-3.6405,-3.6452,-3.6722,-3.8392,-4.0575,-4.2725,-4.321,-4.286,-4.185,-4.0618,-3.9417,-3.8334,-3.7196,-3.6405,-3.6405,-3.6405,-3.6405,-3.6405,-3.6405,-3.6405,-3.6405,-3.6405,-3.6405,-3.6405,-3.6405,-3.6405,-3.6405,-3.6845,-3.7098,-3.7098,-3.755,-3.7852,-3.7914,-3.7914,-3.8178,-3.8806,-3.8881,-3.9094,-3.9597,-3.9659,-3.9697,-3.9697,-3.9697,-3.9697,-3.9697,-3.9697,-3.9697,-3.9343,-3.9388,-3.9418,-3.9574,-3.9514,0.0,-3.8629,-3.8382,-3.8189,0.0,0.0,0.0,0.0,0.0,0.0,0.0,0.0,0.0,0.0,0.0,0.0,0.0,0.0,0.0,-4.4852,-4.3347,-4.1591,-3.9846,-3.7783,-3.648,-3.6267,-3.578,-3.5245,-3.4738,-3.4186,-3.3684,-3.3244,-3.3131,-3.3124,-3.3124,-3.3124,-3.3124,-3.3124,-3.3124,-3.2927,-3.2608,-3.2608,-3.2441,-3.2215,-3.2215,-3.259,-3.3193,-3.4362,-3.4775,-3.4933,-3.6013,-3.6405,-3.6405,-3.6405,-3.6405,-3.6405,-3.6405,-3.6405,-3.6405,-3.6405,-3.6405,-3.6803,-3.8707,-4.0218,-4.1601,-4.2941,-4.2629,-4.1891,-4.1629,-3.9988,-3.8379,-3.8153,-3.7196,-3.6405,-3.6405,-3.6405,-3.6405,-3.6405,-3.6405,-3.6405,-3.6405,-3.6405,-3.6405,-3.6405,-3.6405,-3.6405,-3.6405,-3.6505,-3.6568,-3.6568,-3.6669,-3.692,-3.7312,-3.7349,-3.76,-3.8153,-3.8617,-3.8969,-3.9032,-3.9471,-3.9697,-3.9697,-3.9697,-3.9697,-3.9697,-3.9697,-3.9697,-3.9388,-3.9388,-3.9265,-3.8745,0.0,0.0,0.0,-3.7021,-3.6794,-3.6116,0.0,0.0,0.0,0.0,0.0,0.0,0.0,0.0,0.0,0.0,0.0,0.0,0.0,0.0,-4.6299,-4.4358,-4.1957,-3.9175,-3.7391,-3.6405,-3.6405,-3.6094,-3.5705,-3.5107,-3.46,-3.4048,-3.3495,-3.3219,-3.3124,-3.3124,-3.3124,-3.3124,-3.3124,-3.3124,-3.2734,-3.2077,-3.2077,-3.1573,-3.0682,-3.0682,-3.056,-3.0525,-3.2543,-3.3773,-3.4483,-3.5174,-3.5823,-3.6405,-3.6405,-3.6405,-3.6405,-3.6405,-3.6803,-3.7243,-3.7243,-3.7691,-3.8527,-4.0261,-4.1169,-4.1726,-4.229,-4.2029,-4.128,-4.0118,-3.8979,-3.7939,-3.7368,-3.6803,-3.6405,-3.6405,-3.6405,-3.6405,-3.6405,-3.6405,-3.6405,-3.6405,-3.6405,-3.6405,-3.6405,-3.6405,-3.6405,-3.6405,-3.6405,-3.6405,-3.6405,-3.6405,-3.6518,-3.6807,-3.682,-3.7023,-3.7575,-3.7877,-3.8291,-3.8906,-3.9421,-3.9697,-3.9697,-3.9421,-3.9421,-3.9685,-3.9421,-3.9433,0.0,0.0,-3.8819,0.0,0.0,-3.7228,0.0,0.0,0.0,-3.4581,0.0,0.0,0.0,0.0,0.0,0.0,0.0,0.0,0.0,0.0,0.0,0.0,0.0,0.0,-4.6804,-4.4619,-4.1834,-3.8778,-3.7273,-3.6595,-3.6709,-3.6546,-3.6056,-3.5357,-3.4906,-3.4412,-3.3746,-3.3307,-3.3124,-3.3124,-3.3124,-3.3124,-3.3124,-3.3124,-3.2528,-3.1604,-3.1604,-3.0611,-2.9051,-2.9134,-2.8931,-2.8833,-3.1345,-3.2994,-3.4068,-3.4581,-3.5475,-3.6405,-3.6405,-3.6405,-3.6452,-3.6675,-3.7507,-3.8469,-3.8469,-3.9271,-4.0404,-4.1337,-4.1587,-4.1587,-4.1587,-4.1239,-4.0462,-3.8545,-3.7939,-3.7494,-3.6581,-3.6405,-3.6405,-3.6405,-3.6405,-3.6405,-3.6405,-3.6405,-3.6405,-3.6405,-3.6405,-3.6405,-3.6405,-3.6405,-3.6405,-3.6405,-3.6405,-3.6405,-3.6405,-3.6405,-3.6405,-3.6405,-3.6405,-3.6606,-3.701,-3.7123,-3.7663,-3.873,-3.9145,-3.9371,-3.9371,-3.8818,-3.8894,-3.9521,-3.9082,-3.9107,0.0,0.0,0.0,0.0,-3.6369,0.0,0.0,0.0,-3.4581,-3.3513,0.0,0.0,0.0,0.0,0.0,0.0,0.0,0.0,0.0,0.0,0.0,0.0,0.0,0.0,0.0,-4.3261,-4.1396,-4.0466,-3.8304,-3.7265,-3.7867,-3.693,-3.5893,-3.4806,-3.4705,-3.4223,-3.3181,-3.3106,-3.3124,-3.3124,-3.3124,-3.3124,-3.3124,-3.3124,-3.1869,-2.9726,-2.9726,-2.8602,-2.6803,-2.7178,-2.8177,-2.971,-3.157,-3.2381,-3.2833,-3.5259,-3.6263,-3.6405,-3.6405,-3.6405,-3.6581,-3.7586,-3.8738,-3.9724,-3.9724,-4.049,-4.142,-4.1545,-4.1587,-4.1587,-4.1587,-4.006,-3.8411,-3.8153,-3.7322,-3.6534,-3.6452,-3.6405,-3.6405,-3.6405,-3.6405,-3.6405,-3.6405,-3.6405,-3.6405,-3.6405,-3.6405,-3.6405,-3.6405,-3.6405,-3.6405,-3.6405,-3.6405,-3.6405,-3.6405,-3.6405,-3.6405,-3.6405,-3.6405,-3.643,-3.6505,-3.6971,-3.7475,-3.809,-3.8165,-3.8203,-3.8203,-3.7638,-3.7927,-3.9007,-3.8957,-3.8957,0.0,0.0,0.0,0.0,0.0,0.0,-3.4024,0.0,-3.3641,0.0,0.0,0.0,0.0,0.0,0.0,0.0,0.0,0.0,0.0,0.0,0.0,0.0,0.0,0.0,0.0,0.0,0.0,0.0,-3.9114,-3.8152,-3.8126,-3.7632,-3.6698,-3.5228,-3.4843,-3.4349,-3.3558,-3.3275,-3.3124,-3.3124,-3.3124,-3.3124,-3.3124,-3.3124,-3.2108,-3.0451,-3.0451,-2.9305,-2.7543,-2.8764,-2.9426,-2.9942,-3.2513,-3.3514,-3.3662,-3.4812,-3.5715,-3.6405,-3.6405,-3.6849,-3.7678,-3.9552,-4.0476,-4.1,-4.1657,-4.2222,-4.2467,-4.1809,-4.1587,-4.128,-3.9931,-3.8845,-3.7939,-3.7276,-3.6756,-3.6405,-3.6405,-3.6405,-3.6405,-3.6405,-3.6405,-3.6405,-3.6405,-3.6405,-3.6405,-3.6405,-3.6405,-3.6405,-3.6405,-3.6405,-3.6405,-3.6405,-3.6405,-3.6405,-3.6405,-3.6405,-3.6405,-3.6405,-3.6405,-3.6405,-3.6405,-3.6933,-3.7299,-3.7525,-3.7839,-3.8002,-3.8002,-3.745,-3.7425,-3.7902,-3.8216,-3.8555,-3.742,0.0,0.0,0.0,0.0,0.0,0.0,0.0,0.0,0.0,0.0,0.0,0.0,0.0,0.0,0.0,0.0,0.0,0.0,0.0,0.0,0.0,0.0,0.0,0.0,0.0,0.0,0.0,0.0,-3.8957,-3.8608,-3.8289,-3.7202,-3.5341,-3.4881,-3.4387,-3.3684,-3.3269,-3.3124,-3.3124,-3.3124,-3.3124,-3.3124,-3.3124,-3.2382,-3.1223,-3.1223,-3.0194,-2.8631,-3.0245,-3.0758,-3.0839,-3.3417,-3.4812,-3.5366,-3.5054,-3.5738,-3.6896,-3.6896,-3.7848,-3.9332,-4.107,-4.1809,-4.2208,-4.3036,-4.3076,-4.2684,-4.185,-4.1155,-4.0247,-3.8545,-3.7848,-3.7415,-3.6581,-3.6405,-3.6405,-3.6405,-3.6405,-3.6455,-3.6606,-3.6518,-3.6455,-3.6606,-3.6505,-3.6405,-3.6405,-3.6405,-3.6405,-3.6405,-3.6405,-3.6405,-3.6405,-3.6405,-3.6405,-3.6405,-3.6405,-3.6405,-3.6405,-3.6405,-3.6405,-3.6405,-3.6795,-3.696,-3.696,-3.7349,-3.755,-3.755,-3.7149,-3.6803,-3.6478,-3.7529,-3.8228,0.0,0.0,0.0,-3.3441,0.0,0.0,0.0,0.0,-3.3124,0.0,0.0,0.0,0.0,0.0,0.0,-3.7587,0.0,0.0,0.0,0.0,0.0,0.0,0.0,0.0,0.0,0.0,0.0,0.0,-4.0625,0.0,-3.983,-3.8738,-3.7079,-3.4788,-3.4726,-3.4198,-3.3162,-3.3124,-3.3124,-3.3124,-3.3124,-3.3124,-3.3124,-3.3124,-3.2382,-3.1223,-3.1223,-3.0496,-2.9462,-3.0482,-3.1662,-3.2888,-3.3981,-3.5879,-3.7848,-3.6743,-3.7057,-3.8062,-3.8062,-3.9552,-4.1504,-4.1587,-4.233,-4.325,-4.329,-4.2548,-4.1629,-4.1587,-3.9974,-3.8198,-3.8107,-3.7276,-3.6452,-3.6405,-3.6405,-3.6405,-3.6405,-3.6405,-3.6568,-3.7048,-3.6769,-3.6581,-3.7061,-3.6757,-3.6405,-3.6405,-3.6405,-3.6405,-3.6405,-3.6405,-3.6405,-3.6405,-3.6405,-3.6405,-3.6405,-3.6405,-3.6405,-3.6405,-3.6405,-3.6405,-3.6405,-3.643,-3.643,-3.643,-3.6455,-3.6455,-3.6455,-3.6443,-3.574,-3.4531,-3.6887,-3.8015,0.0,0.0,-3.3556,-3.3197,0.0,0.0,0.0,0.0,0.0,0.0,0.0,0.0,0.0,0.0,0.0,-3.8782,-3.887,0.0,0.0,0.0,0.0,0.0,0.0,0.0,0.0,0.0,0.0,0.0,-4.1406,0.0,0.0,-3.892,-3.7479,-3.4783,-3.4374,-3.3997,-3.3621,-3.3257,-3.3124,-3.3124,-3.3124,-3.3124,-3.3124,-3.3124,-3.284,-3.2469,-3.2469,-3.1733,-3.0758,-3.2652,-3.3188,-3.3145,-3.5818,-3.7363,-3.8062,-3.7678,-3.8243,-3.9404,-4.0161,-4.0944,-4.1726,-4.2467,-4.2981,-4.3155,-4.2412,-4.1891,-4.128,-3.9713,-3.8725,-3.7939,-3.715,-3.6675,-3.6405,-3.6405,-3.6405,-3.6505,-3.6822,-3.6958,-3.7073,-3.7626,-3.7575,-3.7387,-3.7211,-3.7023,-3.6832,-3.6468,-3.6405,-3.6405,-3.6405,-3.6405,-3.6405,-3.6405,-3.6405,-3.6405,-3.6405,-3.6405,-3.6405,-3.6405,-3.6405,-3.6405,-3.6405,-3.6405,-3.6405,-3.6405,-3.6405,-3.6405,-3.6405,-3.5523,-3.5004,-3.4797,-3.5067,-3.5228,-3.4856,-3.3911,0.0,-3.3124,-3.3124,0.0,-3.3124,0.0,-3.3398,0.0,0.0,0.0,0.0,0.0,0.0,-3.9388,-3.9388,0.0,0.0,-3.9388,0.0,0.0,0.0,0.0,0.0,0.0,-4.0502,-4.1617,-4.1265,0.0,0.0,0.0,-3.7549,-3.5065,-3.4294,-3.3809,-3.3608,-3.3257,-3.3124,-3.3124,-3.3124,-3.3124,-3.3124,-3.3124,-3.3124,-3.3124,-3.3124,-3.2612,-3.1994,-3.3936,-3.4495,-3.4441,-3.7059,-3.859,-3.9288,-3.8903,-3.9478,-4.0661,-4.1823,-4.2193,-4.233,-4.3076,-4.329,-4.3076,-4.1932,-4.1337,-4.0604,-3.8635,-3.7802,-3.7322,-3.6581,-3.6405,-3.6405,-3.6405,-3.6556,-3.6795,-3.7111,-3.7337,-3.7638,-3.8203,-3.8153,-3.7965,-3.7814,-3.7613,-3.7224,-3.6518,-3.6405,-3.6405,-3.6405,-3.6405,-3.6405,-3.6405,-3.6405,-3.6405,-3.6405,-3.6405,-3.6405,-3.6405,-3.6405,-3.6405,-3.6405,-3.6405,-3.6405,-3.6405,-3.6405,-3.6405,-3.6405,-3.5211,-3.4516,-3.4279,-3.3543,-3.2998]}]]